<?xml version="1.0" encoding="UTF-8" standalone="no" ?><gpx xmlns="http://www.topografix.com/GPX/1/1" xmlns:gpxx="http://www.garmin.com/xmlschemas/GpxExtensions/v3" xmlns:wptx1="http://www.garmin.com/xmlschemas/WaypointExtension/v1" xmlns:gpxtpx="http://www.garmin.com/xmlschemas/TrackPointExtension/v1" creator="GuideVTT.com" version="1.1" xmlns:xsi="http://www.w3.org/2001/XMLSchema-instance" xsi:schemaLocation="http://www.topografix.com/GPX/1/1 http://www.topografix.com/GPX/1/1/gpx.xsd http://www.garmin.com/xmlschemas/GpxExtensions/v3 http://www8.garmin.com/xmlschemas/GpxExtensionsv3.xsd http://www.garmin.com/xmlschemas/WaypointExtension/v1 http://www8.garmin.com/xmlschemas/WaypointExtensionv1.xsd http://www.garmin.com/xmlschemas/TrackPointExtension/v1 http://www.garmin.com/xmlschemas/TrackPointExtensionv1.xsd">
<metadata><link href="http://www.garmin.com"><text>Garmin International</text></link><time>2013-06-22T15:13:50Z</time></metadata>
<trk><name>2017-07-09-01-data.gpx</name><extensions><gpxx:TrackExtension><gpxx:DisplayColor>Cyan</gpxx:DisplayColor></gpxx:TrackExtension></extensions><trkseg>
<trkpt lat="48.496663" lon="2.634457"><ele></ele><time>2019-1-17T2:54:44Z</time></trkpt>
<trkpt lat="48.496648" lon="2.634501"><ele></ele><time>2019-1-17T2:54:47Z</time></trkpt>
<trkpt lat="48.496599" lon="2.634617"><ele></ele><time>2019-1-17T2:54:50Z</time></trkpt>
<trkpt lat="48.496687" lon="2.634687"><ele></ele><time>2019-1-17T2:54:53Z</time></trkpt>
<trkpt lat="48.496663" lon="2.634829"><ele></ele><time>2019-1-17T2:54:56Z</time></trkpt>
<trkpt lat="48.496523" lon="2.635017"><ele></ele><time>2019-1-17T2:54:59Z</time></trkpt>
<trkpt lat="48.496404" lon="2.635203"><ele></ele><time>2019-1-17T2:55:2Z</time></trkpt>
<trkpt lat="48.496325" lon="2.635274"><ele></ele><time>2019-1-17T2:55:5Z</time></trkpt>
<trkpt lat="48.496256" lon="2.635373"><ele></ele><time>2019-1-17T2:55:8Z</time></trkpt>
<trkpt lat="48.496183" lon="2.635466"><ele></ele><time>2019-1-17T2:55:11Z</time></trkpt>
<trkpt lat="48.496107" lon="2.635564"><ele></ele><time>2019-1-17T2:55:14Z</time></trkpt>
<trkpt lat="48.49602" lon="2.635691"><ele></ele><time>2019-1-17T2:55:17Z</time></trkpt>
<trkpt lat="48.495936" lon="2.635791"><ele></ele><time>2019-1-17T2:55:20Z</time></trkpt>
<trkpt lat="48.495731" lon="2.636008"><ele></ele><time>2019-1-17T2:55:23Z</time></trkpt>
<trkpt lat="48.495587" lon="2.636178"><ele></ele><time>2019-1-17T2:55:26Z</time></trkpt>
<trkpt lat="48.495483" lon="2.636311"><ele></ele><time>2019-1-17T2:55:29Z</time></trkpt>
<trkpt lat="48.495376" lon="2.636427"><ele></ele><time>2019-1-17T2:55:32Z</time></trkpt>
<trkpt lat="48.495231" lon="2.636617"><ele></ele><time>2019-1-17T2:55:35Z</time></trkpt>
<trkpt lat="48.495077" lon="2.636798"><ele></ele><time>2019-1-17T2:55:38Z</time></trkpt>
<trkpt lat="48.494886" lon="2.636989"><ele></ele><time>2019-1-17T2:55:41Z</time></trkpt>
<trkpt lat="48.49471" lon="2.637164"><ele></ele><time>2019-1-17T2:55:44Z</time></trkpt>
<trkpt lat="48.494581" lon="2.637329"><ele></ele><time>2019-1-17T2:55:47Z</time></trkpt>
<trkpt lat="48.494456" lon="2.637448"><ele></ele><time>2019-1-17T2:55:50Z</time></trkpt>
<trkpt lat="48.494376" lon="2.637553"><ele></ele><time>2019-1-17T2:55:53Z</time></trkpt>
<trkpt lat="48.494272" lon="2.637631"><ele></ele><time>2019-1-17T2:55:56Z</time></trkpt>
<trkpt lat="48.494178" lon="2.637714"><ele></ele><time>2019-1-17T2:55:59Z</time></trkpt>
<trkpt lat="48.49408" lon="2.637842"><ele></ele><time>2019-1-17T2:56:2Z</time></trkpt>
<trkpt lat="48.493956" lon="2.637983"><ele></ele><time>2019-1-17T2:56:5Z</time></trkpt>
<trkpt lat="48.493912" lon="2.638141"><ele></ele><time>2019-1-17T2:56:8Z</time></trkpt>
<trkpt lat="48.493837" lon="2.638236"><ele></ele><time>2019-1-17T2:56:11Z</time></trkpt>
<trkpt lat="48.493752" lon="2.638364"><ele></ele><time>2019-1-17T2:56:14Z</time></trkpt>
<trkpt lat="48.493657" lon="2.638484"><ele></ele><time>2019-1-17T2:56:17Z</time></trkpt>
<trkpt lat="48.49356" lon="2.638616"><ele></ele><time>2019-1-17T2:56:20Z</time></trkpt>
<trkpt lat="48.493468" lon="2.638717"><ele></ele><time>2019-1-17T2:56:23Z</time></trkpt>
<trkpt lat="48.493362" lon="2.63884"><ele></ele><time>2019-1-17T2:56:26Z</time></trkpt>
<trkpt lat="48.49323" lon="2.639009"><ele></ele><time>2019-1-17T2:56:29Z</time></trkpt>
<trkpt lat="48.493146" lon="2.639184"><ele></ele><time>2019-1-17T2:56:32Z</time></trkpt>
<trkpt lat="48.493099" lon="2.63932"><ele></ele><time>2019-1-17T2:56:35Z</time></trkpt>
<trkpt lat="48.493015" lon="2.639368"><ele></ele><time>2019-1-17T2:56:38Z</time></trkpt>
<trkpt lat="48.492955" lon="2.639527"><ele></ele><time>2019-1-17T2:56:41Z</time></trkpt>
<trkpt lat="48.492897" lon="2.639639"><ele></ele><time>2019-1-17T2:56:44Z</time></trkpt>
<trkpt lat="48.492845" lon="2.639831"><ele></ele><time>2019-1-17T2:56:47Z</time></trkpt>
<trkpt lat="48.492738" lon="2.639858"><ele></ele><time>2019-1-17T2:56:50Z</time></trkpt>
<trkpt lat="48.492658" lon="2.639929"><ele></ele><time>2019-1-17T2:56:53Z</time></trkpt>
<trkpt lat="48.492588" lon="2.640067"><ele></ele><time>2019-1-17T2:56:56Z</time></trkpt>
<trkpt lat="48.492488" lon="2.640177"><ele></ele><time>2019-1-17T2:56:59Z</time></trkpt>
<trkpt lat="48.492412" lon="2.640336"><ele></ele><time>2019-1-17T2:57:2Z</time></trkpt>
<trkpt lat="48.492301" lon="2.640475"><ele></ele><time>2019-1-17T2:57:5Z</time></trkpt>
<trkpt lat="48.492218" lon="2.640588"><ele></ele><time>2019-1-17T2:57:8Z</time></trkpt>
<trkpt lat="48.492142" lon="2.640662"><ele></ele><time>2019-1-17T2:57:11Z</time></trkpt>
<trkpt lat="48.492042" lon="2.64081"><ele></ele><time>2019-1-17T2:57:14Z</time></trkpt>
<trkpt lat="48.491916" lon="2.640963"><ele></ele><time>2019-1-17T2:57:17Z</time></trkpt>
<trkpt lat="48.491819" lon="2.64106"><ele></ele><time>2019-1-17T2:57:20Z</time></trkpt>
<trkpt lat="48.491675" lon="2.641191"><ele></ele><time>2019-1-17T2:57:23Z</time></trkpt>
<trkpt lat="48.491529" lon="2.641284"><ele></ele><time>2019-1-17T2:57:26Z</time></trkpt>
<trkpt lat="48.49144" lon="2.641358"><ele></ele><time>2019-1-17T2:57:29Z</time></trkpt>
<trkpt lat="48.491326" lon="2.641472"><ele></ele><time>2019-1-17T2:57:32Z</time></trkpt>
<trkpt lat="48.491203" lon="2.641658"><ele></ele><time>2019-1-17T2:57:35Z</time></trkpt>
<trkpt lat="48.491018" lon="2.641845"><ele></ele><time>2019-1-17T2:57:38Z</time></trkpt>
<trkpt lat="48.490905" lon="2.641962"><ele></ele><time>2019-1-17T2:57:41Z</time></trkpt>
<trkpt lat="48.490809" lon="2.642059"><ele></ele><time>2019-1-17T2:57:44Z</time></trkpt>
<trkpt lat="48.49072" lon="2.642165"><ele></ele><time>2019-1-17T2:57:47Z</time></trkpt>
<trkpt lat="48.490603" lon="2.642256"><ele></ele><time>2019-1-17T2:57:50Z</time></trkpt>
<trkpt lat="48.4905" lon="2.642353"><ele></ele><time>2019-1-17T2:57:53Z</time></trkpt>
<trkpt lat="48.490392" lon="2.642486"><ele></ele><time>2019-1-17T2:57:56Z</time></trkpt>
<trkpt lat="48.490279" lon="2.642633"><ele></ele><time>2019-1-17T2:57:59Z</time></trkpt>
<trkpt lat="48.490168" lon="2.642748"><ele></ele><time>2019-1-17T2:58:2Z</time></trkpt>
<trkpt lat="48.49009" lon="2.642864"><ele></ele><time>2019-1-17T2:58:5Z</time></trkpt>
<trkpt lat="48.489982" lon="2.642951"><ele></ele><time>2019-1-17T2:58:8Z</time></trkpt>
<trkpt lat="48.489938" lon="2.643082"><ele></ele><time>2019-1-17T2:58:11Z</time></trkpt>
<trkpt lat="48.489778" lon="2.643284"><ele></ele><time>2019-1-17T2:58:14Z</time></trkpt>
<trkpt lat="48.489657" lon="2.643411"><ele></ele><time>2019-1-17T2:58:17Z</time></trkpt>
<trkpt lat="48.489549" lon="2.643497"><ele></ele><time>2019-1-17T2:58:20Z</time></trkpt>
<trkpt lat="48.489494" lon="2.643673"><ele></ele><time>2019-1-17T2:58:23Z</time></trkpt>
<trkpt lat="48.48944" lon="2.643842"><ele></ele><time>2019-1-17T2:58:26Z</time></trkpt>
<trkpt lat="48.489508" lon="2.64399"><ele></ele><time>2019-1-17T2:58:29Z</time></trkpt>
<trkpt lat="48.489515" lon="2.644151"><ele></ele><time>2019-1-17T2:58:32Z</time></trkpt>
<trkpt lat="48.489463" lon="2.64428"><ele></ele><time>2019-1-17T2:58:35Z</time></trkpt>
<trkpt lat="48.489529" lon="2.644444"><ele></ele><time>2019-1-17T2:58:38Z</time></trkpt>
<trkpt lat="48.48942" lon="2.644612"><ele></ele><time>2019-1-17T2:58:41Z</time></trkpt>
<trkpt lat="48.489374" lon="2.644766"><ele></ele><time>2019-1-17T2:58:44Z</time></trkpt>
<trkpt lat="48.489264" lon="2.644984"><ele></ele><time>2019-1-17T2:58:47Z</time></trkpt>
<trkpt lat="48.489243" lon="2.645172"><ele></ele><time>2019-1-17T2:58:50Z</time></trkpt>
<trkpt lat="48.489162" lon="2.645247"><ele></ele><time>2019-1-17T2:58:53Z</time></trkpt>
<trkpt lat="48.48907" lon="2.645305"><ele></ele><time>2019-1-17T2:58:56Z</time></trkpt>
<trkpt lat="48.489125" lon="2.645431"><ele></ele><time>2019-1-17T2:58:59Z</time></trkpt>
<trkpt lat="48.489078" lon="2.645628"><ele></ele><time>2019-1-17T2:59:2Z</time></trkpt>
<trkpt lat="48.489091" lon="2.645814"><ele></ele><time>2019-1-17T2:59:5Z</time></trkpt>
<trkpt lat="48.489103" lon="2.645969"><ele></ele><time>2019-1-17T2:59:8Z</time></trkpt>
<trkpt lat="48.489056" lon="2.646086"><ele></ele><time>2019-1-17T2:59:11Z</time></trkpt>
<trkpt lat="48.489004" lon="2.646235"><ele></ele><time>2019-1-17T2:59:14Z</time></trkpt>
<trkpt lat="48.488958" lon="2.646398"><ele></ele><time>2019-1-17T2:59:17Z</time></trkpt>
<trkpt lat="48.488861" lon="2.646564"><ele></ele><time>2019-1-17T2:59:20Z</time></trkpt>
<trkpt lat="48.488801" lon="2.646697"><ele></ele><time>2019-1-17T2:59:23Z</time></trkpt>
<trkpt lat="48.488783" lon="2.646869"><ele></ele><time>2019-1-17T2:59:26Z</time></trkpt>
<trkpt lat="48.488688" lon="2.646961"><ele></ele><time>2019-1-17T2:59:29Z</time></trkpt>
<trkpt lat="48.488618" lon="2.647065"><ele></ele><time>2019-1-17T2:59:32Z</time></trkpt>
<trkpt lat="48.48851" lon="2.647223"><ele></ele><time>2019-1-17T2:59:35Z</time></trkpt>
<trkpt lat="48.488431" lon="2.647361"><ele></ele><time>2019-1-17T2:59:38Z</time></trkpt>
<trkpt lat="48.48837" lon="2.64747"><ele></ele><time>2019-1-17T2:59:41Z</time></trkpt>
<trkpt lat="48.488325" lon="2.647593"><ele></ele><time>2019-1-17T2:59:44Z</time></trkpt>
<trkpt lat="48.488219" lon="2.64778"><ele></ele><time>2019-1-17T2:59:47Z</time></trkpt>
<trkpt lat="48.488168" lon="2.647927"><ele></ele><time>2019-1-17T2:59:50Z</time></trkpt>
<trkpt lat="48.48811" lon="2.64807"><ele></ele><time>2019-1-17T2:59:53Z</time></trkpt>
<trkpt lat="48.488087" lon="2.64829"><ele></ele><time>2019-1-17T2:59:56Z</time></trkpt>
<trkpt lat="48.487997" lon="2.648354"><ele></ele><time>2019-1-17T2:59:59Z</time></trkpt>
<trkpt lat="48.487991" lon="2.64849"><ele></ele><time>2019-1-17T3:0:2Z</time></trkpt>
<trkpt lat="48.487869" lon="2.648545"><ele></ele><time>2019-1-17T3:0:5Z</time></trkpt>
<trkpt lat="48.487793" lon="2.648671"><ele></ele><time>2019-1-17T3:0:8Z</time></trkpt>
<trkpt lat="48.487722" lon="2.648775"><ele></ele><time>2019-1-17T3:0:11Z</time></trkpt>
<trkpt lat="48.487619" lon="2.648907"><ele></ele><time>2019-1-17T3:0:14Z</time></trkpt>
<trkpt lat="48.48764" lon="2.649072"><ele></ele><time>2019-1-17T3:0:17Z</time></trkpt>
<trkpt lat="48.487597" lon="2.649237"><ele></ele><time>2019-1-17T3:0:20Z</time></trkpt>
<trkpt lat="48.48752" lon="2.649387"><ele></ele><time>2019-1-17T3:0:23Z</time></trkpt>
<trkpt lat="48.487423" lon="2.649527"><ele></ele><time>2019-1-17T3:0:26Z</time></trkpt>
<trkpt lat="48.48731" lon="2.649652"><ele></ele><time>2019-1-17T3:0:29Z</time></trkpt>
<trkpt lat="48.487242" lon="2.649773"><ele></ele><time>2019-1-17T3:0:32Z</time></trkpt>
<trkpt lat="48.487113" lon="2.649934"><ele></ele><time>2019-1-17T3:0:35Z</time></trkpt>
<trkpt lat="48.487034" lon="2.650052"><ele></ele><time>2019-1-17T3:0:38Z</time></trkpt>
<trkpt lat="48.486971" lon="2.650168"><ele></ele><time>2019-1-17T3:0:41Z</time></trkpt>
<trkpt lat="48.48684" lon="2.65027"><ele></ele><time>2019-1-17T3:0:44Z</time></trkpt>
<trkpt lat="48.486888" lon="2.650403"><ele></ele><time>2019-1-17T3:0:47Z</time></trkpt>
<trkpt lat="48.486911" lon="2.650537"><ele></ele><time>2019-1-17T3:0:50Z</time></trkpt>
<trkpt lat="48.486868" lon="2.650724"><ele></ele><time>2019-1-17T3:0:53Z</time></trkpt>
<trkpt lat="48.486767" lon="2.650931"><ele></ele><time>2019-1-17T3:0:56Z</time></trkpt>
<trkpt lat="48.486789" lon="2.651066"><ele></ele><time>2019-1-17T3:0:59Z</time></trkpt>
<trkpt lat="48.486698" lon="2.651194"><ele></ele><time>2019-1-17T3:1:2Z</time></trkpt>
<trkpt lat="48.48669" lon="2.651333"><ele></ele><time>2019-1-17T3:1:5Z</time></trkpt>
<trkpt lat="48.486599" lon="2.65144"><ele></ele><time>2019-1-17T3:1:8Z</time></trkpt>
<trkpt lat="48.486467" lon="2.651568"><ele></ele><time>2019-1-17T3:1:11Z</time></trkpt>
<trkpt lat="48.48638" lon="2.651718"><ele></ele><time>2019-1-17T3:1:14Z</time></trkpt>
<trkpt lat="48.486306" lon="2.651882"><ele></ele><time>2019-1-17T3:1:17Z</time></trkpt>
<trkpt lat="48.486211" lon="2.652005"><ele></ele><time>2019-1-17T3:1:20Z</time></trkpt>
<trkpt lat="48.486107" lon="2.652117"><ele></ele><time>2019-1-17T3:1:23Z</time></trkpt>
<trkpt lat="48.486021" lon="2.652264"><ele></ele><time>2019-1-17T3:1:26Z</time></trkpt>
<trkpt lat="48.485903" lon="2.652448"><ele></ele><time>2019-1-17T3:1:29Z</time></trkpt>
<trkpt lat="48.485816" lon="2.652548"><ele></ele><time>2019-1-17T3:1:32Z</time></trkpt>
<trkpt lat="48.485705" lon="2.652703"><ele></ele><time>2019-1-17T3:1:35Z</time></trkpt>
<trkpt lat="48.485615" lon="2.65282"><ele></ele><time>2019-1-17T3:1:38Z</time></trkpt>
<trkpt lat="48.485611" lon="2.652973"><ele></ele><time>2019-1-17T3:1:41Z</time></trkpt>
<trkpt lat="48.485637" lon="2.65313"><ele></ele><time>2019-1-17T3:1:44Z</time></trkpt>
<trkpt lat="48.485546" lon="2.653207"><ele></ele><time>2019-1-17T3:1:47Z</time></trkpt>
<trkpt lat="48.485522" lon="2.653366"><ele></ele><time>2019-1-17T3:1:50Z</time></trkpt>
<trkpt lat="48.485501" lon="2.653518"><ele></ele><time>2019-1-17T3:1:53Z</time></trkpt>
<trkpt lat="48.485445" lon="2.653648"><ele></ele><time>2019-1-17T3:1:56Z</time></trkpt>
<trkpt lat="48.485413" lon="2.653792"><ele></ele><time>2019-1-17T3:1:59Z</time></trkpt>
<trkpt lat="48.485391" lon="2.653944"><ele></ele><time>2019-1-17T3:2:2Z</time></trkpt>
<trkpt lat="48.485333" lon="2.654129"><ele></ele><time>2019-1-17T3:2:5Z</time></trkpt>
<trkpt lat="48.485271" lon="2.654275"><ele></ele><time>2019-1-17T3:2:8Z</time></trkpt>
<trkpt lat="48.48527" lon="2.654467"><ele></ele><time>2019-1-17T3:2:11Z</time></trkpt>
<trkpt lat="48.485229" lon="2.654634"><ele></ele><time>2019-1-17T3:2:14Z</time></trkpt>
<trkpt lat="48.485205" lon="2.654847"><ele></ele><time>2019-1-17T3:2:17Z</time></trkpt>
<trkpt lat="48.485157" lon="2.655052"><ele></ele><time>2019-1-17T3:2:20Z</time></trkpt>
<trkpt lat="48.485128" lon="2.65521"><ele></ele><time>2019-1-17T3:2:23Z</time></trkpt>
<trkpt lat="48.485139" lon="2.655491"><ele></ele><time>2019-1-17T3:2:26Z</time></trkpt>
<trkpt lat="48.485168" lon="2.655726"><ele></ele><time>2019-1-17T3:2:29Z</time></trkpt>
<trkpt lat="48.485152" lon="2.655921"><ele></ele><time>2019-1-17T3:2:32Z</time></trkpt>
<trkpt lat="48.485155" lon="2.656089"><ele></ele><time>2019-1-17T3:2:35Z</time></trkpt>
<trkpt lat="48.485092" lon="2.656243"><ele></ele><time>2019-1-17T3:2:38Z</time></trkpt>
<trkpt lat="48.485085" lon="2.656428"><ele></ele><time>2019-1-17T3:2:41Z</time></trkpt>
<trkpt lat="48.485037" lon="2.65661"><ele></ele><time>2019-1-17T3:2:44Z</time></trkpt>
<trkpt lat="48.485001" lon="2.656747"><ele></ele><time>2019-1-17T3:2:47Z</time></trkpt>
<trkpt lat="48.484968" lon="2.656925"><ele></ele><time>2019-1-17T3:2:50Z</time></trkpt>
<trkpt lat="48.484945" lon="2.657125"><ele></ele><time>2019-1-17T3:2:53Z</time></trkpt>
<trkpt lat="48.484924" lon="2.657372"><ele></ele><time>2019-1-17T3:2:56Z</time></trkpt>
<trkpt lat="48.484869" lon="2.657495"><ele></ele><time>2019-1-17T3:2:59Z</time></trkpt>
<trkpt lat="48.484814" lon="2.657738"><ele></ele><time>2019-1-17T3:3:2Z</time></trkpt>
<trkpt lat="48.484778" lon="2.657873"><ele></ele><time>2019-1-17T3:3:5Z</time></trkpt>
<trkpt lat="48.484776" lon="2.658033"><ele></ele><time>2019-1-17T3:3:8Z</time></trkpt>
<trkpt lat="48.484875" lon="2.658256"><ele></ele><time>2019-1-17T3:3:11Z</time></trkpt>
<trkpt lat="48.484776" lon="2.65837"><ele></ele><time>2019-1-17T3:3:14Z</time></trkpt>
<trkpt lat="48.484756" lon="2.658542"><ele></ele><time>2019-1-17T3:3:17Z</time></trkpt>
<trkpt lat="48.484749" lon="2.65878"><ele></ele><time>2019-1-17T3:3:20Z</time></trkpt>
<trkpt lat="48.484745" lon="2.658948"><ele></ele><time>2019-1-17T3:3:23Z</time></trkpt>
<trkpt lat="48.484728" lon="2.659138"><ele></ele><time>2019-1-17T3:3:26Z</time></trkpt>
<trkpt lat="48.484734" lon="2.659297"><ele></ele><time>2019-1-17T3:3:29Z</time></trkpt>
<trkpt lat="48.484686" lon="2.65946"><ele></ele><time>2019-1-17T3:3:32Z</time></trkpt>
<trkpt lat="48.484623" lon="2.659586"><ele></ele><time>2019-1-17T3:3:35Z</time></trkpt>
<trkpt lat="48.484617" lon="2.659765"><ele></ele><time>2019-1-17T3:3:38Z</time></trkpt>
<trkpt lat="48.484602" lon="2.659947"><ele></ele><time>2019-1-17T3:3:41Z</time></trkpt>
<trkpt lat="48.484565" lon="2.660121"><ele></ele><time>2019-1-17T3:3:44Z</time></trkpt>
<trkpt lat="48.484464" lon="2.660273"><ele></ele><time>2019-1-17T3:3:47Z</time></trkpt>
<trkpt lat="48.484552" lon="2.660305"><ele></ele><time>2019-1-17T3:3:50Z</time></trkpt>
<trkpt lat="48.484526" lon="2.66044"><ele></ele><time>2019-1-17T3:3:53Z</time></trkpt>
<trkpt lat="48.484501" lon="2.660605"><ele></ele><time>2019-1-17T3:3:56Z</time></trkpt>
<trkpt lat="48.484436" lon="2.660754"><ele></ele><time>2019-1-17T3:3:59Z</time></trkpt>
<trkpt lat="48.484421" lon="2.660964"><ele></ele><time>2019-1-17T3:4:2Z</time></trkpt>
<trkpt lat="48.484387" lon="2.661108"><ele></ele><time>2019-1-17T3:4:5Z</time></trkpt>
<trkpt lat="48.484392" lon="2.661275"><ele></ele><time>2019-1-17T3:4:8Z</time></trkpt>
<trkpt lat="48.484322" lon="2.661441"><ele></ele><time>2019-1-17T3:4:11Z</time></trkpt>
<trkpt lat="48.484302" lon="2.661577"><ele></ele><time>2019-1-17T3:4:14Z</time></trkpt>
<trkpt lat="48.484312" lon="2.661715"><ele></ele><time>2019-1-17T3:4:17Z</time></trkpt>
<trkpt lat="48.484264" lon="2.661832"><ele></ele><time>2019-1-17T3:4:20Z</time></trkpt>
<trkpt lat="48.484204" lon="2.661934"><ele></ele><time>2019-1-17T3:4:23Z</time></trkpt>
<trkpt lat="48.48414" lon="2.662034"><ele></ele><time>2019-1-17T3:4:26Z</time></trkpt>
<trkpt lat="48.484036" lon="2.662071"><ele></ele><time>2019-1-17T3:4:29Z</time></trkpt>
<trkpt lat="48.484003" lon="2.662215"><ele></ele><time>2019-1-17T3:4:32Z</time></trkpt>
<trkpt lat="48.48399" lon="2.662362"><ele></ele><time>2019-1-17T3:4:35Z</time></trkpt>
<trkpt lat="48.483951" lon="2.662492"><ele></ele><time>2019-1-17T3:4:38Z</time></trkpt>
<trkpt lat="48.483898" lon="2.662619"><ele></ele><time>2019-1-17T3:4:41Z</time></trkpt>
<trkpt lat="48.483862" lon="2.662748"><ele></ele><time>2019-1-17T3:4:44Z</time></trkpt>
<trkpt lat="48.483909" lon="2.662873"><ele></ele><time>2019-1-17T3:4:47Z</time></trkpt>
<trkpt lat="48.483829" lon="2.663007"><ele></ele><time>2019-1-17T3:4:50Z</time></trkpt>
<trkpt lat="48.483742" lon="2.66312"><ele></ele><time>2019-1-17T3:4:53Z</time></trkpt>
<trkpt lat="48.483679" lon="2.663229"><ele></ele><time>2019-1-17T3:4:56Z</time></trkpt>
<trkpt lat="48.483723" lon="2.66338"><ele></ele><time>2019-1-17T3:4:59Z</time></trkpt>
<trkpt lat="48.483654" lon="2.663537"><ele></ele><time>2019-1-17T3:5:2Z</time></trkpt>
<trkpt lat="48.483598" lon="2.663686"><ele></ele><time>2019-1-17T3:5:5Z</time></trkpt>
<trkpt lat="48.483587" lon="2.663831"><ele></ele><time>2019-1-17T3:5:8Z</time></trkpt>
<trkpt lat="48.483543" lon="2.663973"><ele></ele><time>2019-1-17T3:5:11Z</time></trkpt>
<trkpt lat="48.48355" lon="2.664145"><ele></ele><time>2019-1-17T3:5:14Z</time></trkpt>
<trkpt lat="48.483491" lon="2.664265"><ele></ele><time>2019-1-17T3:5:17Z</time></trkpt>
<trkpt lat="48.483481" lon="2.664439"><ele></ele><time>2019-1-17T3:5:20Z</time></trkpt>
<trkpt lat="48.483386" lon="2.66458"><ele></ele><time>2019-1-17T3:5:23Z</time></trkpt>
<trkpt lat="48.483353" lon="2.664734"><ele></ele><time>2019-1-17T3:5:26Z</time></trkpt>
<trkpt lat="48.483296" lon="2.664844"><ele></ele><time>2019-1-17T3:5:29Z</time></trkpt>
<trkpt lat="48.483176" lon="2.664905"><ele></ele><time>2019-1-17T3:5:32Z</time></trkpt>
<trkpt lat="48.483059" lon="2.66491"><ele></ele><time>2019-1-17T3:5:35Z</time></trkpt>
<trkpt lat="48.482941" lon="2.664899"><ele></ele><time>2019-1-17T3:5:38Z</time></trkpt>
<trkpt lat="48.482842" lon="2.664852"><ele></ele><time>2019-1-17T3:5:41Z</time></trkpt>
<trkpt lat="48.482739" lon="2.664799"><ele></ele><time>2019-1-17T3:5:44Z</time></trkpt>
<trkpt lat="48.482708" lon="2.664648"><ele></ele><time>2019-1-17T3:5:47Z</time></trkpt>
<trkpt lat="48.482689" lon="2.664508"><ele></ele><time>2019-1-17T3:5:50Z</time></trkpt>
<trkpt lat="48.482708" lon="2.664364"><ele></ele><time>2019-1-17T3:5:53Z</time></trkpt>
<trkpt lat="48.48268" lon="2.664187"><ele></ele><time>2019-1-17T3:5:56Z</time></trkpt>
<trkpt lat="48.482657" lon="2.663971"><ele></ele><time>2019-1-17T3:5:59Z</time></trkpt>
<trkpt lat="48.482607" lon="2.663828"><ele></ele><time>2019-1-17T3:6:2Z</time></trkpt>
<trkpt lat="48.482549" lon="2.663681"><ele></ele><time>2019-1-17T3:6:5Z</time></trkpt>
<trkpt lat="48.482514" lon="2.663434"><ele></ele><time>2019-1-17T3:6:8Z</time></trkpt>
<trkpt lat="48.482447" lon="2.663333"><ele></ele><time>2019-1-17T3:6:11Z</time></trkpt>
<trkpt lat="48.482408" lon="2.663122"><ele></ele><time>2019-1-17T3:6:14Z</time></trkpt>
<trkpt lat="48.482349" lon="2.662937"><ele></ele><time>2019-1-17T3:6:17Z</time></trkpt>
<trkpt lat="48.482255" lon="2.66284"><ele></ele><time>2019-1-17T3:6:20Z</time></trkpt>
<trkpt lat="48.482228" lon="2.662644"><ele></ele><time>2019-1-17T3:6:23Z</time></trkpt>
<trkpt lat="48.482178" lon="2.662457"><ele></ele><time>2019-1-17T3:6:26Z</time></trkpt>
<trkpt lat="48.482203" lon="2.662259"><ele></ele><time>2019-1-17T3:6:29Z</time></trkpt>
<trkpt lat="48.482182" lon="2.662042"><ele></ele><time>2019-1-17T3:6:32Z</time></trkpt>
<trkpt lat="48.482147" lon="2.661904"><ele></ele><time>2019-1-17T3:6:35Z</time></trkpt>
<trkpt lat="48.482051" lon="2.661738"><ele></ele><time>2019-1-17T3:6:38Z</time></trkpt>
<trkpt lat="48.481993" lon="2.661595"><ele></ele><time>2019-1-17T3:6:41Z</time></trkpt>
<trkpt lat="48.481926" lon="2.661416"><ele></ele><time>2019-1-17T3:6:44Z</time></trkpt>
<trkpt lat="48.481858" lon="2.661321"><ele></ele><time>2019-1-17T3:6:47Z</time></trkpt>
<trkpt lat="48.481801" lon="2.661161"><ele></ele><time>2019-1-17T3:6:50Z</time></trkpt>
<trkpt lat="48.481743" lon="2.660924"><ele></ele><time>2019-1-17T3:6:53Z</time></trkpt>
<trkpt lat="48.481658" lon="2.660702"><ele></ele><time>2019-1-17T3:6:56Z</time></trkpt>
<trkpt lat="48.481571" lon="2.660473"><ele></ele><time>2019-1-17T3:6:59Z</time></trkpt>
<trkpt lat="48.481507" lon="2.660369"><ele></ele><time>2019-1-17T3:7:2Z</time></trkpt>
<trkpt lat="48.481517" lon="2.660234"><ele></ele><time>2019-1-17T3:7:5Z</time></trkpt>
<trkpt lat="48.481421" lon="2.660011"><ele></ele><time>2019-1-17T3:7:8Z</time></trkpt>
<trkpt lat="48.481331" lon="2.659848"><ele></ele><time>2019-1-17T3:7:11Z</time></trkpt>
<trkpt lat="48.481297" lon="2.659694"><ele></ele><time>2019-1-17T3:7:14Z</time></trkpt>
<trkpt lat="48.481241" lon="2.659518"><ele></ele><time>2019-1-17T3:7:17Z</time></trkpt>
<trkpt lat="48.481167" lon="2.659323"><ele></ele><time>2019-1-17T3:7:20Z</time></trkpt>
<trkpt lat="48.481096" lon="2.659131"><ele></ele><time>2019-1-17T3:7:23Z</time></trkpt>
<trkpt lat="48.481074" lon="2.658993"><ele></ele><time>2019-1-17T3:7:26Z</time></trkpt>
<trkpt lat="48.481034" lon="2.658871"><ele></ele><time>2019-1-17T3:7:29Z</time></trkpt>
<trkpt lat="48.480988" lon="2.658701"><ele></ele><time>2019-1-17T3:7:32Z</time></trkpt>
<trkpt lat="48.480969" lon="2.658482"><ele></ele><time>2019-1-17T3:7:35Z</time></trkpt>
<trkpt lat="48.480877" lon="2.65834"><ele></ele><time>2019-1-17T3:7:38Z</time></trkpt>
<trkpt lat="48.48082" lon="2.658212"><ele></ele><time>2019-1-17T3:7:41Z</time></trkpt>
<trkpt lat="48.480779" lon="2.657969"><ele></ele><time>2019-1-17T3:7:44Z</time></trkpt>
<trkpt lat="48.480762" lon="2.657832"><ele></ele><time>2019-1-17T3:7:47Z</time></trkpt>
<trkpt lat="48.480721" lon="2.657597"><ele></ele><time>2019-1-17T3:7:50Z</time></trkpt>
<trkpt lat="48.480706" lon="2.657432"><ele></ele><time>2019-1-17T3:7:53Z</time></trkpt>
<trkpt lat="48.480678" lon="2.657286"><ele></ele><time>2019-1-17T3:7:56Z</time></trkpt>
<trkpt lat="48.480614" lon="2.657154"><ele></ele><time>2019-1-17T3:7:59Z</time></trkpt>
<trkpt lat="48.480508" lon="2.656976"><ele></ele><time>2019-1-17T3:8:2Z</time></trkpt>
<trkpt lat="48.480431" lon="2.656818"><ele></ele><time>2019-1-17T3:8:5Z</time></trkpt>
<trkpt lat="48.480407" lon="2.656664"><ele></ele><time>2019-1-17T3:8:8Z</time></trkpt>
<trkpt lat="48.480341" lon="2.656491"><ele></ele><time>2019-1-17T3:8:11Z</time></trkpt>
<trkpt lat="48.480278" lon="2.656389"><ele></ele><time>2019-1-17T3:8:14Z</time></trkpt>
<trkpt lat="48.480162" lon="2.656274"><ele></ele><time>2019-1-17T3:8:17Z</time></trkpt>
<trkpt lat="48.480086" lon="2.656191"><ele></ele><time>2019-1-17T3:8:20Z</time></trkpt>
<trkpt lat="48.480057" lon="2.655963"><ele></ele><time>2019-1-17T3:8:23Z</time></trkpt>
<trkpt lat="48.479993" lon="2.655833"><ele></ele><time>2019-1-17T3:8:26Z</time></trkpt>
<trkpt lat="48.47993" lon="2.655692"><ele></ele><time>2019-1-17T3:8:29Z</time></trkpt>
<trkpt lat="48.479947" lon="2.65555"><ele></ele><time>2019-1-17T3:8:32Z</time></trkpt>
<trkpt lat="48.479836" lon="2.655372"><ele></ele><time>2019-1-17T3:8:35Z</time></trkpt>
<trkpt lat="48.479831" lon="2.655207"><ele></ele><time>2019-1-17T3:8:38Z</time></trkpt>
<trkpt lat="48.479773" lon="2.655081"><ele></ele><time>2019-1-17T3:8:41Z</time></trkpt>
<trkpt lat="48.479707" lon="2.654976"><ele></ele><time>2019-1-17T3:8:44Z</time></trkpt>
<trkpt lat="48.479641" lon="2.65485"><ele></ele><time>2019-1-17T3:8:47Z</time></trkpt>
<trkpt lat="48.479626" lon="2.654654"><ele></ele><time>2019-1-17T3:8:50Z</time></trkpt>
<trkpt lat="48.479589" lon="2.65451"><ele></ele><time>2019-1-17T3:8:53Z</time></trkpt>
<trkpt lat="48.479537" lon="2.654345"><ele></ele><time>2019-1-17T3:8:56Z</time></trkpt>
<trkpt lat="48.479565" lon="2.654193"><ele></ele><time>2019-1-17T3:8:59Z</time></trkpt>
<trkpt lat="48.479524" lon="2.654003"><ele></ele><time>2019-1-17T3:9:2Z</time></trkpt>
<trkpt lat="48.479417" lon="2.653867"><ele></ele><time>2019-1-17T3:9:5Z</time></trkpt>
<trkpt lat="48.479322" lon="2.653717"><ele></ele><time>2019-1-17T3:9:8Z</time></trkpt>
<trkpt lat="48.479225" lon="2.653567"><ele></ele><time>2019-1-17T3:9:11Z</time></trkpt>
<trkpt lat="48.479242" lon="2.653342"><ele></ele><time>2019-1-17T3:9:14Z</time></trkpt>
<trkpt lat="48.479158" lon="2.653267"><ele></ele><time>2019-1-17T3:9:17Z</time></trkpt>
<trkpt lat="48.479142" lon="2.653036"><ele></ele><time>2019-1-17T3:9:20Z</time></trkpt>
<trkpt lat="48.479138" lon="2.652862"><ele></ele><time>2019-1-17T3:9:23Z</time></trkpt>
<trkpt lat="48.479066" lon="2.652728"><ele></ele><time>2019-1-17T3:9:26Z</time></trkpt>
<trkpt lat="48.47902" lon="2.6526"><ele></ele><time>2019-1-17T3:9:29Z</time></trkpt>
<trkpt lat="48.478951" lon="2.652486"><ele></ele><time>2019-1-17T3:9:32Z</time></trkpt>
<trkpt lat="48.478858" lon="2.652442"><ele></ele><time>2019-1-17T3:9:35Z</time></trkpt>
<trkpt lat="48.478795" lon="2.652342"><ele></ele><time>2019-1-17T3:9:38Z</time></trkpt>
<trkpt lat="48.478709" lon="2.652208"><ele></ele><time>2019-1-17T3:9:41Z</time></trkpt>
<trkpt lat="48.478638" lon="2.652116"><ele></ele><time>2019-1-17T3:9:44Z</time></trkpt>
<trkpt lat="48.478537" lon="2.652081"><ele></ele><time>2019-1-17T3:9:47Z</time></trkpt>
<trkpt lat="48.478416" lon="2.652066"><ele></ele><time>2019-1-17T3:9:50Z</time></trkpt>
<trkpt lat="48.478309" lon="2.652077"><ele></ele><time>2019-1-17T3:9:53Z</time></trkpt>
<trkpt lat="48.478184" lon="2.652024"><ele></ele><time>2019-1-17T3:9:56Z</time></trkpt>
<trkpt lat="48.478125" lon="2.651891"><ele></ele><time>2019-1-17T3:9:59Z</time></trkpt>
<trkpt lat="48.477993" lon="2.651865"><ele></ele><time>2019-1-17T3:10:2Z</time></trkpt>
<trkpt lat="48.47784" lon="2.651884"><ele></ele><time>2019-1-17T3:10:5Z</time></trkpt>
<trkpt lat="48.477683" lon="2.651898"><ele></ele><time>2019-1-17T3:10:8Z</time></trkpt>
<trkpt lat="48.477593" lon="2.6519"><ele></ele><time>2019-1-17T3:10:11Z</time></trkpt>
<trkpt lat="48.477431" lon="2.651889"><ele></ele><time>2019-1-17T3:10:14Z</time></trkpt>
<trkpt lat="48.477291" lon="2.651854"><ele></ele><time>2019-1-17T3:10:17Z</time></trkpt>
<trkpt lat="48.477139" lon="2.651834"><ele></ele><time>2019-1-17T3:10:20Z</time></trkpt>
<trkpt lat="48.477021" lon="2.65187"><ele></ele><time>2019-1-17T3:10:23Z</time></trkpt>
<trkpt lat="48.476847" lon="2.651855"><ele></ele><time>2019-1-17T3:10:26Z</time></trkpt>
<trkpt lat="48.476756" lon="2.651835"><ele></ele><time>2019-1-17T3:10:29Z</time></trkpt>
<trkpt lat="48.476648" lon="2.651815"><ele></ele><time>2019-1-17T3:10:32Z</time></trkpt>
<trkpt lat="48.476551" lon="2.651789"><ele></ele><time>2019-1-17T3:10:35Z</time></trkpt>
<trkpt lat="48.476425" lon="2.651732"><ele></ele><time>2019-1-17T3:10:38Z</time></trkpt>
<trkpt lat="48.476309" lon="2.651672"><ele></ele><time>2019-1-17T3:10:41Z</time></trkpt>
<trkpt lat="48.476186" lon="2.651654"><ele></ele><time>2019-1-17T3:10:44Z</time></trkpt>
<trkpt lat="48.476084" lon="2.651662"><ele></ele><time>2019-1-17T3:10:47Z</time></trkpt>
<trkpt lat="48.475959" lon="2.651598"><ele></ele><time>2019-1-17T3:10:50Z</time></trkpt>
<trkpt lat="48.475863" lon="2.651613"><ele></ele><time>2019-1-17T3:10:53Z</time></trkpt>
<trkpt lat="48.475745" lon="2.651624"><ele></ele><time>2019-1-17T3:10:56Z</time></trkpt>
<trkpt lat="48.475631" lon="2.651566"><ele></ele><time>2019-1-17T3:10:59Z</time></trkpt>
<trkpt lat="48.475506" lon="2.651589"><ele></ele><time>2019-1-17T3:11:2Z</time></trkpt>
<trkpt lat="48.475428" lon="2.651408"><ele></ele><time>2019-1-17T3:11:5Z</time></trkpt>
<trkpt lat="48.475332" lon="2.651326"><ele></ele><time>2019-1-17T3:11:8Z</time></trkpt>
<trkpt lat="48.475181" lon="2.651334"><ele></ele><time>2019-1-17T3:11:11Z</time></trkpt>
<trkpt lat="48.475064" lon="2.65131"><ele></ele><time>2019-1-17T3:11:14Z</time></trkpt>
<trkpt lat="48.47495" lon="2.651346"><ele></ele><time>2019-1-17T3:11:17Z</time></trkpt>
<trkpt lat="48.474861" lon="2.651314"><ele></ele><time>2019-1-17T3:11:20Z</time></trkpt>
<trkpt lat="48.474726" lon="2.651328"><ele></ele><time>2019-1-17T3:11:23Z</time></trkpt>
<trkpt lat="48.474618" lon="2.651315"><ele></ele><time>2019-1-17T3:11:26Z</time></trkpt>
<trkpt lat="48.474482" lon="2.651327"><ele></ele><time>2019-1-17T3:11:29Z</time></trkpt>
<trkpt lat="48.474391" lon="2.651315"><ele></ele><time>2019-1-17T3:11:32Z</time></trkpt>
<trkpt lat="48.474296" lon="2.65131"><ele></ele><time>2019-1-17T3:11:35Z</time></trkpt>
<trkpt lat="48.474137" lon="2.651346"><ele></ele><time>2019-1-17T3:11:38Z</time></trkpt>
<trkpt lat="48.473994" lon="2.651304"><ele></ele><time>2019-1-17T3:11:41Z</time></trkpt>
<trkpt lat="48.473843" lon="2.651283"><ele></ele><time>2019-1-17T3:11:44Z</time></trkpt>
<trkpt lat="48.473751" lon="2.651283"><ele></ele><time>2019-1-17T3:11:47Z</time></trkpt>
<trkpt lat="48.473564" lon="2.651304"><ele></ele><time>2019-1-17T3:11:50Z</time></trkpt>
<trkpt lat="48.473361" lon="2.651331"><ele></ele><time>2019-1-17T3:11:53Z</time></trkpt>
<trkpt lat="48.473247" lon="2.651249"><ele></ele><time>2019-1-17T3:11:56Z</time></trkpt>
<trkpt lat="48.473156" lon="2.651236"><ele></ele><time>2019-1-17T3:11:59Z</time></trkpt>
<trkpt lat="48.473047" lon="2.651185"><ele></ele><time>2019-1-17T3:12:2Z</time></trkpt>
<trkpt lat="48.472916" lon="2.651171"><ele></ele><time>2019-1-17T3:12:5Z</time></trkpt>
<trkpt lat="48.472778" lon="2.651137"><ele></ele><time>2019-1-17T3:12:8Z</time></trkpt>
<trkpt lat="48.472685" lon="2.651104"><ele></ele><time>2019-1-17T3:12:11Z</time></trkpt>
<trkpt lat="48.47254" lon="2.651079"><ele></ele><time>2019-1-17T3:12:14Z</time></trkpt>
<trkpt lat="48.472421" lon="2.651054"><ele></ele><time>2019-1-17T3:12:17Z</time></trkpt>
<trkpt lat="48.472321" lon="2.651034"><ele></ele><time>2019-1-17T3:12:20Z</time></trkpt>
<trkpt lat="48.472191" lon="2.650997"><ele></ele><time>2019-1-17T3:12:23Z</time></trkpt>
<trkpt lat="48.472095" lon="2.65098"><ele></ele><time>2019-1-17T3:12:26Z</time></trkpt>
<trkpt lat="48.471991" lon="2.650951"><ele></ele><time>2019-1-17T3:12:29Z</time></trkpt>
<trkpt lat="48.471842" lon="2.650965"><ele></ele><time>2019-1-17T3:12:32Z</time></trkpt>
<trkpt lat="48.47171" lon="2.650955"><ele></ele><time>2019-1-17T3:12:35Z</time></trkpt>
<trkpt lat="48.471527" lon="2.650934"><ele></ele><time>2019-1-17T3:12:38Z</time></trkpt>
<trkpt lat="48.47141" lon="2.650926"><ele></ele><time>2019-1-17T3:12:41Z</time></trkpt>
<trkpt lat="48.471333" lon="2.650844"><ele></ele><time>2019-1-17T3:12:44Z</time></trkpt>
<trkpt lat="48.47123" lon="2.650794"><ele></ele><time>2019-1-17T3:12:47Z</time></trkpt>
<trkpt lat="48.471132" lon="2.650747"><ele></ele><time>2019-1-17T3:12:50Z</time></trkpt>
<trkpt lat="48.471033" lon="2.650812"><ele></ele><time>2019-1-17T3:12:53Z</time></trkpt>
<trkpt lat="48.47094" lon="2.650745"><ele></ele><time>2019-1-17T3:12:56Z</time></trkpt>
<trkpt lat="48.470859" lon="2.65068"><ele></ele><time>2019-1-17T3:12:59Z</time></trkpt>
<trkpt lat="48.470736" lon="2.650614"><ele></ele><time>2019-1-17T3:13:2Z</time></trkpt>
<trkpt lat="48.470604" lon="2.650651"><ele></ele><time>2019-1-17T3:13:5Z</time></trkpt>
<trkpt lat="48.470462" lon="2.650624"><ele></ele><time>2019-1-17T3:13:8Z</time></trkpt>
<trkpt lat="48.470348" lon="2.650629"><ele></ele><time>2019-1-17T3:13:11Z</time></trkpt>
<trkpt lat="48.470178" lon="2.65064"><ele></ele><time>2019-1-17T3:13:14Z</time></trkpt>
<trkpt lat="48.470078" lon="2.65063"><ele></ele><time>2019-1-17T3:13:17Z</time></trkpt>
<trkpt lat="48.469942" lon="2.65064"><ele></ele><time>2019-1-17T3:13:20Z</time></trkpt>
<trkpt lat="48.469798" lon="2.650627"><ele></ele><time>2019-1-17T3:13:23Z</time></trkpt>
<trkpt lat="48.469669" lon="2.650633"><ele></ele><time>2019-1-17T3:13:26Z</time></trkpt>
<trkpt lat="48.469545" lon="2.650619"><ele></ele><time>2019-1-17T3:13:29Z</time></trkpt>
<trkpt lat="48.469426" lon="2.650567"><ele></ele><time>2019-1-17T3:13:32Z</time></trkpt>
<trkpt lat="48.469322" lon="2.650588"><ele></ele><time>2019-1-17T3:13:35Z</time></trkpt>
<trkpt lat="48.469209" lon="2.6506"><ele></ele><time>2019-1-17T3:13:38Z</time></trkpt>
<trkpt lat="48.46908" lon="2.650525"><ele></ele><time>2019-1-17T3:13:41Z</time></trkpt>
<trkpt lat="48.46898" lon="2.650504"><ele></ele><time>2019-1-17T3:13:44Z</time></trkpt>
<trkpt lat="48.468866" lon="2.650498"><ele></ele><time>2019-1-17T3:13:47Z</time></trkpt>
<trkpt lat="48.468748" lon="2.650498"><ele></ele><time>2019-1-17T3:13:50Z</time></trkpt>
<trkpt lat="48.468612" lon="2.65046"><ele></ele><time>2019-1-17T3:13:53Z</time></trkpt>
<trkpt lat="48.468472" lon="2.650458"><ele></ele><time>2019-1-17T3:13:56Z</time></trkpt>
<trkpt lat="48.468375" lon="2.65041"><ele></ele><time>2019-1-17T3:13:59Z</time></trkpt>
<trkpt lat="48.468279" lon="2.650421"><ele></ele><time>2019-1-17T3:14:2Z</time></trkpt>
<trkpt lat="48.46812" lon="2.650427"><ele></ele><time>2019-1-17T3:14:5Z</time></trkpt>
<trkpt lat="48.468011" lon="2.650467"><ele></ele><time>2019-1-17T3:14:8Z</time></trkpt>
<trkpt lat="48.467954" lon="2.650575"><ele></ele><time>2019-1-17T3:14:11Z</time></trkpt>
<trkpt lat="48.467866" lon="2.650688"><ele></ele><time>2019-1-17T3:14:14Z</time></trkpt>
<trkpt lat="48.4678" lon="2.650826"><ele></ele><time>2019-1-17T3:14:17Z</time></trkpt>
<trkpt lat="48.467765" lon="2.650963"><ele></ele><time>2019-1-17T3:14:20Z</time></trkpt>
<trkpt lat="48.4677" lon="2.65115"><ele></ele><time>2019-1-17T3:14:23Z</time></trkpt>
<trkpt lat="48.467627" lon="2.651303"><ele></ele><time>2019-1-17T3:14:26Z</time></trkpt>
<trkpt lat="48.467511" lon="2.651421"><ele></ele><time>2019-1-17T3:14:29Z</time></trkpt>
<trkpt lat="48.467425" lon="2.651542"><ele></ele><time>2019-1-17T3:14:32Z</time></trkpt>
<trkpt lat="48.467357" lon="2.651658"><ele></ele><time>2019-1-17T3:14:35Z</time></trkpt>
<trkpt lat="48.467297" lon="2.651768"><ele></ele><time>2019-1-17T3:14:38Z</time></trkpt>
<trkpt lat="48.46726" lon="2.651914"><ele></ele><time>2019-1-17T3:14:41Z</time></trkpt>
<trkpt lat="48.467219" lon="2.652055"><ele></ele><time>2019-1-17T3:14:44Z</time></trkpt>
<trkpt lat="48.46714" lon="2.652231"><ele></ele><time>2019-1-17T3:14:47Z</time></trkpt>
<trkpt lat="48.467025" lon="2.652303"><ele></ele><time>2019-1-17T3:14:50Z</time></trkpt>
<trkpt lat="48.466877" lon="2.652408"><ele></ele><time>2019-1-17T3:14:53Z</time></trkpt>
<trkpt lat="48.466675" lon="2.652465"><ele></ele><time>2019-1-17T3:14:56Z</time></trkpt>
<trkpt lat="48.466543" lon="2.652509"><ele></ele><time>2019-1-17T3:14:59Z</time></trkpt>
<trkpt lat="48.466416" lon="2.652568"><ele></ele><time>2019-1-17T3:15:2Z</time></trkpt>
<trkpt lat="48.46626" lon="2.652605"><ele></ele><time>2019-1-17T3:15:5Z</time></trkpt>
<trkpt lat="48.466144" lon="2.652634"><ele></ele><time>2019-1-17T3:15:8Z</time></trkpt>
<trkpt lat="48.466045" lon="2.652729"><ele></ele><time>2019-1-17T3:15:11Z</time></trkpt>
<trkpt lat="48.465955" lon="2.652747"><ele></ele><time>2019-1-17T3:15:14Z</time></trkpt>
<trkpt lat="48.465832" lon="2.652701"><ele></ele><time>2019-1-17T3:15:17Z</time></trkpt>
<trkpt lat="48.465721" lon="2.652745"><ele></ele><time>2019-1-17T3:15:20Z</time></trkpt>
<trkpt lat="48.465628" lon="2.652691"><ele></ele><time>2019-1-17T3:15:23Z</time></trkpt>
<trkpt lat="48.465538" lon="2.652658"><ele></ele><time>2019-1-17T3:15:26Z</time></trkpt>
<trkpt lat="48.465437" lon="2.652567"><ele></ele><time>2019-1-17T3:15:29Z</time></trkpt>
<trkpt lat="48.465302" lon="2.652574"><ele></ele><time>2019-1-17T3:15:32Z</time></trkpt>
<trkpt lat="48.465192" lon="2.652553"><ele></ele><time>2019-1-17T3:15:35Z</time></trkpt>
<trkpt lat="48.465094" lon="2.652544"><ele></ele><time>2019-1-17T3:15:38Z</time></trkpt>
<trkpt lat="48.465001" lon="2.652513"><ele></ele><time>2019-1-17T3:15:41Z</time></trkpt>
<trkpt lat="48.464919" lon="2.652422"><ele></ele><time>2019-1-17T3:15:44Z</time></trkpt>
<trkpt lat="48.464781" lon="2.652383"><ele></ele><time>2019-1-17T3:15:47Z</time></trkpt>
<trkpt lat="48.464641" lon="2.652321"><ele></ele><time>2019-1-17T3:15:50Z</time></trkpt>
<trkpt lat="48.46453" lon="2.652264"><ele></ele><time>2019-1-17T3:15:53Z</time></trkpt>
<trkpt lat="48.464429" lon="2.652231"><ele></ele><time>2019-1-17T3:15:56Z</time></trkpt>
<trkpt lat="48.464319" lon="2.652181"><ele></ele><time>2019-1-17T3:15:59Z</time></trkpt>
<trkpt lat="48.464225" lon="2.652161"><ele></ele><time>2019-1-17T3:16:2Z</time></trkpt>
<trkpt lat="48.464092" lon="2.65215"><ele></ele><time>2019-1-17T3:16:5Z</time></trkpt>
<trkpt lat="48.463994" lon="2.652121"><ele></ele><time>2019-1-17T3:16:8Z</time></trkpt>
<trkpt lat="48.4639" lon="2.652118"><ele></ele><time>2019-1-17T3:16:11Z</time></trkpt>
<trkpt lat="48.463791" lon="2.652103"><ele></ele><time>2019-1-17T3:16:14Z</time></trkpt>
<trkpt lat="48.463712" lon="2.652171"><ele></ele><time>2019-1-17T3:16:17Z</time></trkpt>
<trkpt lat="48.463713" lon="2.652338"><ele></ele><time>2019-1-17T3:16:20Z</time></trkpt>
<trkpt lat="48.463634" lon="2.652431"><ele></ele><time>2019-1-17T3:16:23Z</time></trkpt>
<trkpt lat="48.463585" lon="2.652555"><ele></ele><time>2019-1-17T3:16:26Z</time></trkpt>
<trkpt lat="48.463507" lon="2.652671"><ele></ele><time>2019-1-17T3:16:29Z</time></trkpt>
<trkpt lat="48.463511" lon="2.652821"><ele></ele><time>2019-1-17T3:16:32Z</time></trkpt>
<trkpt lat="48.463497" lon="2.652969"><ele></ele><time>2019-1-17T3:16:35Z</time></trkpt>
<trkpt lat="48.463509" lon="2.653161"><ele></ele><time>2019-1-17T3:16:38Z</time></trkpt>
<trkpt lat="48.463542" lon="2.653327"><ele></ele><time>2019-1-17T3:16:41Z</time></trkpt>
<trkpt lat="48.463502" lon="2.653489"><ele></ele><time>2019-1-17T3:16:44Z</time></trkpt>
<trkpt lat="48.46345" lon="2.653639"><ele></ele><time>2019-1-17T3:16:47Z</time></trkpt>
<trkpt lat="48.463339" lon="2.653734"><ele></ele><time>2019-1-17T3:16:50Z</time></trkpt>
<trkpt lat="48.463308" lon="2.653871"><ele></ele><time>2019-1-17T3:16:53Z</time></trkpt>
<trkpt lat="48.463257" lon="2.654009"><ele></ele><time>2019-1-17T3:16:56Z</time></trkpt>
<trkpt lat="48.46316" lon="2.654088"><ele></ele><time>2019-1-17T3:16:59Z</time></trkpt>
<trkpt lat="48.463118" lon="2.654236"><ele></ele><time>2019-1-17T3:17:2Z</time></trkpt>
<trkpt lat="48.463074" lon="2.654385"><ele></ele><time>2019-1-17T3:17:5Z</time></trkpt>
<trkpt lat="48.462982" lon="2.654484"><ele></ele><time>2019-1-17T3:17:8Z</time></trkpt>
<trkpt lat="48.462916" lon="2.65459"><ele></ele><time>2019-1-17T3:17:11Z</time></trkpt>
<trkpt lat="48.462903" lon="2.654747"><ele></ele><time>2019-1-17T3:17:14Z</time></trkpt>
<trkpt lat="48.462908" lon="2.654888"><ele></ele><time>2019-1-17T3:17:17Z</time></trkpt>
<trkpt lat="48.462826" lon="2.655051"><ele></ele><time>2019-1-17T3:17:20Z</time></trkpt>
<trkpt lat="48.462748" lon="2.655188"><ele></ele><time>2019-1-17T3:17:23Z</time></trkpt>
<trkpt lat="48.46274" lon="2.655382"><ele></ele><time>2019-1-17T3:17:26Z</time></trkpt>
<trkpt lat="48.462702" lon="2.655557"><ele></ele><time>2019-1-17T3:17:29Z</time></trkpt>
<trkpt lat="48.462701" lon="2.655767"><ele></ele><time>2019-1-17T3:17:32Z</time></trkpt>
<trkpt lat="48.462649" lon="2.655966"><ele></ele><time>2019-1-17T3:17:35Z</time></trkpt>
<trkpt lat="48.462618" lon="2.656173"><ele></ele><time>2019-1-17T3:17:38Z</time></trkpt>
<trkpt lat="48.462643" lon="2.656308"><ele></ele><time>2019-1-17T3:17:41Z</time></trkpt>
<trkpt lat="48.462675" lon="2.656504"><ele></ele><time>2019-1-17T3:17:44Z</time></trkpt>
<trkpt lat="48.462655" lon="2.656661"><ele></ele><time>2019-1-17T3:17:47Z</time></trkpt>
<trkpt lat="48.462668" lon="2.65684"><ele></ele><time>2019-1-17T3:17:50Z</time></trkpt>
<trkpt lat="48.462677" lon="2.657064"><ele></ele><time>2019-1-17T3:17:53Z</time></trkpt>
<trkpt lat="48.462685" lon="2.657223"><ele></ele><time>2019-1-17T3:17:56Z</time></trkpt>
<trkpt lat="48.462637" lon="2.657419"><ele></ele><time>2019-1-17T3:17:59Z</time></trkpt>
<trkpt lat="48.46261" lon="2.657657"><ele></ele><time>2019-1-17T3:18:2Z</time></trkpt>
<trkpt lat="48.462651" lon="2.657783"><ele></ele><time>2019-1-17T3:18:5Z</time></trkpt>
<trkpt lat="48.462672" lon="2.657942"><ele></ele><time>2019-1-17T3:18:8Z</time></trkpt>
<trkpt lat="48.462662" lon="2.658148"><ele></ele><time>2019-1-17T3:18:11Z</time></trkpt>
<trkpt lat="48.462598" lon="2.658262"><ele></ele><time>2019-1-17T3:18:14Z</time></trkpt>
<trkpt lat="48.462509" lon="2.658331"><ele></ele><time>2019-1-17T3:18:17Z</time></trkpt>
<trkpt lat="48.462458" lon="2.658476"><ele></ele><time>2019-1-17T3:18:20Z</time></trkpt>
<trkpt lat="48.462433" lon="2.658629"><ele></ele><time>2019-1-17T3:18:23Z</time></trkpt>
<trkpt lat="48.462506" lon="2.658752"><ele></ele><time>2019-1-17T3:18:26Z</time></trkpt>
<trkpt lat="48.462468" lon="2.658931"><ele></ele><time>2019-1-17T3:18:29Z</time></trkpt>
<trkpt lat="48.462448" lon="2.659066"><ele></ele><time>2019-1-17T3:18:32Z</time></trkpt>
<trkpt lat="48.462423" lon="2.659223"><ele></ele><time>2019-1-17T3:18:35Z</time></trkpt>
<trkpt lat="48.462381" lon="2.659408"><ele></ele><time>2019-1-17T3:18:38Z</time></trkpt>
<trkpt lat="48.462365" lon="2.65956"><ele></ele><time>2019-1-17T3:18:41Z</time></trkpt>
<trkpt lat="48.462328" lon="2.659717"><ele></ele><time>2019-1-17T3:18:44Z</time></trkpt>
<trkpt lat="48.462401" lon="2.659891"><ele></ele><time>2019-1-17T3:18:47Z</time></trkpt>
<trkpt lat="48.462417" lon="2.660026"><ele></ele><time>2019-1-17T3:18:50Z</time></trkpt>
<trkpt lat="48.462419" lon="2.660209"><ele></ele><time>2019-1-17T3:18:53Z</time></trkpt>
<trkpt lat="48.462356" lon="2.660336"><ele></ele><time>2019-1-17T3:18:56Z</time></trkpt>
<trkpt lat="48.462272" lon="2.660262"><ele></ele><time>2019-1-17T3:18:59Z</time></trkpt>
<trkpt lat="48.462161" lon="2.660283"><ele></ele><time>2019-1-17T3:19:2Z</time></trkpt>
<trkpt lat="48.462065" lon="2.660297"><ele></ele><time>2019-1-17T3:19:5Z</time></trkpt>
<trkpt lat="48.461964" lon="2.660338"><ele></ele><time>2019-1-17T3:19:8Z</time></trkpt>
<trkpt lat="48.461827" lon="2.660383"><ele></ele><time>2019-1-17T3:19:11Z</time></trkpt>
<trkpt lat="48.461708" lon="2.660406"><ele></ele><time>2019-1-17T3:19:14Z</time></trkpt>
<trkpt lat="48.461608" lon="2.660447"><ele></ele><time>2019-1-17T3:19:17Z</time></trkpt>
<trkpt lat="48.461507" lon="2.660424"><ele></ele><time>2019-1-17T3:19:20Z</time></trkpt>
<trkpt lat="48.461414" lon="2.660377"><ele></ele><time>2019-1-17T3:19:23Z</time></trkpt>
<trkpt lat="48.461322" lon="2.660299"><ele></ele><time>2019-1-17T3:19:26Z</time></trkpt>
<trkpt lat="48.461207" lon="2.660319"><ele></ele><time>2019-1-17T3:19:29Z</time></trkpt>
<trkpt lat="48.461114" lon="2.660339"><ele></ele><time>2019-1-17T3:19:32Z</time></trkpt>
<trkpt lat="48.461021" lon="2.660384"><ele></ele><time>2019-1-17T3:19:35Z</time></trkpt>
<trkpt lat="48.460926" lon="2.660399"><ele></ele><time>2019-1-17T3:19:38Z</time></trkpt>
<trkpt lat="48.460842" lon="2.660475"><ele></ele><time>2019-1-17T3:19:41Z</time></trkpt>
<trkpt lat="48.460758" lon="2.66062"><ele></ele><time>2019-1-17T3:19:44Z</time></trkpt>
<trkpt lat="48.460694" lon="2.660764"><ele></ele><time>2019-1-17T3:19:47Z</time></trkpt>
<trkpt lat="48.460598" lon="2.660845"><ele></ele><time>2019-1-17T3:19:50Z</time></trkpt>
<trkpt lat="48.46051" lon="2.661049"><ele></ele><time>2019-1-17T3:19:53Z</time></trkpt>
<trkpt lat="48.460436" lon="2.661183"><ele></ele><time>2019-1-17T3:19:56Z</time></trkpt>
<trkpt lat="48.460408" lon="2.661332"><ele></ele><time>2019-1-17T3:19:59Z</time></trkpt>
<trkpt lat="48.460278" lon="2.661259"><ele></ele><time>2019-1-17T3:20:2Z</time></trkpt>
<trkpt lat="48.460173" lon="2.661277"><ele></ele><time>2019-1-17T3:20:5Z</time></trkpt>
<trkpt lat="48.460058" lon="2.661336"><ele></ele><time>2019-1-17T3:20:8Z</time></trkpt>
<trkpt lat="48.459973" lon="2.661268"><ele></ele><time>2019-1-17T3:20:11Z</time></trkpt>
<trkpt lat="48.459847" lon="2.661344"><ele></ele><time>2019-1-17T3:20:14Z</time></trkpt>
<trkpt lat="48.45974" lon="2.661491"><ele></ele><time>2019-1-17T3:20:17Z</time></trkpt>
<trkpt lat="48.459656" lon="2.661643"><ele></ele><time>2019-1-17T3:20:20Z</time></trkpt>
<trkpt lat="48.459586" lon="2.661777"><ele></ele><time>2019-1-17T3:20:23Z</time></trkpt>
<trkpt lat="48.459574" lon="2.661965"><ele></ele><time>2019-1-17T3:20:26Z</time></trkpt>
<trkpt lat="48.459622" lon="2.662121"><ele></ele><time>2019-1-17T3:20:29Z</time></trkpt>
<trkpt lat="48.459598" lon="2.662272"><ele></ele><time>2019-1-17T3:20:32Z</time></trkpt>
<trkpt lat="48.459629" lon="2.66246"><ele></ele><time>2019-1-17T3:20:35Z</time></trkpt>
<trkpt lat="48.459563" lon="2.662613"><ele></ele><time>2019-1-17T3:20:38Z</time></trkpt>
<trkpt lat="48.459562" lon="2.66276"><ele></ele><time>2019-1-17T3:20:41Z</time></trkpt>
<trkpt lat="48.45956" lon="2.662921"><ele></ele><time>2019-1-17T3:20:44Z</time></trkpt>
<trkpt lat="48.459503" lon="2.663086"><ele></ele><time>2019-1-17T3:20:47Z</time></trkpt>
<trkpt lat="48.459435" lon="2.663224"><ele></ele><time>2019-1-17T3:20:50Z</time></trkpt>
<trkpt lat="48.459382" lon="2.663396"><ele></ele><time>2019-1-17T3:20:53Z</time></trkpt>
<trkpt lat="48.45929" lon="2.66346"><ele></ele><time>2019-1-17T3:20:56Z</time></trkpt>
<trkpt lat="48.459307" lon="2.663594"><ele></ele><time>2019-1-17T3:20:59Z</time></trkpt>
<trkpt lat="48.459228" lon="2.663747"><ele></ele><time>2019-1-17T3:21:2Z</time></trkpt>
<trkpt lat="48.459218" lon="2.663923"><ele></ele><time>2019-1-17T3:21:5Z</time></trkpt>
<trkpt lat="48.459151" lon="2.664033"><ele></ele><time>2019-1-17T3:21:8Z</time></trkpt>
<trkpt lat="48.459109" lon="2.66424"><ele></ele><time>2019-1-17T3:21:11Z</time></trkpt>
<trkpt lat="48.45903" lon="2.664376"><ele></ele><time>2019-1-17T3:21:14Z</time></trkpt>
<trkpt lat="48.45899" lon="2.664512"><ele></ele><time>2019-1-17T3:21:17Z</time></trkpt>
<trkpt lat="48.458961" lon="2.66466"><ele></ele><time>2019-1-17T3:21:20Z</time></trkpt>
<trkpt lat="48.458881" lon="2.66479"><ele></ele><time>2019-1-17T3:21:23Z</time></trkpt>
<trkpt lat="48.45886" lon="2.664953"><ele></ele><time>2019-1-17T3:21:26Z</time></trkpt>
<trkpt lat="48.458778" lon="2.665102"><ele></ele><time>2019-1-17T3:21:29Z</time></trkpt>
<trkpt lat="48.458732" lon="2.665237"><ele></ele><time>2019-1-17T3:21:32Z</time></trkpt>
<trkpt lat="48.458803" lon="2.665445"><ele></ele><time>2019-1-17T3:21:35Z</time></trkpt>
<trkpt lat="48.458812" lon="2.665604"><ele></ele><time>2019-1-17T3:21:38Z</time></trkpt>
<trkpt lat="48.458748" lon="2.66573"><ele></ele><time>2019-1-17T3:21:41Z</time></trkpt>
<trkpt lat="48.45869" lon="2.665867"><ele></ele><time>2019-1-17T3:21:44Z</time></trkpt>
<trkpt lat="48.458599" lon="2.66595"><ele></ele><time>2019-1-17T3:21:47Z</time></trkpt>
<trkpt lat="48.45853" lon="2.666114"><ele></ele><time>2019-1-17T3:21:50Z</time></trkpt>
<trkpt lat="48.458463" lon="2.666248"><ele></ele><time>2019-1-17T3:21:53Z</time></trkpt>
<trkpt lat="48.458454" lon="2.666385"><ele></ele><time>2019-1-17T3:21:56Z</time></trkpt>
<trkpt lat="48.458404" lon="2.666554"><ele></ele><time>2019-1-17T3:21:59Z</time></trkpt>
<trkpt lat="48.458351" lon="2.66667"><ele></ele><time>2019-1-17T3:22:2Z</time></trkpt>
<trkpt lat="48.458281" lon="2.666855"><ele></ele><time>2019-1-17T3:22:5Z</time></trkpt>
<trkpt lat="48.458277" lon="2.667029"><ele></ele><time>2019-1-17T3:22:8Z</time></trkpt>
<trkpt lat="48.458192" lon="2.667142"><ele></ele><time>2019-1-17T3:22:11Z</time></trkpt>
<trkpt lat="48.458128" lon="2.667286"><ele></ele><time>2019-1-17T3:22:14Z</time></trkpt>
<trkpt lat="48.458197" lon="2.667387"><ele></ele><time>2019-1-17T3:22:17Z</time></trkpt>
<trkpt lat="48.458166" lon="2.667546"><ele></ele><time>2019-1-17T3:22:20Z</time></trkpt>
<trkpt lat="48.458111" lon="2.667725"><ele></ele><time>2019-1-17T3:22:23Z</time></trkpt>
<trkpt lat="48.458023" lon="2.667844"><ele></ele><time>2019-1-17T3:22:26Z</time></trkpt>
<trkpt lat="48.457956" lon="2.66794"><ele></ele><time>2019-1-17T3:22:29Z</time></trkpt>
<trkpt lat="48.457864" lon="2.668092"><ele></ele><time>2019-1-17T3:22:32Z</time></trkpt>
<trkpt lat="48.457765" lon="2.668233"><ele></ele><time>2019-1-17T3:22:35Z</time></trkpt>
<trkpt lat="48.457704" lon="2.668345"><ele></ele><time>2019-1-17T3:22:38Z</time></trkpt>
<trkpt lat="48.457594" lon="2.668551"><ele></ele><time>2019-1-17T3:22:41Z</time></trkpt>
<trkpt lat="48.457499" lon="2.668658"><ele></ele><time>2019-1-17T3:22:44Z</time></trkpt>
<trkpt lat="48.457511" lon="2.668801"><ele></ele><time>2019-1-17T3:22:47Z</time></trkpt>
<trkpt lat="48.457441" lon="2.66892"><ele></ele><time>2019-1-17T3:22:50Z</time></trkpt>
<trkpt lat="48.457449" lon="2.669076"><ele></ele><time>2019-1-17T3:22:53Z</time></trkpt>
<trkpt lat="48.457335" lon="2.6693"><ele></ele><time>2019-1-17T3:22:56Z</time></trkpt>
<trkpt lat="48.457332" lon="2.669475"><ele></ele><time>2019-1-17T3:22:59Z</time></trkpt>
<trkpt lat="48.457283" lon="2.669605"><ele></ele><time>2019-1-17T3:23:2Z</time></trkpt>
<trkpt lat="48.457192" lon="2.669671"><ele></ele><time>2019-1-17T3:23:5Z</time></trkpt>
<trkpt lat="48.457102" lon="2.669674"><ele></ele><time>2019-1-17T3:23:8Z</time></trkpt>
<trkpt lat="48.457003" lon="2.669605"><ele></ele><time>2019-1-17T3:23:11Z</time></trkpt>
<trkpt lat="48.456891" lon="2.669556"><ele></ele><time>2019-1-17T3:23:14Z</time></trkpt>
<trkpt lat="48.456849" lon="2.669435"><ele></ele><time>2019-1-17T3:23:17Z</time></trkpt>
<trkpt lat="48.456745" lon="2.669338"><ele></ele><time>2019-1-17T3:23:20Z</time></trkpt>
<trkpt lat="48.456716" lon="2.669171"><ele></ele><time>2019-1-17T3:23:23Z</time></trkpt>
<trkpt lat="48.456637" lon="2.669027"><ele></ele><time>2019-1-17T3:23:26Z</time></trkpt>
<trkpt lat="48.456602" lon="2.668794"><ele></ele><time>2019-1-17T3:23:29Z</time></trkpt>
<trkpt lat="48.456538" lon="2.668666"><ele></ele><time>2019-1-17T3:23:32Z</time></trkpt>
<trkpt lat="48.456536" lon="2.668491"><ele></ele><time>2019-1-17T3:23:35Z</time></trkpt>
<trkpt lat="48.456501" lon="2.668363"><ele></ele><time>2019-1-17T3:23:38Z</time></trkpt>
<trkpt lat="48.456487" lon="2.668227"><ele></ele><time>2019-1-17T3:23:41Z</time></trkpt>
<trkpt lat="48.456413" lon="2.668137"><ele></ele><time>2019-1-17T3:23:44Z</time></trkpt>
<trkpt lat="48.456361" lon="2.667976"><ele></ele><time>2019-1-17T3:23:47Z</time></trkpt>
<trkpt lat="48.456283" lon="2.667871"><ele></ele><time>2019-1-17T3:23:50Z</time></trkpt>
<trkpt lat="48.456232" lon="2.667702"><ele></ele><time>2019-1-17T3:23:53Z</time></trkpt>
<trkpt lat="48.456148" lon="2.667654"><ele></ele><time>2019-1-17T3:23:56Z</time></trkpt>
<trkpt lat="48.456122" lon="2.667518"><ele></ele><time>2019-1-17T3:23:59Z</time></trkpt>
<trkpt lat="48.456044" lon="2.667426"><ele></ele><time>2019-1-17T3:24:2Z</time></trkpt>
<trkpt lat="48.455972" lon="2.667316"><ele></ele><time>2019-1-17T3:24:5Z</time></trkpt>
<trkpt lat="48.455915" lon="2.667184"><ele></ele><time>2019-1-17T3:24:8Z</time></trkpt>
<trkpt lat="48.455866" lon="2.667056"><ele></ele><time>2019-1-17T3:24:11Z</time></trkpt>
<trkpt lat="48.455818" lon="2.666905"><ele></ele><time>2019-1-17T3:24:14Z</time></trkpt>
<trkpt lat="48.45574" lon="2.666816"><ele></ele><time>2019-1-17T3:24:17Z</time></trkpt>
<trkpt lat="48.45572" lon="2.66667"><ele></ele><time>2019-1-17T3:24:20Z</time></trkpt>
<trkpt lat="48.455632" lon="2.666607"><ele></ele><time>2019-1-17T3:24:23Z</time></trkpt>
<trkpt lat="48.455526" lon="2.666573"><ele></ele><time>2019-1-17T3:24:26Z</time></trkpt>
<trkpt lat="48.455419" lon="2.666502"><ele></ele><time>2019-1-17T3:24:29Z</time></trkpt>
<trkpt lat="48.455322" lon="2.666424"><ele></ele><time>2019-1-17T3:24:32Z</time></trkpt>
<trkpt lat="48.455233" lon="2.666397"><ele></ele><time>2019-1-17T3:24:35Z</time></trkpt>
<trkpt lat="48.45514" lon="2.666323"><ele></ele><time>2019-1-17T3:24:38Z</time></trkpt>
<trkpt lat="48.455039" lon="2.666244"><ele></ele><time>2019-1-17T3:24:41Z</time></trkpt>
<trkpt lat="48.455017" lon="2.666065"><ele></ele><time>2019-1-17T3:24:44Z</time></trkpt>
<trkpt lat="48.45498" lon="2.665894"><ele></ele><time>2019-1-17T3:24:47Z</time></trkpt>
<trkpt lat="48.455016" lon="2.665745"><ele></ele><time>2019-1-17T3:24:50Z</time></trkpt>
<trkpt lat="48.454987" lon="2.665592"><ele></ele><time>2019-1-17T3:24:53Z</time></trkpt>
<trkpt lat="48.454941" lon="2.665472"><ele></ele><time>2019-1-17T3:24:56Z</time></trkpt>
<trkpt lat="48.454854" lon="2.665419"><ele></ele><time>2019-1-17T3:24:59Z</time></trkpt>
<trkpt lat="48.454872" lon="2.665271"><ele></ele><time>2019-1-17T3:25:2Z</time></trkpt>
<trkpt lat="48.454811" lon="2.665163"><ele></ele><time>2019-1-17T3:25:5Z</time></trkpt>
<trkpt lat="48.454771" lon="2.665029"><ele></ele><time>2019-1-17T3:25:8Z</time></trkpt>
<trkpt lat="48.454711" lon="2.664887"><ele></ele><time>2019-1-17T3:25:11Z</time></trkpt>
<trkpt lat="48.454647" lon="2.664773"><ele></ele><time>2019-1-17T3:25:14Z</time></trkpt>
<trkpt lat="48.454584" lon="2.664663"><ele></ele><time>2019-1-17T3:25:17Z</time></trkpt>
<trkpt lat="48.454486" lon="2.664578"><ele></ele><time>2019-1-17T3:25:20Z</time></trkpt>
<trkpt lat="48.454421" lon="2.664454"><ele></ele><time>2019-1-17T3:25:23Z</time></trkpt>
<trkpt lat="48.454358" lon="2.664327"><ele></ele><time>2019-1-17T3:25:26Z</time></trkpt>
<trkpt lat="48.454318" lon="2.664198"><ele></ele><time>2019-1-17T3:25:29Z</time></trkpt>
<trkpt lat="48.454309" lon="2.664057"><ele></ele><time>2019-1-17T3:25:32Z</time></trkpt>
<trkpt lat="48.454282" lon="2.663924"><ele></ele><time>2019-1-17T3:25:35Z</time></trkpt>
<trkpt lat="48.454282" lon="2.66376"><ele></ele><time>2019-1-17T3:25:38Z</time></trkpt>
<trkpt lat="48.454203" lon="2.663657"><ele></ele><time>2019-1-17T3:25:41Z</time></trkpt>
<trkpt lat="48.45416" lon="2.663525"><ele></ele><time>2019-1-17T3:25:44Z</time></trkpt>
<trkpt lat="48.4541" lon="2.663383"><ele></ele><time>2019-1-17T3:25:47Z</time></trkpt>
<trkpt lat="48.454117" lon="2.663223"><ele></ele><time>2019-1-17T3:25:50Z</time></trkpt>
<trkpt lat="48.454096" lon="2.663075"><ele></ele><time>2019-1-17T3:25:53Z</time></trkpt>
<trkpt lat="48.454049" lon="2.662932"><ele></ele><time>2019-1-17T3:25:56Z</time></trkpt>
<trkpt lat="48.454" lon="2.66281"><ele></ele><time>2019-1-17T3:25:59Z</time></trkpt>
<trkpt lat="48.453943" lon="2.662693"><ele></ele><time>2019-1-17T3:26:2Z</time></trkpt>
<trkpt lat="48.453883" lon="2.662587"><ele></ele><time>2019-1-17T3:26:5Z</time></trkpt>
<trkpt lat="48.453812" lon="2.662464"><ele></ele><time>2019-1-17T3:26:8Z</time></trkpt>
<trkpt lat="48.453746" lon="2.662357"><ele></ele><time>2019-1-17T3:26:11Z</time></trkpt>
<trkpt lat="48.453641" lon="2.662329"><ele></ele><time>2019-1-17T3:26:14Z</time></trkpt>
<trkpt lat="48.453633" lon="2.662172"><ele></ele><time>2019-1-17T3:26:17Z</time></trkpt>
<trkpt lat="48.453643" lon="2.662018"><ele></ele><time>2019-1-17T3:26:20Z</time></trkpt>
<trkpt lat="48.453744" lon="2.661984"><ele></ele><time>2019-1-17T3:26:23Z</time></trkpt>
<trkpt lat="48.453857" lon="2.662045"><ele></ele><time>2019-1-17T3:26:26Z</time></trkpt>
<trkpt lat="48.453939" lon="2.662134"><ele></ele><time>2019-1-17T3:26:29Z</time></trkpt>
<trkpt lat="48.453982" lon="2.662345"><ele></ele><time>2019-1-17T3:26:32Z</time></trkpt>
<trkpt lat="48.454016" lon="2.662537"><ele></ele><time>2019-1-17T3:26:35Z</time></trkpt>
<trkpt lat="48.454046" lon="2.66267"><ele></ele><time>2019-1-17T3:26:38Z</time></trkpt>
<trkpt lat="48.454102" lon="2.662834"><ele></ele><time>2019-1-17T3:26:41Z</time></trkpt>
<trkpt lat="48.454204" lon="2.663004"><ele></ele><time>2019-1-17T3:26:44Z</time></trkpt>
<trkpt lat="48.454247" lon="2.663145"><ele></ele><time>2019-1-17T3:26:47Z</time></trkpt>
<trkpt lat="48.454324" lon="2.663332"><ele></ele><time>2019-1-17T3:26:50Z</time></trkpt>
<trkpt lat="48.454407" lon="2.663545"><ele></ele><time>2019-1-17T3:26:53Z</time></trkpt>
<trkpt lat="48.454509" lon="2.663666"><ele></ele><time>2019-1-17T3:26:56Z</time></trkpt>
<trkpt lat="48.454592" lon="2.663762"><ele></ele><time>2019-1-17T3:26:59Z</time></trkpt>
<trkpt lat="48.454703" lon="2.663857"><ele></ele><time>2019-1-17T3:27:2Z</time></trkpt>
<trkpt lat="48.454748" lon="2.663976"><ele></ele><time>2019-1-17T3:27:5Z</time></trkpt>
<trkpt lat="48.454817" lon="2.664123"><ele></ele><time>2019-1-17T3:27:8Z</time></trkpt>
<trkpt lat="48.454854" lon="2.664312"><ele></ele><time>2019-1-17T3:27:11Z</time></trkpt>
<trkpt lat="48.454921" lon="2.664447"><ele></ele><time>2019-1-17T3:27:14Z</time></trkpt>
<trkpt lat="48.45499" lon="2.664644"><ele></ele><time>2019-1-17T3:27:17Z</time></trkpt>
<trkpt lat="48.455086" lon="2.66478"><ele></ele><time>2019-1-17T3:27:20Z</time></trkpt>
<trkpt lat="48.455163" lon="2.664897"><ele></ele><time>2019-1-17T3:27:23Z</time></trkpt>
<trkpt lat="48.455231" lon="2.66505"><ele></ele><time>2019-1-17T3:27:26Z</time></trkpt>
<trkpt lat="48.455303" lon="2.665135"><ele></ele><time>2019-1-17T3:27:29Z</time></trkpt>
<trkpt lat="48.455417" lon="2.66533"><ele></ele><time>2019-1-17T3:27:32Z</time></trkpt>
<trkpt lat="48.455491" lon="2.665426"><ele></ele><time>2019-1-17T3:27:35Z</time></trkpt>
<trkpt lat="48.455577" lon="2.66559"><ele></ele><time>2019-1-17T3:27:38Z</time></trkpt>
<trkpt lat="48.455701" lon="2.66566"><ele></ele><time>2019-1-17T3:27:41Z</time></trkpt>
<trkpt lat="48.455853" lon="2.665797"><ele></ele><time>2019-1-17T3:27:44Z</time></trkpt>
<trkpt lat="48.455908" lon="2.665915"><ele></ele><time>2019-1-17T3:27:47Z</time></trkpt>
<trkpt lat="48.45597" lon="2.666016"><ele></ele><time>2019-1-17T3:27:50Z</time></trkpt>
<trkpt lat="48.45612" lon="2.666081"><ele></ele><time>2019-1-17T3:27:53Z</time></trkpt>
<trkpt lat="48.456215" lon="2.666171"><ele></ele><time>2019-1-17T3:27:56Z</time></trkpt>
<trkpt lat="48.456292" lon="2.666311"><ele></ele><time>2019-1-17T3:27:59Z</time></trkpt>
<trkpt lat="48.456373" lon="2.666402"><ele></ele><time>2019-1-17T3:28:2Z</time></trkpt>
<trkpt lat="48.456436" lon="2.666537"><ele></ele><time>2019-1-17T3:28:5Z</time></trkpt>
<trkpt lat="48.456515" lon="2.666702"><ele></ele><time>2019-1-17T3:28:8Z</time></trkpt>
<trkpt lat="48.456644" lon="2.666791"><ele></ele><time>2019-1-17T3:28:11Z</time></trkpt>
<trkpt lat="48.4567" lon="2.666898"><ele></ele><time>2019-1-17T3:28:14Z</time></trkpt>
<trkpt lat="48.45677" lon="2.666993"><ele></ele><time>2019-1-17T3:28:17Z</time></trkpt>
<trkpt lat="48.456898" lon="2.667124"><ele></ele><time>2019-1-17T3:28:20Z</time></trkpt>
<trkpt lat="48.457025" lon="2.667202"><ele></ele><time>2019-1-17T3:28:23Z</time></trkpt>
<trkpt lat="48.457127" lon="2.667161"><ele></ele><time>2019-1-17T3:28:26Z</time></trkpt>
<trkpt lat="48.457212" lon="2.667059"><ele></ele><time>2019-1-17T3:28:29Z</time></trkpt>
<trkpt lat="48.457264" lon="2.666928"><ele></ele><time>2019-1-17T3:28:32Z</time></trkpt>
<trkpt lat="48.45733" lon="2.666747"><ele></ele><time>2019-1-17T3:28:35Z</time></trkpt>
<trkpt lat="48.457373" lon="2.666605"><ele></ele><time>2019-1-17T3:28:38Z</time></trkpt>
<trkpt lat="48.457385" lon="2.666413"><ele></ele><time>2019-1-17T3:28:41Z</time></trkpt>
<trkpt lat="48.457395" lon="2.666275"><ele></ele><time>2019-1-17T3:28:44Z</time></trkpt>
<trkpt lat="48.45739" lon="2.666126"><ele></ele><time>2019-1-17T3:28:47Z</time></trkpt>
<trkpt lat="48.457417" lon="2.665967"><ele></ele><time>2019-1-17T3:28:50Z</time></trkpt>
<trkpt lat="48.457413" lon="2.665771"><ele></ele><time>2019-1-17T3:28:53Z</time></trkpt>
<trkpt lat="48.457339" lon="2.665614"><ele></ele><time>2019-1-17T3:28:56Z</time></trkpt>
<trkpt lat="48.457268" lon="2.665497"><ele></ele><time>2019-1-17T3:28:59Z</time></trkpt>
<trkpt lat="48.457223" lon="2.665376"><ele></ele><time>2019-1-17T3:29:2Z</time></trkpt>
<trkpt lat="48.457199" lon="2.665234"><ele></ele><time>2019-1-17T3:29:5Z</time></trkpt>
<trkpt lat="48.457158" lon="2.665061"><ele></ele><time>2019-1-17T3:29:8Z</time></trkpt>
<trkpt lat="48.45713" lon="2.664904"><ele></ele><time>2019-1-17T3:29:11Z</time></trkpt>
<trkpt lat="48.45713" lon="2.664755"><ele></ele><time>2019-1-17T3:29:14Z</time></trkpt>
<trkpt lat="48.457065" lon="2.664632"><ele></ele><time>2019-1-17T3:29:17Z</time></trkpt>
<trkpt lat="48.457009" lon="2.66444"><ele></ele><time>2019-1-17T3:29:20Z</time></trkpt>
<trkpt lat="48.457024" lon="2.664294"><ele></ele><time>2019-1-17T3:29:23Z</time></trkpt>
<trkpt lat="48.457002" lon="2.664153"><ele></ele><time>2019-1-17T3:29:26Z</time></trkpt>
<trkpt lat="48.456969" lon="2.664008"><ele></ele><time>2019-1-17T3:29:29Z</time></trkpt>
<trkpt lat="48.456924" lon="2.663829"><ele></ele><time>2019-1-17T3:29:32Z</time></trkpt>
<trkpt lat="48.456898" lon="2.663689"><ele></ele><time>2019-1-17T3:29:35Z</time></trkpt>
<trkpt lat="48.456861" lon="2.663532"><ele></ele><time>2019-1-17T3:29:38Z</time></trkpt>
<trkpt lat="48.456828" lon="2.663403"><ele></ele><time>2019-1-17T3:29:41Z</time></trkpt>
<trkpt lat="48.456766" lon="2.663234"><ele></ele><time>2019-1-17T3:29:44Z</time></trkpt>
<trkpt lat="48.456709" lon="2.663111"><ele></ele><time>2019-1-17T3:29:47Z</time></trkpt>
<trkpt lat="48.456677" lon="2.66298"><ele></ele><time>2019-1-17T3:29:50Z</time></trkpt>
<trkpt lat="48.456617" lon="2.662859"><ele></ele><time>2019-1-17T3:29:53Z</time></trkpt>
<trkpt lat="48.456566" lon="2.662743"><ele></ele><time>2019-1-17T3:29:56Z</time></trkpt>
<trkpt lat="48.456524" lon="2.662611"><ele></ele><time>2019-1-17T3:29:59Z</time></trkpt>
<trkpt lat="48.456471" lon="2.662479"><ele></ele><time>2019-1-17T3:30:2Z</time></trkpt>
<trkpt lat="48.456431" lon="2.662325"><ele></ele><time>2019-1-17T3:30:5Z</time></trkpt>
<trkpt lat="48.456389" lon="2.662188"><ele></ele><time>2019-1-17T3:30:8Z</time></trkpt>
<trkpt lat="48.456362" lon="2.662001"><ele></ele><time>2019-1-17T3:30:11Z</time></trkpt>
<trkpt lat="48.456311" lon="2.661826"><ele></ele><time>2019-1-17T3:30:14Z</time></trkpt>
<trkpt lat="48.456265" lon="2.661664"><ele></ele><time>2019-1-17T3:30:17Z</time></trkpt>
<trkpt lat="48.456238" lon="2.661524"><ele></ele><time>2019-1-17T3:30:20Z</time></trkpt>
<trkpt lat="48.456223" lon="2.661386"><ele></ele><time>2019-1-17T3:30:23Z</time></trkpt>
<trkpt lat="48.456151" lon="2.661247"><ele></ele><time>2019-1-17T3:30:26Z</time></trkpt>
<trkpt lat="48.456087" lon="2.66109"><ele></ele><time>2019-1-17T3:30:29Z</time></trkpt>
<trkpt lat="48.456071" lon="2.660939"><ele></ele><time>2019-1-17T3:30:32Z</time></trkpt>
<trkpt lat="48.456104" lon="2.660785"><ele></ele><time>2019-1-17T3:30:35Z</time></trkpt>
<trkpt lat="48.456112" lon="2.660614"><ele></ele><time>2019-1-17T3:30:38Z</time></trkpt>
<trkpt lat="48.456151" lon="2.660477"><ele></ele><time>2019-1-17T3:30:41Z</time></trkpt>
<trkpt lat="48.456182" lon="2.660313"><ele></ele><time>2019-1-17T3:30:44Z</time></trkpt>
<trkpt lat="48.456194" lon="2.660157"><ele></ele><time>2019-1-17T3:30:47Z</time></trkpt>
<trkpt lat="48.45624" lon="2.660008"><ele></ele><time>2019-1-17T3:30:50Z</time></trkpt>
<trkpt lat="48.456282" lon="2.65981"><ele></ele><time>2019-1-17T3:30:53Z</time></trkpt>
<trkpt lat="48.456344" lon="2.659634"><ele></ele><time>2019-1-17T3:30:56Z</time></trkpt>
<trkpt lat="48.456382" lon="2.659454"><ele></ele><time>2019-1-17T3:30:59Z</time></trkpt>
<trkpt lat="48.456412" lon="2.659306"><ele></ele><time>2019-1-17T3:31:2Z</time></trkpt>
<trkpt lat="48.456441" lon="2.659152"><ele></ele><time>2019-1-17T3:31:5Z</time></trkpt>
<trkpt lat="48.45646" lon="2.659019"><ele></ele><time>2019-1-17T3:31:8Z</time></trkpt>
<trkpt lat="48.456517" lon="2.658893"><ele></ele><time>2019-1-17T3:31:11Z</time></trkpt>
<trkpt lat="48.456546" lon="2.658697"><ele></ele><time>2019-1-17T3:31:14Z</time></trkpt>
<trkpt lat="48.456596" lon="2.658544"><ele></ele><time>2019-1-17T3:31:17Z</time></trkpt>
<trkpt lat="48.45665" lon="2.658381"><ele></ele><time>2019-1-17T3:31:20Z</time></trkpt>
<trkpt lat="48.456724" lon="2.658188"><ele></ele><time>2019-1-17T3:31:23Z</time></trkpt>
<trkpt lat="48.456803" lon="2.65808"><ele></ele><time>2019-1-17T3:31:26Z</time></trkpt>
<trkpt lat="48.456887" lon="2.657962"><ele></ele><time>2019-1-17T3:31:29Z</time></trkpt>
<trkpt lat="48.456991" lon="2.657916"><ele></ele><time>2019-1-17T3:31:32Z</time></trkpt>
<trkpt lat="48.457049" lon="2.65781"><ele></ele><time>2019-1-17T3:31:35Z</time></trkpt>
<trkpt lat="48.45715" lon="2.657726"><ele></ele><time>2019-1-17T3:31:38Z</time></trkpt>
<trkpt lat="48.457243" lon="2.65766"><ele></ele><time>2019-1-17T3:31:41Z</time></trkpt>
<trkpt lat="48.457399" lon="2.65762"><ele></ele><time>2019-1-17T3:31:44Z</time></trkpt>
<trkpt lat="48.457509" lon="2.657603"><ele></ele><time>2019-1-17T3:31:47Z</time></trkpt>
<trkpt lat="48.457625" lon="2.65755"><ele></ele><time>2019-1-17T3:31:50Z</time></trkpt>
<trkpt lat="48.457708" lon="2.657468"><ele></ele><time>2019-1-17T3:31:53Z</time></trkpt>
<trkpt lat="48.457817" lon="2.657367"><ele></ele><time>2019-1-17T3:31:56Z</time></trkpt>
<trkpt lat="48.457918" lon="2.657371"><ele></ele><time>2019-1-17T3:31:59Z</time></trkpt>
<trkpt lat="48.458059" lon="2.657364"><ele></ele><time>2019-1-17T3:32:2Z</time></trkpt>
<trkpt lat="48.458246" lon="2.657373"><ele></ele><time>2019-1-17T3:32:5Z</time></trkpt>
<trkpt lat="48.458326" lon="2.657287"><ele></ele><time>2019-1-17T3:32:8Z</time></trkpt>
<trkpt lat="48.458429" lon="2.657202"><ele></ele><time>2019-1-17T3:32:11Z</time></trkpt>
<trkpt lat="48.458482" lon="2.65709"><ele></ele><time>2019-1-17T3:32:14Z</time></trkpt>
<trkpt lat="48.458597" lon="2.657044"><ele></ele><time>2019-1-17T3:32:17Z</time></trkpt>
<trkpt lat="48.458682" lon="2.656942"><ele></ele><time>2019-1-17T3:32:20Z</time></trkpt>
<trkpt lat="48.458758" lon="2.65683"><ele></ele><time>2019-1-17T3:32:23Z</time></trkpt>
<trkpt lat="48.458784" lon="2.656683"><ele></ele><time>2019-1-17T3:32:26Z</time></trkpt>
<trkpt lat="48.458822" lon="2.656539"><ele></ele><time>2019-1-17T3:32:29Z</time></trkpt>
<trkpt lat="48.458887" lon="2.656431"><ele></ele><time>2019-1-17T3:32:32Z</time></trkpt>
<trkpt lat="48.458965" lon="2.656337"><ele></ele><time>2019-1-17T3:32:35Z</time></trkpt>
<trkpt lat="48.459026" lon="2.65623"><ele></ele><time>2019-1-17T3:32:38Z</time></trkpt>
<trkpt lat="48.459125" lon="2.65607"><ele></ele><time>2019-1-17T3:32:41Z</time></trkpt>
<trkpt lat="48.459208" lon="2.655917"><ele></ele><time>2019-1-17T3:32:44Z</time></trkpt>
<trkpt lat="48.45927" lon="2.655764"><ele></ele><time>2019-1-17T3:32:47Z</time></trkpt>
<trkpt lat="48.459294" lon="2.65562"><ele></ele><time>2019-1-17T3:32:50Z</time></trkpt>
<trkpt lat="48.459364" lon="2.655479"><ele></ele><time>2019-1-17T3:32:53Z</time></trkpt>
<trkpt lat="48.459394" lon="2.655344"><ele></ele><time>2019-1-17T3:32:56Z</time></trkpt>
<trkpt lat="48.459436" lon="2.655195"><ele></ele><time>2019-1-17T3:32:59Z</time></trkpt>
<trkpt lat="48.459483" lon="2.655032"><ele></ele><time>2019-1-17T3:33:2Z</time></trkpt>
<trkpt lat="48.45953" lon="2.654876"><ele></ele><time>2019-1-17T3:33:5Z</time></trkpt>
<trkpt lat="48.459569" lon="2.654724"><ele></ele><time>2019-1-17T3:33:8Z</time></trkpt>
<trkpt lat="48.459594" lon="2.654551"><ele></ele><time>2019-1-17T3:33:11Z</time></trkpt>
<trkpt lat="48.459632" lon="2.654352"><ele></ele><time>2019-1-17T3:33:14Z</time></trkpt>
<trkpt lat="48.459657" lon="2.65416"><ele></ele><time>2019-1-17T3:33:17Z</time></trkpt>
<trkpt lat="48.45968" lon="2.653998"><ele></ele><time>2019-1-17T3:33:20Z</time></trkpt>
<trkpt lat="48.459639" lon="2.653824"><ele></ele><time>2019-1-17T3:33:23Z</time></trkpt>
<trkpt lat="48.459552" lon="2.653681"><ele></ele><time>2019-1-17T3:33:26Z</time></trkpt>
<trkpt lat="48.459485" lon="2.653554"><ele></ele><time>2019-1-17T3:33:29Z</time></trkpt>
<trkpt lat="48.459358" lon="2.653485"><ele></ele><time>2019-1-17T3:33:32Z</time></trkpt>
<trkpt lat="48.459247" lon="2.653426"><ele></ele><time>2019-1-17T3:33:35Z</time></trkpt>
<trkpt lat="48.459116" lon="2.65338"><ele></ele><time>2019-1-17T3:33:38Z</time></trkpt>
<trkpt lat="48.45903" lon="2.653431"><ele></ele><time>2019-1-17T3:33:41Z</time></trkpt>
<trkpt lat="48.458912" lon="2.653441"><ele></ele><time>2019-1-17T3:33:44Z</time></trkpt>
<trkpt lat="48.458784" lon="2.653468"><ele></ele><time>2019-1-17T3:33:47Z</time></trkpt>
<trkpt lat="48.458695" lon="2.653429"><ele></ele><time>2019-1-17T3:33:50Z</time></trkpt>
<trkpt lat="48.458568" lon="2.653366"><ele></ele><time>2019-1-17T3:33:53Z</time></trkpt>
<trkpt lat="48.458477" lon="2.653343"><ele></ele><time>2019-1-17T3:33:56Z</time></trkpt>
<trkpt lat="48.458377" lon="2.653323"><ele></ele><time>2019-1-17T3:33:59Z</time></trkpt>
<trkpt lat="48.458279" lon="2.653291"><ele></ele><time>2019-1-17T3:34:2Z</time></trkpt>
<trkpt lat="48.458152" lon="2.653325"><ele></ele><time>2019-1-17T3:34:5Z</time></trkpt>
<trkpt lat="48.457993" lon="2.653281"><ele></ele><time>2019-1-17T3:34:8Z</time></trkpt>
<trkpt lat="48.457872" lon="2.6532"><ele></ele><time>2019-1-17T3:34:11Z</time></trkpt>
<trkpt lat="48.457849" lon="2.653052"><ele></ele><time>2019-1-17T3:34:14Z</time></trkpt>
<trkpt lat="48.457804" lon="2.652904"><ele></ele><time>2019-1-17T3:34:17Z</time></trkpt>
<trkpt lat="48.457695" lon="2.652792"><ele></ele><time>2019-1-17T3:34:20Z</time></trkpt>
<trkpt lat="48.457677" lon="2.652631"><ele></ele><time>2019-1-17T3:34:23Z</time></trkpt>
<trkpt lat="48.457664" lon="2.652468"><ele></ele><time>2019-1-17T3:34:26Z</time></trkpt>
<trkpt lat="48.457664" lon="2.652316"><ele></ele><time>2019-1-17T3:34:29Z</time></trkpt>
<trkpt lat="48.457693" lon="2.652178"><ele></ele><time>2019-1-17T3:34:32Z</time></trkpt>
<trkpt lat="48.457757" lon="2.652008"><ele></ele><time>2019-1-17T3:34:35Z</time></trkpt>
<trkpt lat="48.457843" lon="2.651897"><ele></ele><time>2019-1-17T3:34:38Z</time></trkpt>
<trkpt lat="48.457909" lon="2.651797"><ele></ele><time>2019-1-17T3:34:41Z</time></trkpt>
<trkpt lat="48.458033" lon="2.651681"><ele></ele><time>2019-1-17T3:34:44Z</time></trkpt>
<trkpt lat="48.458136" lon="2.6516"><ele></ele><time>2019-1-17T3:34:47Z</time></trkpt>
<trkpt lat="48.458233" lon="2.651543"><ele></ele><time>2019-1-17T3:34:50Z</time></trkpt>
<trkpt lat="48.458323" lon="2.651494"><ele></ele><time>2019-1-17T3:34:53Z</time></trkpt>
<trkpt lat="48.458424" lon="2.651415"><ele></ele><time>2019-1-17T3:34:56Z</time></trkpt>
<trkpt lat="48.458557" lon="2.651282"><ele></ele><time>2019-1-17T3:34:59Z</time></trkpt>
<trkpt lat="48.458599" lon="2.651085"><ele></ele><time>2019-1-17T3:35:2Z</time></trkpt>
<trkpt lat="48.45864" lon="2.650902"><ele></ele><time>2019-1-17T3:35:5Z</time></trkpt>
<trkpt lat="48.458647" lon="2.650724"><ele></ele><time>2019-1-17T3:35:8Z</time></trkpt>
<trkpt lat="48.458593" lon="2.650518"><ele></ele><time>2019-1-17T3:35:11Z</time></trkpt>
<trkpt lat="48.458548" lon="2.650327"><ele></ele><time>2019-1-17T3:35:14Z</time></trkpt>
<trkpt lat="48.458518" lon="2.650142"><ele></ele><time>2019-1-17T3:35:17Z</time></trkpt>
<trkpt lat="48.458452" lon="2.650025"><ele></ele><time>2019-1-17T3:35:20Z</time></trkpt>
<trkpt lat="48.458396" lon="2.649864"><ele></ele><time>2019-1-17T3:35:23Z</time></trkpt>
<trkpt lat="48.458342" lon="2.649751"><ele></ele><time>2019-1-17T3:35:26Z</time></trkpt>
<trkpt lat="48.458271" lon="2.649618"><ele></ele><time>2019-1-17T3:35:29Z</time></trkpt>
<trkpt lat="48.45822" lon="2.649445"><ele></ele><time>2019-1-17T3:35:32Z</time></trkpt>
<trkpt lat="48.458147" lon="2.64927"><ele></ele><time>2019-1-17T3:35:35Z</time></trkpt>
<trkpt lat="48.458131" lon="2.64909"><ele></ele><time>2019-1-17T3:35:38Z</time></trkpt>
<trkpt lat="48.458124" lon="2.648947"><ele></ele><time>2019-1-17T3:35:41Z</time></trkpt>
<trkpt lat="48.458114" lon="2.648769"><ele></ele><time>2019-1-17T3:35:44Z</time></trkpt>
<trkpt lat="48.458218" lon="2.648583"><ele></ele><time>2019-1-17T3:35:47Z</time></trkpt>
<trkpt lat="48.458323" lon="2.648572"><ele></ele><time>2019-1-17T3:35:50Z</time></trkpt>
<trkpt lat="48.458438" lon="2.648501"><ele></ele><time>2019-1-17T3:35:53Z</time></trkpt>
<trkpt lat="48.458552" lon="2.648417"><ele></ele><time>2019-1-17T3:35:56Z</time></trkpt>
<trkpt lat="48.458681" lon="2.648292"><ele></ele><time>2019-1-17T3:35:59Z</time></trkpt>
<trkpt lat="48.458785" lon="2.648177"><ele></ele><time>2019-1-17T3:36:2Z</time></trkpt>
<trkpt lat="48.458879" lon="2.648129"><ele></ele><time>2019-1-17T3:36:5Z</time></trkpt>
<trkpt lat="48.459016" lon="2.648065"><ele></ele><time>2019-1-17T3:36:8Z</time></trkpt>
<trkpt lat="48.459142" lon="2.64807"><ele></ele><time>2019-1-17T3:36:11Z</time></trkpt>
<trkpt lat="48.459268" lon="2.648037"><ele></ele><time>2019-1-17T3:36:14Z</time></trkpt>
<trkpt lat="48.459336" lon="2.647904"><ele></ele><time>2019-1-17T3:36:17Z</time></trkpt>
<trkpt lat="48.459407" lon="2.647802"><ele></ele><time>2019-1-17T3:36:20Z</time></trkpt>
<trkpt lat="48.459421" lon="2.647643"><ele></ele><time>2019-1-17T3:36:23Z</time></trkpt>
<trkpt lat="48.45946" lon="2.647489"><ele></ele><time>2019-1-17T3:36:26Z</time></trkpt>
<trkpt lat="48.459511" lon="2.647303"><ele></ele><time>2019-1-17T3:36:29Z</time></trkpt>
<trkpt lat="48.459511" lon="2.64715"><ele></ele><time>2019-1-17T3:36:32Z</time></trkpt>
<trkpt lat="48.459491" lon="2.646991"><ele></ele><time>2019-1-17T3:36:35Z</time></trkpt>
<trkpt lat="48.459511" lon="2.646831"><ele></ele><time>2019-1-17T3:36:38Z</time></trkpt>
<trkpt lat="48.45949" lon="2.646666"><ele></ele><time>2019-1-17T3:36:41Z</time></trkpt>
<trkpt lat="48.459476" lon="2.646512"><ele></ele><time>2019-1-17T3:36:44Z</time></trkpt>
<trkpt lat="48.4595" lon="2.646349"><ele></ele><time>2019-1-17T3:36:47Z</time></trkpt>
<trkpt lat="48.459469" lon="2.646197"><ele></ele><time>2019-1-17T3:36:50Z</time></trkpt>
<trkpt lat="48.459462" lon="2.646032"><ele></ele><time>2019-1-17T3:36:53Z</time></trkpt>
<trkpt lat="48.45942" lon="2.645875"><ele></ele><time>2019-1-17T3:36:56Z</time></trkpt>
<trkpt lat="48.459364" lon="2.645761"><ele></ele><time>2019-1-17T3:36:59Z</time></trkpt>
<trkpt lat="48.459294" lon="2.645652"><ele></ele><time>2019-1-17T3:37:2Z</time></trkpt>
<trkpt lat="48.459234" lon="2.645534"><ele></ele><time>2019-1-17T3:37:5Z</time></trkpt>
<trkpt lat="48.459173" lon="2.64536"><ele></ele><time>2019-1-17T3:37:8Z</time></trkpt>
<trkpt lat="48.459137" lon="2.645192"><ele></ele><time>2019-1-17T3:37:11Z</time></trkpt>
<trkpt lat="48.459119" lon="2.645021"><ele></ele><time>2019-1-17T3:37:14Z</time></trkpt>
<trkpt lat="48.45907" lon="2.644814"><ele></ele><time>2019-1-17T3:37:17Z</time></trkpt>
<trkpt lat="48.459055" lon="2.644613"><ele></ele><time>2019-1-17T3:37:20Z</time></trkpt>
<trkpt lat="48.45904" lon="2.644414"><ele></ele><time>2019-1-17T3:37:23Z</time></trkpt>
<trkpt lat="48.459051" lon="2.644225"><ele></ele><time>2019-1-17T3:37:26Z</time></trkpt>
<trkpt lat="48.458992" lon="2.644045"><ele></ele><time>2019-1-17T3:37:29Z</time></trkpt>
<trkpt lat="48.459009" lon="2.643883"><ele></ele><time>2019-1-17T3:37:32Z</time></trkpt>
<trkpt lat="48.459049" lon="2.64366"><ele></ele><time>2019-1-17T3:37:35Z</time></trkpt>
<trkpt lat="48.45911" lon="2.64348"><ele></ele><time>2019-1-17T3:37:38Z</time></trkpt>
<trkpt lat="48.459134" lon="2.643332"><ele></ele><time>2019-1-17T3:37:41Z</time></trkpt>
<trkpt lat="48.459186" lon="2.643191"><ele></ele><time>2019-1-17T3:37:44Z</time></trkpt>
<trkpt lat="48.459268" lon="2.643033"><ele></ele><time>2019-1-17T3:37:47Z</time></trkpt>
<trkpt lat="48.459313" lon="2.642905"><ele></ele><time>2019-1-17T3:37:50Z</time></trkpt>
<trkpt lat="48.459385" lon="2.64274"><ele></ele><time>2019-1-17T3:37:53Z</time></trkpt>
<trkpt lat="48.459445" lon="2.64258"><ele></ele><time>2019-1-17T3:37:56Z</time></trkpt>
<trkpt lat="48.459453" lon="2.642366"><ele></ele><time>2019-1-17T3:37:59Z</time></trkpt>
<trkpt lat="48.459494" lon="2.642119"><ele></ele><time>2019-1-17T3:38:2Z</time></trkpt>
<trkpt lat="48.459483" lon="2.641879"><ele></ele><time>2019-1-17T3:38:5Z</time></trkpt>
<trkpt lat="48.45947" lon="2.641669"><ele></ele><time>2019-1-17T3:38:8Z</time></trkpt>
<trkpt lat="48.459505" lon="2.641463"><ele></ele><time>2019-1-17T3:38:11Z</time></trkpt>
<trkpt lat="48.459502" lon="2.641295"><ele></ele><time>2019-1-17T3:38:14Z</time></trkpt>
<trkpt lat="48.459437" lon="2.641169"><ele></ele><time>2019-1-17T3:38:17Z</time></trkpt>
<trkpt lat="48.459337" lon="2.641173"><ele></ele><time>2019-1-17T3:38:20Z</time></trkpt>
<trkpt lat="48.459224" lon="2.641154"><ele></ele><time>2019-1-17T3:38:23Z</time></trkpt>
<trkpt lat="48.45911" lon="2.641168"><ele></ele><time>2019-1-17T3:38:26Z</time></trkpt>
<trkpt lat="48.459016" lon="2.641167"><ele></ele><time>2019-1-17T3:38:29Z</time></trkpt>
<trkpt lat="48.458889" lon="2.641147"><ele></ele><time>2019-1-17T3:38:32Z</time></trkpt>
<trkpt lat="48.458796" lon="2.641153"><ele></ele><time>2019-1-17T3:38:35Z</time></trkpt>
<trkpt lat="48.458687" lon="2.641143"><ele></ele><time>2019-1-17T3:38:38Z</time></trkpt>
<trkpt lat="48.458579" lon="2.641142"><ele></ele><time>2019-1-17T3:38:41Z</time></trkpt>
<trkpt lat="48.458487" lon="2.641108"><ele></ele><time>2019-1-17T3:38:44Z</time></trkpt>
<trkpt lat="48.458377" lon="2.641121"><ele></ele><time>2019-1-17T3:38:47Z</time></trkpt>
<trkpt lat="48.458284" lon="2.641107"><ele></ele><time>2019-1-17T3:38:50Z</time></trkpt>
<trkpt lat="48.458175" lon="2.641118"><ele></ele><time>2019-1-17T3:38:53Z</time></trkpt>
<trkpt lat="48.458073" lon="2.641064"><ele></ele><time>2019-1-17T3:38:56Z</time></trkpt>
<trkpt lat="48.457974" lon="2.640976"><ele></ele><time>2019-1-17T3:38:59Z</time></trkpt>
<trkpt lat="48.457915" lon="2.64086"><ele></ele><time>2019-1-17T3:39:2Z</time></trkpt>
<trkpt lat="48.457862" lon="2.640708"><ele></ele><time>2019-1-17T3:39:5Z</time></trkpt>
<trkpt lat="48.457821" lon="2.640557"><ele></ele><time>2019-1-17T3:39:8Z</time></trkpt>
<trkpt lat="48.457746" lon="2.640435"><ele></ele><time>2019-1-17T3:39:11Z</time></trkpt>
<trkpt lat="48.457678" lon="2.64031"><ele></ele><time>2019-1-17T3:39:14Z</time></trkpt>
<trkpt lat="48.45763" lon="2.640195"><ele></ele><time>2019-1-17T3:39:17Z</time></trkpt>
<trkpt lat="48.457592" lon="2.640047"><ele></ele><time>2019-1-17T3:39:20Z</time></trkpt>
<trkpt lat="48.457548" lon="2.639869"><ele></ele><time>2019-1-17T3:39:23Z</time></trkpt>
<trkpt lat="48.457555" lon="2.6397"><ele></ele><time>2019-1-17T3:39:26Z</time></trkpt>
<trkpt lat="48.457572" lon="2.639529"><ele></ele><time>2019-1-17T3:39:29Z</time></trkpt>
<trkpt lat="48.457576" lon="2.63936"><ele></ele><time>2019-1-17T3:39:32Z</time></trkpt>
<trkpt lat="48.4576" lon="2.639162"><ele></ele><time>2019-1-17T3:39:35Z</time></trkpt>
<trkpt lat="48.457585" lon="2.639012"><ele></ele><time>2019-1-17T3:39:38Z</time></trkpt>
<trkpt lat="48.457609" lon="2.638879"><ele></ele><time>2019-1-17T3:39:41Z</time></trkpt>
<trkpt lat="48.457641" lon="2.638692"><ele></ele><time>2019-1-17T3:39:44Z</time></trkpt>
<trkpt lat="48.457646" lon="2.638541"><ele></ele><time>2019-1-17T3:39:47Z</time></trkpt>
<trkpt lat="48.457562" lon="2.638441"><ele></ele><time>2019-1-17T3:39:50Z</time></trkpt>
<trkpt lat="48.457532" lon="2.638291"><ele></ele><time>2019-1-17T3:39:53Z</time></trkpt>
<trkpt lat="48.457428" lon="2.638232"><ele></ele><time>2019-1-17T3:39:56Z</time></trkpt>
<trkpt lat="48.457313" lon="2.638232"><ele></ele><time>2019-1-17T3:39:59Z</time></trkpt>
<trkpt lat="48.457232" lon="2.638338"><ele></ele><time>2019-1-17T3:40:2Z</time></trkpt>
<trkpt lat="48.457148" lon="2.638489"><ele></ele><time>2019-1-17T3:40:5Z</time></trkpt>
<trkpt lat="48.457107" lon="2.638731"><ele></ele><time>2019-1-17T3:40:8Z</time></trkpt>
<trkpt lat="48.457022" lon="2.638855"><ele></ele><time>2019-1-17T3:40:11Z</time></trkpt>
<trkpt lat="48.457006" lon="2.639037"><ele></ele><time>2019-1-17T3:40:14Z</time></trkpt>
<trkpt lat="48.456931" lon="2.639158"><ele></ele><time>2019-1-17T3:40:17Z</time></trkpt>
<trkpt lat="48.456823" lon="2.639213"><ele></ele><time>2019-1-17T3:40:20Z</time></trkpt>
<trkpt lat="48.456732" lon="2.639194"><ele></ele><time>2019-1-17T3:40:23Z</time></trkpt>
<trkpt lat="48.456627" lon="2.63923"><ele></ele><time>2019-1-17T3:40:26Z</time></trkpt>
<trkpt lat="48.456476" lon="2.63923"><ele></ele><time>2019-1-17T3:40:29Z</time></trkpt>
<trkpt lat="48.456368" lon="2.639108"><ele></ele><time>2019-1-17T3:40:32Z</time></trkpt>
<trkpt lat="48.456285" lon="2.63899"><ele></ele><time>2019-1-17T3:40:35Z</time></trkpt>
<trkpt lat="48.456227" lon="2.63879"><ele></ele><time>2019-1-17T3:40:38Z</time></trkpt>
<trkpt lat="48.456128" lon="2.638709"><ele></ele><time>2019-1-17T3:40:41Z</time></trkpt>
<trkpt lat="48.456034" lon="2.638684"><ele></ele><time>2019-1-17T3:40:44Z</time></trkpt>
<trkpt lat="48.45591" lon="2.638704"><ele></ele><time>2019-1-17T3:40:47Z</time></trkpt>
<trkpt lat="48.455797" lon="2.638707"><ele></ele><time>2019-1-17T3:40:50Z</time></trkpt>
<trkpt lat="48.455711" lon="2.638758"><ele></ele><time>2019-1-17T3:40:53Z</time></trkpt>
<trkpt lat="48.455539" lon="2.638659"><ele></ele><time>2019-1-17T3:40:56Z</time></trkpt>
<trkpt lat="48.455433" lon="2.638568"><ele></ele><time>2019-1-17T3:40:59Z</time></trkpt>
<trkpt lat="48.455306" lon="2.638511"><ele></ele><time>2019-1-17T3:41:2Z</time></trkpt>
<trkpt lat="48.455182" lon="2.638467"><ele></ele><time>2019-1-17T3:41:5Z</time></trkpt>
<trkpt lat="48.455058" lon="2.638449"><ele></ele><time>2019-1-17T3:41:8Z</time></trkpt>
<trkpt lat="48.454945" lon="2.638447"><ele></ele><time>2019-1-17T3:41:11Z</time></trkpt>
<trkpt lat="48.454827" lon="2.638412"><ele></ele><time>2019-1-17T3:41:14Z</time></trkpt>
<trkpt lat="48.454789" lon="2.638275"><ele></ele><time>2019-1-17T3:41:17Z</time></trkpt>
<trkpt lat="48.45469" lon="2.638117"><ele></ele><time>2019-1-17T3:41:20Z</time></trkpt>
<trkpt lat="48.454637" lon="2.637979"><ele></ele><time>2019-1-17T3:41:23Z</time></trkpt>
<trkpt lat="48.45454" lon="2.637824"><ele></ele><time>2019-1-17T3:41:26Z</time></trkpt>
<trkpt lat="48.454485" lon="2.637677"><ele></ele><time>2019-1-17T3:41:29Z</time></trkpt>
<trkpt lat="48.454475" lon="2.637519"><ele></ele><time>2019-1-17T3:41:32Z</time></trkpt>
<trkpt lat="48.454431" lon="2.63738"><ele></ele><time>2019-1-17T3:41:35Z</time></trkpt>
<trkpt lat="48.454385" lon="2.63719"><ele></ele><time>2019-1-17T3:41:38Z</time></trkpt>
<trkpt lat="48.454314" lon="2.637042"><ele></ele><time>2019-1-17T3:41:41Z</time></trkpt>
<trkpt lat="48.454271" lon="2.636867"><ele></ele><time>2019-1-17T3:41:44Z</time></trkpt>
<trkpt lat="48.454237" lon="2.636734"><ele></ele><time>2019-1-17T3:41:47Z</time></trkpt>
<trkpt lat="48.454189" lon="2.636608"><ele></ele><time>2019-1-17T3:41:50Z</time></trkpt>
<trkpt lat="48.45412" lon="2.63649"><ele></ele><time>2019-1-17T3:41:53Z</time></trkpt>
<trkpt lat="48.454026" lon="2.636393"><ele></ele><time>2019-1-17T3:41:56Z</time></trkpt>
<trkpt lat="48.453928" lon="2.636332"><ele></ele><time>2019-1-17T3:41:59Z</time></trkpt>
<trkpt lat="48.453833" lon="2.636305"><ele></ele><time>2019-1-17T3:42:2Z</time></trkpt>
<trkpt lat="48.453685" lon="2.636276"><ele></ele><time>2019-1-17T3:42:5Z</time></trkpt>
<trkpt lat="48.453569" lon="2.636298"><ele></ele><time>2019-1-17T3:42:8Z</time></trkpt>
<trkpt lat="48.453462" lon="2.636366"><ele></ele><time>2019-1-17T3:42:11Z</time></trkpt>
<trkpt lat="48.453348" lon="2.636378"><ele></ele><time>2019-1-17T3:42:14Z</time></trkpt>
<trkpt lat="48.453272" lon="2.636504"><ele></ele><time>2019-1-17T3:42:17Z</time></trkpt>
<trkpt lat="48.453237" lon="2.636634"><ele></ele><time>2019-1-17T3:42:20Z</time></trkpt>
<trkpt lat="48.453151" lon="2.636762"><ele></ele><time>2019-1-17T3:42:23Z</time></trkpt>
<trkpt lat="48.45306" lon="2.636735"><ele></ele><time>2019-1-17T3:42:26Z</time></trkpt>
<trkpt lat="48.452992" lon="2.636623"><ele></ele><time>2019-1-17T3:42:29Z</time></trkpt>
<trkpt lat="48.452893" lon="2.636497"><ele></ele><time>2019-1-17T3:42:32Z</time></trkpt>
<trkpt lat="48.452829" lon="2.636374"><ele></ele><time>2019-1-17T3:42:35Z</time></trkpt>
<trkpt lat="48.452717" lon="2.636248"><ele></ele><time>2019-1-17T3:42:38Z</time></trkpt>
<trkpt lat="48.452633" lon="2.636128"><ele></ele><time>2019-1-17T3:42:41Z</time></trkpt>
<trkpt lat="48.452554" lon="2.636045"><ele></ele><time>2019-1-17T3:42:44Z</time></trkpt>
<trkpt lat="48.452468" lon="2.635996"><ele></ele><time>2019-1-17T3:42:47Z</time></trkpt>
<trkpt lat="48.452348" lon="2.635994"><ele></ele><time>2019-1-17T3:42:50Z</time></trkpt>
<trkpt lat="48.452258" lon="2.635971"><ele></ele><time>2019-1-17T3:42:53Z</time></trkpt>
<trkpt lat="48.452129" lon="2.635973"><ele></ele><time>2019-1-17T3:42:56Z</time></trkpt>
<trkpt lat="48.452022" lon="2.635899"><ele></ele><time>2019-1-17T3:42:59Z</time></trkpt>
<trkpt lat="48.451942" lon="2.635769"><ele></ele><time>2019-1-17T3:43:2Z</time></trkpt>
<trkpt lat="48.451891" lon="2.635628"><ele></ele><time>2019-1-17T3:43:5Z</time></trkpt>
<trkpt lat="48.451894" lon="2.635427"><ele></ele><time>2019-1-17T3:43:8Z</time></trkpt>
<trkpt lat="48.451896" lon="2.635283"><ele></ele><time>2019-1-17T3:43:11Z</time></trkpt>
<trkpt lat="48.451914" lon="2.635106"><ele></ele><time>2019-1-17T3:43:14Z</time></trkpt>
<trkpt lat="48.451939" lon="2.634966"><ele></ele><time>2019-1-17T3:43:17Z</time></trkpt>
<trkpt lat="48.45195" lon="2.634789"><ele></ele><time>2019-1-17T3:43:20Z</time></trkpt>
<trkpt lat="48.451981" lon="2.634637"><ele></ele><time>2019-1-17T3:43:23Z</time></trkpt>
<trkpt lat="48.452027" lon="2.634459"><ele></ele><time>2019-1-17T3:43:26Z</time></trkpt>
<trkpt lat="48.452047" lon="2.634312"><ele></ele><time>2019-1-17T3:43:29Z</time></trkpt>
<trkpt lat="48.452041" lon="2.63414"><ele></ele><time>2019-1-17T3:43:32Z</time></trkpt>
<trkpt lat="48.452016" lon="2.633954"><ele></ele><time>2019-1-17T3:43:35Z</time></trkpt>
<trkpt lat="48.45206" lon="2.633801"><ele></ele><time>2019-1-17T3:43:38Z</time></trkpt>
<trkpt lat="48.452095" lon="2.633672"><ele></ele><time>2019-1-17T3:43:41Z</time></trkpt>
<trkpt lat="48.452154" lon="2.633557"><ele></ele><time>2019-1-17T3:43:44Z</time></trkpt>
<trkpt lat="48.45207" lon="2.633706"><ele></ele><time>2019-1-17T3:43:47Z</time></trkpt>
<trkpt lat="48.452018" lon="2.633827"><ele></ele><time>2019-1-17T3:43:50Z</time></trkpt>
<trkpt lat="48.451971" lon="2.63398"><ele></ele><time>2019-1-17T3:43:53Z</time></trkpt>
<trkpt lat="48.451982" lon="2.634202"><ele></ele><time>2019-1-17T3:43:56Z</time></trkpt>
<trkpt lat="48.451995" lon="2.634349"><ele></ele><time>2019-1-17T3:43:59Z</time></trkpt>
<trkpt lat="48.452028" lon="2.634512"><ele></ele><time>2019-1-17T3:44:2Z</time></trkpt>
<trkpt lat="48.452061" lon="2.634659"><ele></ele><time>2019-1-17T3:44:5Z</time></trkpt>
<trkpt lat="48.452001" lon="2.634781"><ele></ele><time>2019-1-17T3:44:8Z</time></trkpt>
<trkpt lat="48.451962" lon="2.634931"><ele></ele><time>2019-1-17T3:44:11Z</time></trkpt>
<trkpt lat="48.451906" lon="2.635092"><ele></ele><time>2019-1-17T3:44:14Z</time></trkpt>
<trkpt lat="48.451852" lon="2.635214"><ele></ele><time>2019-1-17T3:44:17Z</time></trkpt>
<trkpt lat="48.45177" lon="2.635373"><ele></ele><time>2019-1-17T3:44:20Z</time></trkpt>
<trkpt lat="48.451728" lon="2.635602"><ele></ele><time>2019-1-17T3:44:23Z</time></trkpt>
<trkpt lat="48.45172" lon="2.635792"><ele></ele><time>2019-1-17T3:44:26Z</time></trkpt>
<trkpt lat="48.451769" lon="2.635931"><ele></ele><time>2019-1-17T3:44:29Z</time></trkpt>
<trkpt lat="48.451806" lon="2.636099"><ele></ele><time>2019-1-17T3:44:32Z</time></trkpt>
<trkpt lat="48.451734" lon="2.636192"><ele></ele><time>2019-1-17T3:44:35Z</time></trkpt>
<trkpt lat="48.451623" lon="2.636289"><ele></ele><time>2019-1-17T3:44:38Z</time></trkpt>
<trkpt lat="48.451527" lon="2.636351"><ele></ele><time>2019-1-17T3:44:41Z</time></trkpt>
<trkpt lat="48.451413" lon="2.636459"><ele></ele><time>2019-1-17T3:44:44Z</time></trkpt>
<trkpt lat="48.451313" lon="2.636495"><ele></ele><time>2019-1-17T3:44:47Z</time></trkpt>
<trkpt lat="48.451225" lon="2.636573"><ele></ele><time>2019-1-17T3:44:50Z</time></trkpt>
<trkpt lat="48.451149" lon="2.636694"><ele></ele><time>2019-1-17T3:44:53Z</time></trkpt>
<trkpt lat="48.451116" lon="2.636867"><ele></ele><time>2019-1-17T3:44:56Z</time></trkpt>
<trkpt lat="48.451062" lon="2.637009"><ele></ele><time>2019-1-17T3:44:59Z</time></trkpt>
<trkpt lat="48.451001" lon="2.637157"><ele></ele><time>2019-1-17T3:45:2Z</time></trkpt>
<trkpt lat="48.450949" lon="2.637291"><ele></ele><time>2019-1-17T3:45:5Z</time></trkpt>
<trkpt lat="48.450935" lon="2.637461"><ele></ele><time>2019-1-17T3:45:8Z</time></trkpt>
<trkpt lat="48.45091" lon="2.637655"><ele></ele><time>2019-1-17T3:45:11Z</time></trkpt>
<trkpt lat="48.450924" lon="2.637808"><ele></ele><time>2019-1-17T3:45:14Z</time></trkpt>
<trkpt lat="48.450897" lon="2.637939"><ele></ele><time>2019-1-17T3:45:17Z</time></trkpt>
<trkpt lat="48.450897" lon="2.638109"><ele></ele><time>2019-1-17T3:45:20Z</time></trkpt>
<trkpt lat="48.450889" lon="2.638248"><ele></ele><time>2019-1-17T3:45:23Z</time></trkpt>
<trkpt lat="48.450903" lon="2.638459"><ele></ele><time>2019-1-17T3:45:26Z</time></trkpt>
<trkpt lat="48.450892" lon="2.638689"><ele></ele><time>2019-1-17T3:45:29Z</time></trkpt>
<trkpt lat="48.450922" lon="2.638884"><ele></ele><time>2019-1-17T3:45:32Z</time></trkpt>
<trkpt lat="48.450945" lon="2.639088"><ele></ele><time>2019-1-17T3:45:35Z</time></trkpt>
<trkpt lat="48.450974" lon="2.639254"><ele></ele><time>2019-1-17T3:45:38Z</time></trkpt>
<trkpt lat="48.45099" lon="2.639422"><ele></ele><time>2019-1-17T3:45:41Z</time></trkpt>
<trkpt lat="48.45098" lon="2.639573"><ele></ele><time>2019-1-17T3:45:44Z</time></trkpt>
<trkpt lat="48.451035" lon="2.639681"><ele></ele><time>2019-1-17T3:45:47Z</time></trkpt>
<trkpt lat="48.451075" lon="2.63987"><ele></ele><time>2019-1-17T3:45:50Z</time></trkpt>
<trkpt lat="48.451119" lon="2.640044"><ele></ele><time>2019-1-17T3:45:53Z</time></trkpt>
<trkpt lat="48.451104" lon="2.64024"><ele></ele><time>2019-1-17T3:45:56Z</time></trkpt>
<trkpt lat="48.451031" lon="2.640503"><ele></ele><time>2019-1-17T3:45:59Z</time></trkpt>
<trkpt lat="48.450939" lon="2.640701"><ele></ele><time>2019-1-17T3:46:2Z</time></trkpt>
<trkpt lat="48.450854" lon="2.640854"><ele></ele><time>2019-1-17T3:46:5Z</time></trkpt>
<trkpt lat="48.450772" lon="2.640961"><ele></ele><time>2019-1-17T3:46:8Z</time></trkpt>
<trkpt lat="48.450701" lon="2.641071"><ele></ele><time>2019-1-17T3:46:11Z</time></trkpt>
<trkpt lat="48.450565" lon="2.641128"><ele></ele><time>2019-1-17T3:46:14Z</time></trkpt>
<trkpt lat="48.450473" lon="2.641233"><ele></ele><time>2019-1-17T3:46:17Z</time></trkpt>
<trkpt lat="48.450405" lon="2.64135"><ele></ele><time>2019-1-17T3:46:20Z</time></trkpt>
<trkpt lat="48.450311" lon="2.641424"><ele></ele><time>2019-1-17T3:46:23Z</time></trkpt>
<trkpt lat="48.450266" lon="2.641547"><ele></ele><time>2019-1-17T3:46:26Z</time></trkpt>
<trkpt lat="48.450144" lon="2.641641"><ele></ele><time>2019-1-17T3:46:29Z</time></trkpt>
<trkpt lat="48.450071" lon="2.641796"><ele></ele><time>2019-1-17T3:46:32Z</time></trkpt>
<trkpt lat="48.450028" lon="2.641946"><ele></ele><time>2019-1-17T3:46:35Z</time></trkpt>
<trkpt lat="48.449958" lon="2.642117"><ele></ele><time>2019-1-17T3:46:38Z</time></trkpt>
<trkpt lat="48.449837" lon="2.642193"><ele></ele><time>2019-1-17T3:46:41Z</time></trkpt>
<trkpt lat="48.449739" lon="2.642204"><ele></ele><time>2019-1-17T3:46:44Z</time></trkpt>
<trkpt lat="48.449661" lon="2.642349"><ele></ele><time>2019-1-17T3:46:47Z</time></trkpt>
<trkpt lat="48.449566" lon="2.642466"><ele></ele><time>2019-1-17T3:46:50Z</time></trkpt>
<trkpt lat="48.449472" lon="2.642584"><ele></ele><time>2019-1-17T3:46:53Z</time></trkpt>
<trkpt lat="48.449434" lon="2.642727"><ele></ele><time>2019-1-17T3:46:56Z</time></trkpt>
<trkpt lat="48.449384" lon="2.642863"><ele></ele><time>2019-1-17T3:46:59Z</time></trkpt>
<trkpt lat="48.449301" lon="2.642935"><ele></ele><time>2019-1-17T3:47:2Z</time></trkpt>
<trkpt lat="48.449261" lon="2.643136"><ele></ele><time>2019-1-17T3:47:5Z</time></trkpt>
<trkpt lat="48.449338" lon="2.643346"><ele></ele><time>2019-1-17T3:47:8Z</time></trkpt>
<trkpt lat="48.449358" lon="2.643489"><ele></ele><time>2019-1-17T3:47:11Z</time></trkpt>
<trkpt lat="48.449429" lon="2.643593"><ele></ele><time>2019-1-17T3:47:14Z</time></trkpt>
<trkpt lat="48.449492" lon="2.643699"><ele></ele><time>2019-1-17T3:47:17Z</time></trkpt>
<trkpt lat="48.449557" lon="2.643804"><ele></ele><time>2019-1-17T3:47:20Z</time></trkpt>
<trkpt lat="48.449614" lon="2.643956"><ele></ele><time>2019-1-17T3:47:23Z</time></trkpt>
<trkpt lat="48.449636" lon="2.644183"><ele></ele><time>2019-1-17T3:47:26Z</time></trkpt>
<trkpt lat="48.449656" lon="2.644355"><ele></ele><time>2019-1-17T3:47:29Z</time></trkpt>
<trkpt lat="48.44966" lon="2.644503"><ele></ele><time>2019-1-17T3:47:32Z</time></trkpt>
<trkpt lat="48.449628" lon="2.644632"><ele></ele><time>2019-1-17T3:47:35Z</time></trkpt>
<trkpt lat="48.449603" lon="2.644827"><ele></ele><time>2019-1-17T3:47:38Z</time></trkpt>
<trkpt lat="48.449646" lon="2.644974"><ele></ele><time>2019-1-17T3:47:41Z</time></trkpt>
<trkpt lat="48.449622" lon="2.645107"><ele></ele><time>2019-1-17T3:47:44Z</time></trkpt>
<trkpt lat="48.449589" lon="2.645245"><ele></ele><time>2019-1-17T3:47:47Z</time></trkpt>
<trkpt lat="48.449629" lon="2.645469"><ele></ele><time>2019-1-17T3:47:50Z</time></trkpt>
<trkpt lat="48.449628" lon="2.645658"><ele></ele><time>2019-1-17T3:47:53Z</time></trkpt>
<trkpt lat="48.449554" lon="2.645765"><ele></ele><time>2019-1-17T3:47:56Z</time></trkpt>
<trkpt lat="48.449526" lon="2.645911"><ele></ele><time>2019-1-17T3:47:59Z</time></trkpt>
<trkpt lat="48.449506" lon="2.646063"><ele></ele><time>2019-1-17T3:48:2Z</time></trkpt>
<trkpt lat="48.449483" lon="2.646276"><ele></ele><time>2019-1-17T3:48:5Z</time></trkpt>
<trkpt lat="48.449482" lon="2.646448"><ele></ele><time>2019-1-17T3:48:8Z</time></trkpt>
<trkpt lat="48.449478" lon="2.646646"><ele></ele><time>2019-1-17T3:48:11Z</time></trkpt>
<trkpt lat="48.449498" lon="2.646853"><ele></ele><time>2019-1-17T3:48:14Z</time></trkpt>
<trkpt lat="48.449439" lon="2.647009"><ele></ele><time>2019-1-17T3:48:17Z</time></trkpt>
<trkpt lat="48.449328" lon="2.647071"><ele></ele><time>2019-1-17T3:48:20Z</time></trkpt>
<trkpt lat="48.449231" lon="2.647098"><ele></ele><time>2019-1-17T3:48:23Z</time></trkpt>
<trkpt lat="48.449139" lon="2.647074"><ele></ele><time>2019-1-17T3:48:26Z</time></trkpt>
<trkpt lat="48.449039" lon="2.647125"><ele></ele><time>2019-1-17T3:48:29Z</time></trkpt>
<trkpt lat="48.448952" lon="2.647158"><ele></ele><time>2019-1-17T3:48:32Z</time></trkpt>
<trkpt lat="48.44886" lon="2.647286"><ele></ele><time>2019-1-17T3:48:35Z</time></trkpt>
<trkpt lat="48.448835" lon="2.647425"><ele></ele><time>2019-1-17T3:48:38Z</time></trkpt>
<trkpt lat="48.448777" lon="2.647589"><ele></ele><time>2019-1-17T3:48:41Z</time></trkpt>
<trkpt lat="48.448689" lon="2.64773"><ele></ele><time>2019-1-17T3:48:44Z</time></trkpt>
<trkpt lat="48.448617" lon="2.647884"><ele></ele><time>2019-1-17T3:48:47Z</time></trkpt>
<trkpt lat="48.448555" lon="2.648053"><ele></ele><time>2019-1-17T3:48:50Z</time></trkpt>
<trkpt lat="48.44848" lon="2.648176"><ele></ele><time>2019-1-17T3:48:53Z</time></trkpt>
<trkpt lat="48.448401" lon="2.648338"><ele></ele><time>2019-1-17T3:48:56Z</time></trkpt>
<trkpt lat="48.448396" lon="2.648482"><ele></ele><time>2019-1-17T3:48:59Z</time></trkpt>
<trkpt lat="48.44841" lon="2.648651"><ele></ele><time>2019-1-17T3:49:2Z</time></trkpt>
<trkpt lat="48.448428" lon="2.648867"><ele></ele><time>2019-1-17T3:49:5Z</time></trkpt>
<trkpt lat="48.448357" lon="2.649082"><ele></ele><time>2019-1-17T3:49:8Z</time></trkpt>
<trkpt lat="48.448343" lon="2.649285"><ele></ele><time>2019-1-17T3:49:11Z</time></trkpt>
<trkpt lat="48.448285" lon="2.649461"><ele></ele><time>2019-1-17T3:49:14Z</time></trkpt>
<trkpt lat="48.44821" lon="2.649561"><ele></ele><time>2019-1-17T3:49:17Z</time></trkpt>
<trkpt lat="48.448153" lon="2.64973"><ele></ele><time>2019-1-17T3:49:20Z</time></trkpt>
<trkpt lat="48.448089" lon="2.649871"><ele></ele><time>2019-1-17T3:49:23Z</time></trkpt>
<trkpt lat="48.448043" lon="2.649998"><ele></ele><time>2019-1-17T3:49:26Z</time></trkpt>
<trkpt lat="48.447955" lon="2.650158"><ele></ele><time>2019-1-17T3:49:29Z</time></trkpt>
<trkpt lat="48.44788" lon="2.650336"><ele></ele><time>2019-1-17T3:49:32Z</time></trkpt>
<trkpt lat="48.447819" lon="2.650452"><ele></ele><time>2019-1-17T3:49:35Z</time></trkpt>
<trkpt lat="48.447759" lon="2.650576"><ele></ele><time>2019-1-17T3:49:38Z</time></trkpt>
<trkpt lat="48.447805" lon="2.650694"><ele></ele><time>2019-1-17T3:49:41Z</time></trkpt>
<trkpt lat="48.447873" lon="2.650872"><ele></ele><time>2019-1-17T3:49:44Z</time></trkpt>
<trkpt lat="48.447963" lon="2.651089"><ele></ele><time>2019-1-17T3:49:47Z</time></trkpt>
<trkpt lat="48.448023" lon="2.651263"><ele></ele><time>2019-1-17T3:49:50Z</time></trkpt>
<trkpt lat="48.448055" lon="2.651434"><ele></ele><time>2019-1-17T3:49:53Z</time></trkpt>
<trkpt lat="48.44811" lon="2.651586"><ele></ele><time>2019-1-17T3:49:56Z</time></trkpt>
<trkpt lat="48.448164" lon="2.651703"><ele></ele><time>2019-1-17T3:49:59Z</time></trkpt>
<trkpt lat="48.448256" lon="2.651869"><ele></ele><time>2019-1-17T3:50:2Z</time></trkpt>
<trkpt lat="48.448311" lon="2.652009"><ele></ele><time>2019-1-17T3:50:5Z</time></trkpt>
<trkpt lat="48.448358" lon="2.652213"><ele></ele><time>2019-1-17T3:50:8Z</time></trkpt>
<trkpt lat="48.448381" lon="2.652347"><ele></ele><time>2019-1-17T3:50:11Z</time></trkpt>
<trkpt lat="48.448403" lon="2.652625"><ele></ele><time>2019-1-17T3:50:14Z</time></trkpt>
<trkpt lat="48.448548" lon="2.652768"><ele></ele><time>2019-1-17T3:50:17Z</time></trkpt>
<trkpt lat="48.448652" lon="2.652879"><ele></ele><time>2019-1-17T3:50:20Z</time></trkpt>
<trkpt lat="48.448706" lon="2.653016"><ele></ele><time>2019-1-17T3:50:23Z</time></trkpt>
<trkpt lat="48.448748" lon="2.653169"><ele></ele><time>2019-1-17T3:50:26Z</time></trkpt>
<trkpt lat="48.448852" lon="2.653316"><ele></ele><time>2019-1-17T3:50:29Z</time></trkpt>
<trkpt lat="48.448929" lon="2.653449"><ele></ele><time>2019-1-17T3:50:32Z</time></trkpt>
<trkpt lat="48.44899" lon="2.653576"><ele></ele><time>2019-1-17T3:50:35Z</time></trkpt>
<trkpt lat="48.449013" lon="2.653732"><ele></ele><time>2019-1-17T3:50:38Z</time></trkpt>
<trkpt lat="48.449045" lon="2.653876"><ele></ele><time>2019-1-17T3:50:41Z</time></trkpt>
<trkpt lat="48.44905" lon="2.654048"><ele></ele><time>2019-1-17T3:50:44Z</time></trkpt>
<trkpt lat="48.449033" lon="2.654207"><ele></ele><time>2019-1-17T3:50:47Z</time></trkpt>
<trkpt lat="48.448911" lon="2.654307"><ele></ele><time>2019-1-17T3:50:50Z</time></trkpt>
<trkpt lat="48.448847" lon="2.654449"><ele></ele><time>2019-1-17T3:50:53Z</time></trkpt>
<trkpt lat="48.448787" lon="2.654572"><ele></ele><time>2019-1-17T3:50:56Z</time></trkpt>
<trkpt lat="48.448771" lon="2.654761"><ele></ele><time>2019-1-17T3:50:59Z</time></trkpt>
<trkpt lat="48.448707" lon="2.654944"><ele></ele><time>2019-1-17T3:51:2Z</time></trkpt>
<trkpt lat="48.448708" lon="2.655122"><ele></ele><time>2019-1-17T3:51:5Z</time></trkpt>
<trkpt lat="48.448703" lon="2.655307"><ele></ele><time>2019-1-17T3:51:8Z</time></trkpt>
<trkpt lat="48.448682" lon="2.655532"><ele></ele><time>2019-1-17T3:51:11Z</time></trkpt>
<trkpt lat="48.448595" lon="2.655615"><ele></ele><time>2019-1-17T3:51:14Z</time></trkpt>
<trkpt lat="48.448546" lon="2.655798"><ele></ele><time>2019-1-17T3:51:17Z</time></trkpt>
<trkpt lat="48.448501" lon="2.655955"><ele></ele><time>2019-1-17T3:51:20Z</time></trkpt>
<trkpt lat="48.448479" lon="2.65612"><ele></ele><time>2019-1-17T3:51:23Z</time></trkpt>
<trkpt lat="48.448402" lon="2.656259"><ele></ele><time>2019-1-17T3:51:26Z</time></trkpt>
<trkpt lat="48.448367" lon="2.656441"><ele></ele><time>2019-1-17T3:51:29Z</time></trkpt>
<trkpt lat="48.448335" lon="2.656594"><ele></ele><time>2019-1-17T3:51:32Z</time></trkpt>
<trkpt lat="48.448262" lon="2.656692"><ele></ele><time>2019-1-17T3:51:35Z</time></trkpt>
<trkpt lat="48.448192" lon="2.656859"><ele></ele><time>2019-1-17T3:51:38Z</time></trkpt>
<trkpt lat="48.448137" lon="2.656986"><ele></ele><time>2019-1-17T3:51:41Z</time></trkpt>
<trkpt lat="48.448063" lon="2.657209"><ele></ele><time>2019-1-17T3:51:44Z</time></trkpt>
<trkpt lat="48.448083" lon="2.657379"><ele></ele><time>2019-1-17T3:51:47Z</time></trkpt>
<trkpt lat="48.448024" lon="2.657541"><ele></ele><time>2019-1-17T3:51:50Z</time></trkpt>
<trkpt lat="48.447984" lon="2.657705"><ele></ele><time>2019-1-17T3:51:53Z</time></trkpt>
<trkpt lat="48.447913" lon="2.657805"><ele></ele><time>2019-1-17T3:51:56Z</time></trkpt>
<trkpt lat="48.447834" lon="2.657915"><ele></ele><time>2019-1-17T3:51:59Z</time></trkpt>
<trkpt lat="48.44782" lon="2.658098"><ele></ele><time>2019-1-17T3:52:2Z</time></trkpt>
<trkpt lat="48.447816" lon="2.658259"><ele></ele><time>2019-1-17T3:52:5Z</time></trkpt>
<trkpt lat="48.44778" lon="2.658412"><ele></ele><time>2019-1-17T3:52:8Z</time></trkpt>
<trkpt lat="48.447728" lon="2.658554"><ele></ele><time>2019-1-17T3:52:11Z</time></trkpt>
<trkpt lat="48.447669" lon="2.65875"><ele></ele><time>2019-1-17T3:52:14Z</time></trkpt>
<trkpt lat="48.447612" lon="2.658889"><ele></ele><time>2019-1-17T3:52:17Z</time></trkpt>
<trkpt lat="48.447629" lon="2.659028"><ele></ele><time>2019-1-17T3:52:20Z</time></trkpt>
<trkpt lat="48.447579" lon="2.659203"><ele></ele><time>2019-1-17T3:52:23Z</time></trkpt>
<trkpt lat="48.447497" lon="2.659383"><ele></ele><time>2019-1-17T3:52:26Z</time></trkpt>
<trkpt lat="48.447452" lon="2.659622"><ele></ele><time>2019-1-17T3:52:29Z</time></trkpt>
<trkpt lat="48.447425" lon="2.659789"><ele></ele><time>2019-1-17T3:52:32Z</time></trkpt>
<trkpt lat="48.447397" lon="2.659924"><ele></ele><time>2019-1-17T3:52:35Z</time></trkpt>
<trkpt lat="48.447308" lon="2.660082"><ele></ele><time>2019-1-17T3:52:38Z</time></trkpt>
<trkpt lat="48.447271" lon="2.660211"><ele></ele><time>2019-1-17T3:52:41Z</time></trkpt>
<trkpt lat="48.447167" lon="2.660304"><ele></ele><time>2019-1-17T3:52:44Z</time></trkpt>
<trkpt lat="48.447107" lon="2.660423"><ele></ele><time>2019-1-17T3:52:47Z</time></trkpt>
<trkpt lat="48.447022" lon="2.660478"><ele></ele><time>2019-1-17T3:52:50Z</time></trkpt>
<trkpt lat="48.446931" lon="2.660602"><ele></ele><time>2019-1-17T3:52:53Z</time></trkpt>
<trkpt lat="48.446845" lon="2.660656"><ele></ele><time>2019-1-17T3:52:56Z</time></trkpt>
<trkpt lat="48.446706" lon="2.660686"><ele></ele><time>2019-1-17T3:52:59Z</time></trkpt>
<trkpt lat="48.4466" lon="2.6608"><ele></ele><time>2019-1-17T3:53:2Z</time></trkpt>
<trkpt lat="48.446524" lon="2.660887"><ele></ele><time>2019-1-17T3:53:5Z</time></trkpt>
<trkpt lat="48.446418" lon="2.660923"><ele></ele><time>2019-1-17T3:53:8Z</time></trkpt>
<trkpt lat="48.446288" lon="2.66098"><ele></ele><time>2019-1-17T3:53:11Z</time></trkpt>
<trkpt lat="48.446196" lon="2.661041"><ele></ele><time>2019-1-17T3:53:14Z</time></trkpt>
<trkpt lat="48.446075" lon="2.661094"><ele></ele><time>2019-1-17T3:53:17Z</time></trkpt>
<trkpt lat="48.445952" lon="2.66113"><ele></ele><time>2019-1-17T3:53:20Z</time></trkpt>
<trkpt lat="48.445847" lon="2.66116"><ele></ele><time>2019-1-17T3:53:23Z</time></trkpt>
<trkpt lat="48.445723" lon="2.661218"><ele></ele><time>2019-1-17T3:53:26Z</time></trkpt>
<trkpt lat="48.445614" lon="2.661298"><ele></ele><time>2019-1-17T3:53:29Z</time></trkpt>
<trkpt lat="48.445502" lon="2.661396"><ele></ele><time>2019-1-17T3:53:32Z</time></trkpt>
<trkpt lat="48.445433" lon="2.66152"><ele></ele><time>2019-1-17T3:53:35Z</time></trkpt>
<trkpt lat="48.44534" lon="2.661547"><ele></ele><time>2019-1-17T3:53:38Z</time></trkpt>
<trkpt lat="48.445252" lon="2.661591"><ele></ele><time>2019-1-17T3:53:41Z</time></trkpt>
<trkpt lat="48.445167" lon="2.661685"><ele></ele><time>2019-1-17T3:53:44Z</time></trkpt>
<trkpt lat="48.445074" lon="2.661715"><ele></ele><time>2019-1-17T3:53:47Z</time></trkpt>
<trkpt lat="48.444985" lon="2.661815"><ele></ele><time>2019-1-17T3:53:50Z</time></trkpt>
<trkpt lat="48.444891" lon="2.6619"><ele></ele><time>2019-1-17T3:53:53Z</time></trkpt>
<trkpt lat="48.444753" lon="2.661979"><ele></ele><time>2019-1-17T3:53:56Z</time></trkpt>
<trkpt lat="48.444667" lon="2.662022"><ele></ele><time>2019-1-17T3:53:59Z</time></trkpt>
<trkpt lat="48.4446" lon="2.66213"><ele></ele><time>2019-1-17T3:54:2Z</time></trkpt>
<trkpt lat="48.444518" lon="2.66222"><ele></ele><time>2019-1-17T3:54:5Z</time></trkpt>
<trkpt lat="48.444472" lon="2.662394"><ele></ele><time>2019-1-17T3:54:8Z</time></trkpt>
<trkpt lat="48.444389" lon="2.662532"><ele></ele><time>2019-1-17T3:54:11Z</time></trkpt>
<trkpt lat="48.444309" lon="2.662634"><ele></ele><time>2019-1-17T3:54:14Z</time></trkpt>
<trkpt lat="48.444233" lon="2.662797"><ele></ele><time>2019-1-17T3:54:17Z</time></trkpt>
<trkpt lat="48.444156" lon="2.662898"><ele></ele><time>2019-1-17T3:54:20Z</time></trkpt>
<trkpt lat="48.4441" lon="2.663023"><ele></ele><time>2019-1-17T3:54:23Z</time></trkpt>
<trkpt lat="48.444034" lon="2.66312"><ele></ele><time>2019-1-17T3:54:26Z</time></trkpt>
<trkpt lat="48.444018" lon="2.663263"><ele></ele><time>2019-1-17T3:54:29Z</time></trkpt>
<trkpt lat="48.443957" lon="2.663374"><ele></ele><time>2019-1-17T3:54:32Z</time></trkpt>
<trkpt lat="48.444011" lon="2.663499"><ele></ele><time>2019-1-17T3:54:35Z</time></trkpt>
<trkpt lat="48.444051" lon="2.66363"><ele></ele><time>2019-1-17T3:54:38Z</time></trkpt>
<trkpt lat="48.444031" lon="2.663789"><ele></ele><time>2019-1-17T3:54:41Z</time></trkpt>
<trkpt lat="48.444007" lon="2.663956"><ele></ele><time>2019-1-17T3:54:44Z</time></trkpt>
<trkpt lat="48.44397" lon="2.664142"><ele></ele><time>2019-1-17T3:54:47Z</time></trkpt>
<trkpt lat="48.443942" lon="2.664325"><ele></ele><time>2019-1-17T3:54:50Z</time></trkpt>
<trkpt lat="48.44394" lon="2.664492"><ele></ele><time>2019-1-17T3:54:53Z</time></trkpt>
<trkpt lat="48.443919" lon="2.664627"><ele></ele><time>2019-1-17T3:54:56Z</time></trkpt>
<trkpt lat="48.443962" lon="2.664772"><ele></ele><time>2019-1-17T3:54:59Z</time></trkpt>
<trkpt lat="48.443892" lon="2.664891"><ele></ele><time>2019-1-17T3:55:2Z</time></trkpt>
<trkpt lat="48.443933" lon="2.665021"><ele></ele><time>2019-1-17T3:55:5Z</time></trkpt>
<trkpt lat="48.443981" lon="2.665146"><ele></ele><time>2019-1-17T3:55:8Z</time></trkpt>
<trkpt lat="48.44394" lon="2.665317"><ele></ele><time>2019-1-17T3:55:11Z</time></trkpt>
<trkpt lat="48.443943" lon="2.665485"><ele></ele><time>2019-1-17T3:55:14Z</time></trkpt>
<trkpt lat="48.443913" lon="2.66563"><ele></ele><time>2019-1-17T3:55:17Z</time></trkpt>
<trkpt lat="48.443915" lon="2.665781"><ele></ele><time>2019-1-17T3:55:20Z</time></trkpt>
<trkpt lat="48.443926" lon="2.665922"><ele></ele><time>2019-1-17T3:55:23Z</time></trkpt>
<trkpt lat="48.443924" lon="2.666083"><ele></ele><time>2019-1-17T3:55:26Z</time></trkpt>
<trkpt lat="48.4439" lon="2.666236"><ele></ele><time>2019-1-17T3:55:29Z</time></trkpt>
<trkpt lat="48.443916" lon="2.666387"><ele></ele><time>2019-1-17T3:55:32Z</time></trkpt>
<trkpt lat="48.4439" lon="2.66654"><ele></ele><time>2019-1-17T3:55:35Z</time></trkpt>
<trkpt lat="48.443882" lon="2.666682"><ele></ele><time>2019-1-17T3:55:38Z</time></trkpt>
<trkpt lat="48.443847" lon="2.666867"><ele></ele><time>2019-1-17T3:55:41Z</time></trkpt>
<trkpt lat="48.44381" lon="2.667012"><ele></ele><time>2019-1-17T3:55:44Z</time></trkpt>
<trkpt lat="48.443759" lon="2.667131"><ele></ele><time>2019-1-17T3:55:47Z</time></trkpt>
<trkpt lat="48.443789" lon="2.667278"><ele></ele><time>2019-1-17T3:55:50Z</time></trkpt>
<trkpt lat="48.443801" lon="2.667433"><ele></ele><time>2019-1-17T3:55:53Z</time></trkpt>
<trkpt lat="48.443813" lon="2.667594"><ele></ele><time>2019-1-17T3:55:56Z</time></trkpt>
<trkpt lat="48.443776" lon="2.667748"><ele></ele><time>2019-1-17T3:55:59Z</time></trkpt>
<trkpt lat="48.443778" lon="2.667927"><ele></ele><time>2019-1-17T3:56:2Z</time></trkpt>
<trkpt lat="48.44375" lon="2.668072"><ele></ele><time>2019-1-17T3:56:5Z</time></trkpt>
<trkpt lat="48.443756" lon="2.668259"><ele></ele><time>2019-1-17T3:56:8Z</time></trkpt>
<trkpt lat="48.443738" lon="2.668414"><ele></ele><time>2019-1-17T3:56:11Z</time></trkpt>
<trkpt lat="48.443708" lon="2.668588"><ele></ele><time>2019-1-17T3:56:14Z</time></trkpt>
<trkpt lat="48.443709" lon="2.668733"><ele></ele><time>2019-1-17T3:56:17Z</time></trkpt>
<trkpt lat="48.443693" lon="2.668867"><ele></ele><time>2019-1-17T3:56:20Z</time></trkpt>
<trkpt lat="48.443697" lon="2.669015"><ele></ele><time>2019-1-17T3:56:23Z</time></trkpt>
<trkpt lat="48.443708" lon="2.669246"><ele></ele><time>2019-1-17T3:56:26Z</time></trkpt>
<trkpt lat="48.443727" lon="2.66938"><ele></ele><time>2019-1-17T3:56:29Z</time></trkpt>
<trkpt lat="48.443746" lon="2.669541"><ele></ele><time>2019-1-17T3:56:32Z</time></trkpt>
<trkpt lat="48.443793" lon="2.669733"><ele></ele><time>2019-1-17T3:56:35Z</time></trkpt>
<trkpt lat="48.443787" lon="2.669915"><ele></ele><time>2019-1-17T3:56:38Z</time></trkpt>
<trkpt lat="48.443795" lon="2.670128"><ele></ele><time>2019-1-17T3:56:41Z</time></trkpt>
<trkpt lat="48.443829" lon="2.670344"><ele></ele><time>2019-1-17T3:56:44Z</time></trkpt>
<trkpt lat="48.443817" lon="2.670481"><ele></ele><time>2019-1-17T3:56:47Z</time></trkpt>
<trkpt lat="48.443837" lon="2.670656"><ele></ele><time>2019-1-17T3:56:50Z</time></trkpt>
<trkpt lat="48.443858" lon="2.670865"><ele></ele><time>2019-1-17T3:56:53Z</time></trkpt>
<trkpt lat="48.443852" lon="2.671066"><ele></ele><time>2019-1-17T3:56:56Z</time></trkpt>
<trkpt lat="48.443856" lon="2.671242"><ele></ele><time>2019-1-17T3:56:59Z</time></trkpt>
<trkpt lat="48.443854" lon="2.671431"><ele></ele><time>2019-1-17T3:57:2Z</time></trkpt>
<trkpt lat="48.443855" lon="2.671608"><ele></ele><time>2019-1-17T3:57:5Z</time></trkpt>
<trkpt lat="48.443849" lon="2.671793"><ele></ele><time>2019-1-17T3:57:8Z</time></trkpt>
<trkpt lat="48.443795" lon="2.672005"><ele></ele><time>2019-1-17T3:57:11Z</time></trkpt>
<trkpt lat="48.443708" lon="2.671918"><ele></ele><time>2019-1-17T3:57:14Z</time></trkpt>
<trkpt lat="48.443634" lon="2.672031"><ele></ele><time>2019-1-17T3:57:17Z</time></trkpt>
<trkpt lat="48.44357" lon="2.67215"><ele></ele><time>2019-1-17T3:57:20Z</time></trkpt>
<trkpt lat="48.443532" lon="2.672287"><ele></ele><time>2019-1-17T3:57:23Z</time></trkpt>
<trkpt lat="48.443448" lon="2.672411"><ele></ele><time>2019-1-17T3:57:26Z</time></trkpt>
<trkpt lat="48.44336" lon="2.67253"><ele></ele><time>2019-1-17T3:57:29Z</time></trkpt>
<trkpt lat="48.443263" lon="2.672541"><ele></ele><time>2019-1-17T3:57:32Z</time></trkpt>
<trkpt lat="48.443193" lon="2.672643"><ele></ele><time>2019-1-17T3:57:35Z</time></trkpt>
<trkpt lat="48.443124" lon="2.672787"><ele></ele><time>2019-1-17T3:57:38Z</time></trkpt>
<trkpt lat="48.443014" lon="2.672891"><ele></ele><time>2019-1-17T3:57:41Z</time></trkpt>
<trkpt lat="48.442914" lon="2.672907"><ele></ele><time>2019-1-17T3:57:44Z</time></trkpt>
<trkpt lat="48.442892" lon="2.673054"><ele></ele><time>2019-1-17T3:57:47Z</time></trkpt>
<trkpt lat="48.442779" lon="2.673103"><ele></ele><time>2019-1-17T3:57:50Z</time></trkpt>
<trkpt lat="48.442686" lon="2.673165"><ele></ele><time>2019-1-17T3:57:53Z</time></trkpt>
<trkpt lat="48.442557" lon="2.673239"><ele></ele><time>2019-1-17T3:57:56Z</time></trkpt>
<trkpt lat="48.44244" lon="2.673315"><ele></ele><time>2019-1-17T3:57:59Z</time></trkpt>
<trkpt lat="48.442468" lon="2.673496"><ele></ele><time>2019-1-17T3:58:2Z</time></trkpt>
<trkpt lat="48.442408" lon="2.673642"><ele></ele><time>2019-1-17T3:58:5Z</time></trkpt>
<trkpt lat="48.442452" lon="2.673768"><ele></ele><time>2019-1-17T3:58:8Z</time></trkpt>
<trkpt lat="48.442518" lon="2.673913"><ele></ele><time>2019-1-17T3:58:11Z</time></trkpt>
<trkpt lat="48.442532" lon="2.674111"><ele></ele><time>2019-1-17T3:58:14Z</time></trkpt>
<trkpt lat="48.442504" lon="2.674264"><ele></ele><time>2019-1-17T3:58:17Z</time></trkpt>
<trkpt lat="48.442412" lon="2.674372"><ele></ele><time>2019-1-17T3:58:20Z</time></trkpt>
<trkpt lat="48.442359" lon="2.674506"><ele></ele><time>2019-1-17T3:58:23Z</time></trkpt>
<trkpt lat="48.442233" lon="2.67457"><ele></ele><time>2019-1-17T3:58:26Z</time></trkpt>
<trkpt lat="48.442162" lon="2.674727"><ele></ele><time>2019-1-17T3:58:29Z</time></trkpt>
<trkpt lat="48.442097" lon="2.67485"><ele></ele><time>2019-1-17T3:58:32Z</time></trkpt>
<trkpt lat="48.442043" lon="2.675007"><ele></ele><time>2019-1-17T3:58:35Z</time></trkpt>
<trkpt lat="48.441996" lon="2.675139"><ele></ele><time>2019-1-17T3:58:38Z</time></trkpt>
<trkpt lat="48.441871" lon="2.675217"><ele></ele><time>2019-1-17T3:58:41Z</time></trkpt>
<trkpt lat="48.441804" lon="2.675321"><ele></ele><time>2019-1-17T3:58:44Z</time></trkpt>
<trkpt lat="48.441693" lon="2.675434"><ele></ele><time>2019-1-17T3:58:47Z</time></trkpt>
<trkpt lat="48.44165" lon="2.675618"><ele></ele><time>2019-1-17T3:58:50Z</time></trkpt>
<trkpt lat="48.441614" lon="2.675851"><ele></ele><time>2019-1-17T3:58:53Z</time></trkpt>
<trkpt lat="48.44165" lon="2.676015"><ele></ele><time>2019-1-17T3:58:56Z</time></trkpt>
<trkpt lat="48.441595" lon="2.676147"><ele></ele><time>2019-1-17T3:58:59Z</time></trkpt>
<trkpt lat="48.441524" lon="2.676348"><ele></ele><time>2019-1-17T3:59:2Z</time></trkpt>
<trkpt lat="48.441429" lon="2.676479"><ele></ele><time>2019-1-17T3:59:5Z</time></trkpt>
<trkpt lat="48.441391" lon="2.676613"><ele></ele><time>2019-1-17T3:59:8Z</time></trkpt>
<trkpt lat="48.441308" lon="2.676719"><ele></ele><time>2019-1-17T3:59:11Z</time></trkpt>
<trkpt lat="48.441183" lon="2.676738"><ele></ele><time>2019-1-17T3:59:14Z</time></trkpt>
<trkpt lat="48.441057" lon="2.676771"><ele></ele><time>2019-1-17T3:59:17Z</time></trkpt>
<trkpt lat="48.440958" lon="2.676822"><ele></ele><time>2019-1-17T3:59:20Z</time></trkpt>
<trkpt lat="48.440853" lon="2.67685"><ele></ele><time>2019-1-17T3:59:23Z</time></trkpt>
<trkpt lat="48.4408" lon="2.676708"><ele></ele><time>2019-1-17T3:59:26Z</time></trkpt>
<trkpt lat="48.440738" lon="2.676609"><ele></ele><time>2019-1-17T3:59:29Z</time></trkpt>
<trkpt lat="48.440642" lon="2.676559"><ele></ele><time>2019-1-17T3:59:32Z</time></trkpt>
<trkpt lat="48.440531" lon="2.676545"><ele></ele><time>2019-1-17T3:59:35Z</time></trkpt>
<trkpt lat="48.440427" lon="2.676507"><ele></ele><time>2019-1-17T3:59:38Z</time></trkpt>
<trkpt lat="48.440335" lon="2.676461"><ele></ele><time>2019-1-17T3:59:41Z</time></trkpt>
<trkpt lat="48.440235" lon="2.676437"><ele></ele><time>2019-1-17T3:59:44Z</time></trkpt>
<trkpt lat="48.440145" lon="2.676419"><ele></ele><time>2019-1-17T3:59:47Z</time></trkpt>
<trkpt lat="48.440052" lon="2.676409"><ele></ele><time>2019-1-17T3:59:50Z</time></trkpt>
<trkpt lat="48.43993" lon="2.676445"><ele></ele><time>2019-1-17T3:59:53Z</time></trkpt>
<trkpt lat="48.43983" lon="2.676439"><ele></ele><time>2019-1-17T3:59:56Z</time></trkpt>
<trkpt lat="48.439771" lon="2.676564"><ele></ele><time>2019-1-17T3:59:59Z</time></trkpt>
<trkpt lat="48.439659" lon="2.67656"><ele></ele><time>2019-1-17T4:0:2Z</time></trkpt>
<trkpt lat="48.439528" lon="2.676533"><ele></ele><time>2019-1-17T4:0:5Z</time></trkpt>
<trkpt lat="48.439423" lon="2.676523"><ele></ele><time>2019-1-17T4:0:8Z</time></trkpt>
<trkpt lat="48.439302" lon="2.676515"><ele></ele><time>2019-1-17T4:0:11Z</time></trkpt>
<trkpt lat="48.439207" lon="2.676552"><ele></ele><time>2019-1-17T4:0:14Z</time></trkpt>
<trkpt lat="48.439163" lon="2.676732"><ele></ele><time>2019-1-17T4:0:17Z</time></trkpt>
<trkpt lat="48.439167" lon="2.676873"><ele></ele><time>2019-1-17T4:0:20Z</time></trkpt>
<trkpt lat="48.439151" lon="2.677019"><ele></ele><time>2019-1-17T4:0:23Z</time></trkpt>
<trkpt lat="48.439157" lon="2.677162"><ele></ele><time>2019-1-17T4:0:26Z</time></trkpt>
<trkpt lat="48.439177" lon="2.677357"><ele></ele><time>2019-1-17T4:0:29Z</time></trkpt>
<trkpt lat="48.439233" lon="2.677507"><ele></ele><time>2019-1-17T4:0:32Z</time></trkpt>
<trkpt lat="48.439171" lon="2.677632"><ele></ele><time>2019-1-17T4:0:35Z</time></trkpt>
<trkpt lat="48.439133" lon="2.677777"><ele></ele><time>2019-1-17T4:0:38Z</time></trkpt>
<trkpt lat="48.439138" lon="2.677949"><ele></ele><time>2019-1-17T4:0:41Z</time></trkpt>
<trkpt lat="48.439131" lon="2.678101"><ele></ele><time>2019-1-17T4:0:44Z</time></trkpt>
<trkpt lat="48.439132" lon="2.678263"><ele></ele><time>2019-1-17T4:0:47Z</time></trkpt>
<trkpt lat="48.439112" lon="2.678403"><ele></ele><time>2019-1-17T4:0:50Z</time></trkpt>
<trkpt lat="48.439079" lon="2.678589"><ele></ele><time>2019-1-17T4:0:53Z</time></trkpt>
<trkpt lat="48.439097" lon="2.678728"><ele></ele><time>2019-1-17T4:0:56Z</time></trkpt>
<trkpt lat="48.43909" lon="2.678879"><ele></ele><time>2019-1-17T4:0:59Z</time></trkpt>
<trkpt lat="48.439066" lon="2.679051"><ele></ele><time>2019-1-17T4:1:2Z</time></trkpt>
<trkpt lat="48.439042" lon="2.679239"><ele></ele><time>2019-1-17T4:1:5Z</time></trkpt>
<trkpt lat="48.439058" lon="2.679412"><ele></ele><time>2019-1-17T4:1:8Z</time></trkpt>
<trkpt lat="48.439033" lon="2.679565"><ele></ele><time>2019-1-17T4:1:11Z</time></trkpt>
<trkpt lat="48.439072" lon="2.679719"><ele></ele><time>2019-1-17T4:1:14Z</time></trkpt>
<trkpt lat="48.439119" lon="2.679854"><ele></ele><time>2019-1-17T4:1:17Z</time></trkpt>
<trkpt lat="48.439174" lon="2.680006"><ele></ele><time>2019-1-17T4:1:20Z</time></trkpt>
<trkpt lat="48.43918" lon="2.680144"><ele></ele><time>2019-1-17T4:1:23Z</time></trkpt>
<trkpt lat="48.439131" lon="2.680265"><ele></ele><time>2019-1-17T4:1:26Z</time></trkpt>
<trkpt lat="48.439132" lon="2.680513"><ele></ele><time>2019-1-17T4:1:29Z</time></trkpt>
<trkpt lat="48.439135" lon="2.680731"><ele></ele><time>2019-1-17T4:1:32Z</time></trkpt>
<trkpt lat="48.439179" lon="2.680867"><ele></ele><time>2019-1-17T4:1:35Z</time></trkpt>
<trkpt lat="48.439128" lon="2.681012"><ele></ele><time>2019-1-17T4:1:38Z</time></trkpt>
<trkpt lat="48.439063" lon="2.681121"><ele></ele><time>2019-1-17T4:1:41Z</time></trkpt>
<trkpt lat="48.439022" lon="2.681332"><ele></ele><time>2019-1-17T4:1:44Z</time></trkpt>
<trkpt lat="48.439007" lon="2.681516"><ele></ele><time>2019-1-17T4:1:47Z</time></trkpt>
<trkpt lat="48.438948" lon="2.681683"><ele></ele><time>2019-1-17T4:1:50Z</time></trkpt>
<trkpt lat="48.438928" lon="2.68187"><ele></ele><time>2019-1-17T4:1:53Z</time></trkpt>
<trkpt lat="48.438931" lon="2.682101"><ele></ele><time>2019-1-17T4:1:56Z</time></trkpt>
<trkpt lat="48.438928" lon="2.682294"><ele></ele><time>2019-1-17T4:1:59Z</time></trkpt>
<trkpt lat="48.438916" lon="2.682564"><ele></ele><time>2019-1-17T4:2:2Z</time></trkpt>
<trkpt lat="48.438941" lon="2.682698"><ele></ele><time>2019-1-17T4:2:5Z</time></trkpt>
<trkpt lat="48.438906" lon="2.682872"><ele></ele><time>2019-1-17T4:2:8Z</time></trkpt>
<trkpt lat="48.438808" lon="2.682932"><ele></ele><time>2019-1-17T4:2:11Z</time></trkpt>
<trkpt lat="48.438818" lon="2.68308"><ele></ele><time>2019-1-17T4:2:14Z</time></trkpt>
<trkpt lat="48.438797" lon="2.683229"><ele></ele><time>2019-1-17T4:2:17Z</time></trkpt>
<trkpt lat="48.438773" lon="2.683431"><ele></ele><time>2019-1-17T4:2:20Z</time></trkpt>
<trkpt lat="48.438741" lon="2.683616"><ele></ele><time>2019-1-17T4:2:23Z</time></trkpt>
<trkpt lat="48.438754" lon="2.683809"><ele></ele><time>2019-1-17T4:2:26Z</time></trkpt>
<trkpt lat="48.43872" lon="2.683935"><ele></ele><time>2019-1-17T4:2:29Z</time></trkpt>
<trkpt lat="48.43867" lon="2.684085"><ele></ele><time>2019-1-17T4:2:32Z</time></trkpt>
<trkpt lat="48.43862" lon="2.68422"><ele></ele><time>2019-1-17T4:2:35Z</time></trkpt>
<trkpt lat="48.438563" lon="2.684361"><ele></ele><time>2019-1-17T4:2:38Z</time></trkpt>
<trkpt lat="48.438543" lon="2.684529"><ele></ele><time>2019-1-17T4:2:41Z</time></trkpt>
<trkpt lat="48.438563" lon="2.684682"><ele></ele><time>2019-1-17T4:2:44Z</time></trkpt>
<trkpt lat="48.438581" lon="2.684851"><ele></ele><time>2019-1-17T4:2:47Z</time></trkpt>
<trkpt lat="48.438598" lon="2.685023"><ele></ele><time>2019-1-17T4:2:50Z</time></trkpt>
<trkpt lat="48.438608" lon="2.685159"><ele></ele><time>2019-1-17T4:2:53Z</time></trkpt>
<trkpt lat="48.438671" lon="2.685347"><ele></ele><time>2019-1-17T4:2:56Z</time></trkpt>
<trkpt lat="48.4387" lon="2.685565"><ele></ele><time>2019-1-17T4:2:59Z</time></trkpt>
<trkpt lat="48.438703" lon="2.685751"><ele></ele><time>2019-1-17T4:3:2Z</time></trkpt>
<trkpt lat="48.438708" lon="2.68594"><ele></ele><time>2019-1-17T4:3:5Z</time></trkpt>
<trkpt lat="48.438703" lon="2.686076"><ele></ele><time>2019-1-17T4:3:8Z</time></trkpt>
<trkpt lat="48.438709" lon="2.686212"><ele></ele><time>2019-1-17T4:3:11Z</time></trkpt>
<trkpt lat="48.438718" lon="2.686358"><ele></ele><time>2019-1-17T4:3:14Z</time></trkpt>
<trkpt lat="48.438754" lon="2.686547"><ele></ele><time>2019-1-17T4:3:17Z</time></trkpt>
<trkpt lat="48.438763" lon="2.686734"><ele></ele><time>2019-1-17T4:3:20Z</time></trkpt>
<trkpt lat="48.438779" lon="2.686903"><ele></ele><time>2019-1-17T4:3:23Z</time></trkpt>
<trkpt lat="48.4388" lon="2.687077"><ele></ele><time>2019-1-17T4:3:26Z</time></trkpt>
<trkpt lat="48.438813" lon="2.687216"><ele></ele><time>2019-1-17T4:3:29Z</time></trkpt>
<trkpt lat="48.438866" lon="2.687349"><ele></ele><time>2019-1-17T4:3:32Z</time></trkpt>
<trkpt lat="48.438948" lon="2.687463"><ele></ele><time>2019-1-17T4:3:35Z</time></trkpt>
<trkpt lat="48.439039" lon="2.687542"><ele></ele><time>2019-1-17T4:3:38Z</time></trkpt>
<trkpt lat="48.439102" lon="2.687648"><ele></ele><time>2019-1-17T4:3:41Z</time></trkpt>
<trkpt lat="48.439183" lon="2.687765"><ele></ele><time>2019-1-17T4:3:44Z</time></trkpt>
<trkpt lat="48.439269" lon="2.687899"><ele></ele><time>2019-1-17T4:3:47Z</time></trkpt>
<trkpt lat="48.439301" lon="2.688071"><ele></ele><time>2019-1-17T4:3:50Z</time></trkpt>
<trkpt lat="48.4393" lon="2.688234"><ele></ele><time>2019-1-17T4:3:53Z</time></trkpt>
<trkpt lat="48.439313" lon="2.68841"><ele></ele><time>2019-1-17T4:3:56Z</time></trkpt>
<trkpt lat="48.439395" lon="2.688569"><ele></ele><time>2019-1-17T4:3:59Z</time></trkpt>
<trkpt lat="48.439429" lon="2.688737"><ele></ele><time>2019-1-17T4:4:2Z</time></trkpt>
<trkpt lat="48.439396" lon="2.688914"><ele></ele><time>2019-1-17T4:4:5Z</time></trkpt>
<trkpt lat="48.439427" lon="2.689041"><ele></ele><time>2019-1-17T4:4:8Z</time></trkpt>
<trkpt lat="48.439447" lon="2.68919"><ele></ele><time>2019-1-17T4:4:11Z</time></trkpt>
<trkpt lat="48.439456" lon="2.689336"><ele></ele><time>2019-1-17T4:4:14Z</time></trkpt>
<trkpt lat="48.439427" lon="2.689485"><ele></ele><time>2019-1-17T4:4:17Z</time></trkpt>
<trkpt lat="48.439427" lon="2.689629"><ele></ele><time>2019-1-17T4:4:20Z</time></trkpt>
<trkpt lat="48.439422" lon="2.689777"><ele></ele><time>2019-1-17T4:4:23Z</time></trkpt>
<trkpt lat="48.439426" lon="2.689942"><ele></ele><time>2019-1-17T4:4:26Z</time></trkpt>
<trkpt lat="48.439507" lon="2.690091"><ele></ele><time>2019-1-17T4:4:29Z</time></trkpt>
<trkpt lat="48.439612" lon="2.690171"><ele></ele><time>2019-1-17T4:4:32Z</time></trkpt>
<trkpt lat="48.439637" lon="2.690318"><ele></ele><time>2019-1-17T4:4:35Z</time></trkpt>
<trkpt lat="48.439673" lon="2.690503"><ele></ele><time>2019-1-17T4:4:38Z</time></trkpt>
<trkpt lat="48.439734" lon="2.690608"><ele></ele><time>2019-1-17T4:4:41Z</time></trkpt>
<trkpt lat="48.43977" lon="2.690756"><ele></ele><time>2019-1-17T4:4:44Z</time></trkpt>
<trkpt lat="48.439828" lon="2.690866"><ele></ele><time>2019-1-17T4:4:47Z</time></trkpt>
<trkpt lat="48.439875" lon="2.691046"><ele></ele><time>2019-1-17T4:4:50Z</time></trkpt>
<trkpt lat="48.439963" lon="2.691193"><ele></ele><time>2019-1-17T4:4:53Z</time></trkpt>
<trkpt lat="48.440031" lon="2.691342"><ele></ele><time>2019-1-17T4:4:56Z</time></trkpt>
<trkpt lat="48.440082" lon="2.691503"><ele></ele><time>2019-1-17T4:4:59Z</time></trkpt>
<trkpt lat="48.440106" lon="2.691676"><ele></ele><time>2019-1-17T4:5:2Z</time></trkpt>
<trkpt lat="48.44016" lon="2.691795"><ele></ele><time>2019-1-17T4:5:5Z</time></trkpt>
<trkpt lat="48.440206" lon="2.691919"><ele></ele><time>2019-1-17T4:5:8Z</time></trkpt>
<trkpt lat="48.440263" lon="2.692027"><ele></ele><time>2019-1-17T4:5:11Z</time></trkpt>
<trkpt lat="48.440279" lon="2.692194"><ele></ele><time>2019-1-17T4:5:14Z</time></trkpt>
<trkpt lat="48.440273" lon="2.692375"><ele></ele><time>2019-1-17T4:5:17Z</time></trkpt>
<trkpt lat="48.440335" lon="2.692491"><ele></ele><time>2019-1-17T4:5:20Z</time></trkpt>
<trkpt lat="48.440405" lon="2.692646"><ele></ele><time>2019-1-17T4:5:23Z</time></trkpt>
<trkpt lat="48.44049" lon="2.692809"><ele></ele><time>2019-1-17T4:5:26Z</time></trkpt>
<trkpt lat="48.440528" lon="2.692964"><ele></ele><time>2019-1-17T4:5:29Z</time></trkpt>
<trkpt lat="48.440564" lon="2.69309"><ele></ele><time>2019-1-17T4:5:32Z</time></trkpt>
<trkpt lat="48.440601" lon="2.693268"><ele></ele><time>2019-1-17T4:5:35Z</time></trkpt>
<trkpt lat="48.440652" lon="2.693397"><ele></ele><time>2019-1-17T4:5:38Z</time></trkpt>
<trkpt lat="48.440676" lon="2.693533"><ele></ele><time>2019-1-17T4:5:41Z</time></trkpt>
<trkpt lat="48.44072" lon="2.693654"><ele></ele><time>2019-1-17T4:5:44Z</time></trkpt>
<trkpt lat="48.44076" lon="2.693792"><ele></ele><time>2019-1-17T4:5:47Z</time></trkpt>
<trkpt lat="48.440815" lon="2.693988"><ele></ele><time>2019-1-17T4:5:50Z</time></trkpt>
<trkpt lat="48.44087" lon="2.694112"><ele></ele><time>2019-1-17T4:5:53Z</time></trkpt>
<trkpt lat="48.440935" lon="2.694242"><ele></ele><time>2019-1-17T4:5:56Z</time></trkpt>
<trkpt lat="48.440946" lon="2.694388"><ele></ele><time>2019-1-17T4:5:59Z</time></trkpt>
<trkpt lat="48.440924" lon="2.694557"><ele></ele><time>2019-1-17T4:6:2Z</time></trkpt>
<trkpt lat="48.440888" lon="2.694762"><ele></ele><time>2019-1-17T4:6:5Z</time></trkpt>
<trkpt lat="48.44085" lon="2.69493"><ele></ele><time>2019-1-17T4:6:8Z</time></trkpt>
<trkpt lat="48.440838" lon="2.69508"><ele></ele><time>2019-1-17T4:6:11Z</time></trkpt>
<trkpt lat="48.440787" lon="2.695275"><ele></ele><time>2019-1-17T4:6:14Z</time></trkpt>
<trkpt lat="48.440777" lon="2.695413"><ele></ele><time>2019-1-17T4:6:17Z</time></trkpt>
<trkpt lat="48.440752" lon="2.695611"><ele></ele><time>2019-1-17T4:6:20Z</time></trkpt>
<trkpt lat="48.44074" lon="2.695777"><ele></ele><time>2019-1-17T4:6:23Z</time></trkpt>
<trkpt lat="48.440741" lon="2.695923"><ele></ele><time>2019-1-17T4:6:26Z</time></trkpt>
<trkpt lat="48.440707" lon="2.696064"><ele></ele><time>2019-1-17T4:6:29Z</time></trkpt>
<trkpt lat="48.440698" lon="2.696223"><ele></ele><time>2019-1-17T4:6:32Z</time></trkpt>
<trkpt lat="48.440646" lon="2.6964"><ele></ele><time>2019-1-17T4:6:35Z</time></trkpt>
<trkpt lat="48.440616" lon="2.696563"><ele></ele><time>2019-1-17T4:6:38Z</time></trkpt>
<trkpt lat="48.440619" lon="2.696737"><ele></ele><time>2019-1-17T4:6:41Z</time></trkpt>
<trkpt lat="48.440613" lon="2.696896"><ele></ele><time>2019-1-17T4:6:44Z</time></trkpt>
<trkpt lat="48.440556" lon="2.697034"><ele></ele><time>2019-1-17T4:6:47Z</time></trkpt>
<trkpt lat="48.440524" lon="2.697174"><ele></ele><time>2019-1-17T4:6:50Z</time></trkpt>
<trkpt lat="48.440492" lon="2.697358"><ele></ele><time>2019-1-17T4:6:53Z</time></trkpt>
<trkpt lat="48.440472" lon="2.697557"><ele></ele><time>2019-1-17T4:6:56Z</time></trkpt>
<trkpt lat="48.440453" lon="2.697699"><ele></ele><time>2019-1-17T4:6:59Z</time></trkpt>
<trkpt lat="48.440416" lon="2.697884"><ele></ele><time>2019-1-17T4:7:2Z</time></trkpt>
<trkpt lat="48.4404" lon="2.698021"><ele></ele><time>2019-1-17T4:7:5Z</time></trkpt>
<trkpt lat="48.440394" lon="2.698193"><ele></ele><time>2019-1-17T4:7:8Z</time></trkpt>
<trkpt lat="48.440397" lon="2.698341"><ele></ele><time>2019-1-17T4:7:11Z</time></trkpt>
<trkpt lat="48.440379" lon="2.698485"><ele></ele><time>2019-1-17T4:7:14Z</time></trkpt>
<trkpt lat="48.440334" lon="2.698613"><ele></ele><time>2019-1-17T4:7:17Z</time></trkpt>
<trkpt lat="48.440305" lon="2.698762"><ele></ele><time>2019-1-17T4:7:20Z</time></trkpt>
<trkpt lat="48.440276" lon="2.698908"><ele></ele><time>2019-1-17T4:7:23Z</time></trkpt>
<trkpt lat="48.440209" lon="2.699012"><ele></ele><time>2019-1-17T4:7:26Z</time></trkpt>
<trkpt lat="48.440175" lon="2.69916"><ele></ele><time>2019-1-17T4:7:29Z</time></trkpt>
<trkpt lat="48.440054" lon="2.699246"><ele></ele><time>2019-1-17T4:7:32Z</time></trkpt>
<trkpt lat="48.439979" lon="2.699359"><ele></ele><time>2019-1-17T4:7:35Z</time></trkpt>
<trkpt lat="48.439887" lon="2.699383"><ele></ele><time>2019-1-17T4:7:38Z</time></trkpt>
<trkpt lat="48.4398" lon="2.699453"><ele></ele><time>2019-1-17T4:7:41Z</time></trkpt>
<trkpt lat="48.4397" lon="2.699468"><ele></ele><time>2019-1-17T4:7:44Z</time></trkpt>
<trkpt lat="48.439599" lon="2.699526"><ele></ele><time>2019-1-17T4:7:47Z</time></trkpt>
<trkpt lat="48.439529" lon="2.699651"><ele></ele><time>2019-1-17T4:7:50Z</time></trkpt>
<trkpt lat="48.439449" lon="2.699726"><ele></ele><time>2019-1-17T4:7:53Z</time></trkpt>
<trkpt lat="48.439349" lon="2.699769"><ele></ele><time>2019-1-17T4:7:56Z</time></trkpt>
<trkpt lat="48.43926" lon="2.699854"><ele></ele><time>2019-1-17T4:7:59Z</time></trkpt>
<trkpt lat="48.439171" lon="2.699902"><ele></ele><time>2019-1-17T4:8:2Z</time></trkpt>
<trkpt lat="48.439164" lon="2.700065"><ele></ele><time>2019-1-17T4:8:5Z</time></trkpt>
<trkpt lat="48.439127" lon="2.700191"><ele></ele><time>2019-1-17T4:8:8Z</time></trkpt>
<trkpt lat="48.439063" lon="2.700288"><ele></ele><time>2019-1-17T4:8:11Z</time></trkpt>
<trkpt lat="48.438979" lon="2.700349"><ele></ele><time>2019-1-17T4:8:14Z</time></trkpt>
<trkpt lat="48.438883" lon="2.70036"><ele></ele><time>2019-1-17T4:8:17Z</time></trkpt>
<trkpt lat="48.43879" lon="2.70036"><ele></ele><time>2019-1-17T4:8:20Z</time></trkpt>
<trkpt lat="48.438707" lon="2.700292"><ele></ele><time>2019-1-17T4:8:23Z</time></trkpt>
<trkpt lat="48.438717" lon="2.700152"><ele></ele><time>2019-1-17T4:8:26Z</time></trkpt>
<trkpt lat="48.438612" lon="2.700107"><ele></ele><time>2019-1-17T4:8:29Z</time></trkpt>
<trkpt lat="48.438515" lon="2.700116"><ele></ele><time>2019-1-17T4:8:32Z</time></trkpt>
<trkpt lat="48.438434" lon="2.700175"><ele></ele><time>2019-1-17T4:8:35Z</time></trkpt>
<trkpt lat="48.438392" lon="2.700298"><ele></ele><time>2019-1-17T4:8:38Z</time></trkpt>
<trkpt lat="48.438347" lon="2.700423"><ele></ele><time>2019-1-17T4:8:41Z</time></trkpt>
<trkpt lat="48.438257" lon="2.700492"><ele></ele><time>2019-1-17T4:8:44Z</time></trkpt>
<trkpt lat="48.438151" lon="2.700483"><ele></ele><time>2019-1-17T4:8:47Z</time></trkpt>
<trkpt lat="48.438078" lon="2.700598"><ele></ele><time>2019-1-17T4:8:50Z</time></trkpt>
<trkpt lat="48.438059" lon="2.700745"><ele></ele><time>2019-1-17T4:8:53Z</time></trkpt>
<trkpt lat="48.438028" lon="2.700878"><ele></ele><time>2019-1-17T4:8:56Z</time></trkpt>
<trkpt lat="48.438051" lon="2.701028"><ele></ele><time>2019-1-17T4:8:59Z</time></trkpt>
<trkpt lat="48.438014" lon="2.701171"><ele></ele><time>2019-1-17T4:9:2Z</time></trkpt>
<trkpt lat="48.437927" lon="2.701268"><ele></ele><time>2019-1-17T4:9:5Z</time></trkpt>
<trkpt lat="48.437848" lon="2.701374"><ele></ele><time>2019-1-17T4:9:8Z</time></trkpt>
<trkpt lat="48.437821" lon="2.701512"><ele></ele><time>2019-1-17T4:9:11Z</time></trkpt>
<trkpt lat="48.437832" lon="2.701657"><ele></ele><time>2019-1-17T4:9:14Z</time></trkpt>
<trkpt lat="48.437801" lon="2.701796"><ele></ele><time>2019-1-17T4:9:17Z</time></trkpt>
<trkpt lat="48.437679" lon="2.701821"><ele></ele><time>2019-1-17T4:9:20Z</time></trkpt>
<trkpt lat="48.437577" lon="2.701839"><ele></ele><time>2019-1-17T4:9:23Z</time></trkpt>
<trkpt lat="48.437507" lon="2.701751"><ele></ele><time>2019-1-17T4:9:26Z</time></trkpt>
<trkpt lat="48.437411" lon="2.70164"><ele></ele><time>2019-1-17T4:9:29Z</time></trkpt>
<trkpt lat="48.437436" lon="2.701479"><ele></ele><time>2019-1-17T4:9:32Z</time></trkpt>
<trkpt lat="48.437494" lon="2.701354"><ele></ele><time>2019-1-17T4:9:35Z</time></trkpt>
<trkpt lat="48.437522" lon="2.701204"><ele></ele><time>2019-1-17T4:9:38Z</time></trkpt>
<trkpt lat="48.437556" lon="2.701047"><ele></ele><time>2019-1-17T4:9:41Z</time></trkpt>
<trkpt lat="48.437635" lon="2.700965"><ele></ele><time>2019-1-17T4:9:44Z</time></trkpt>
<trkpt lat="48.437561" lon="2.700854"><ele></ele><time>2019-1-17T4:9:47Z</time></trkpt>
<trkpt lat="48.437535" lon="2.700707"><ele></ele><time>2019-1-17T4:9:50Z</time></trkpt>
<trkpt lat="48.437489" lon="2.700564"><ele></ele><time>2019-1-17T4:9:53Z</time></trkpt>
<trkpt lat="48.437559" lon="2.700467"><ele></ele><time>2019-1-17T4:9:56Z</time></trkpt>
<trkpt lat="48.437541" lon="2.70033"><ele></ele><time>2019-1-17T4:9:59Z</time></trkpt>
<trkpt lat="48.437568" lon="2.700186"><ele></ele><time>2019-1-17T4:10:2Z</time></trkpt>
<trkpt lat="48.437536" lon="2.700313"><ele></ele><time>2019-1-17T4:10:5Z</time></trkpt>
<trkpt lat="48.437448" lon="2.700438"><ele></ele><time>2019-1-17T4:10:8Z</time></trkpt>
<trkpt lat="48.437433" lon="2.700584"><ele></ele><time>2019-1-17T4:10:11Z</time></trkpt>
<trkpt lat="48.437343" lon="2.700659"><ele></ele><time>2019-1-17T4:10:14Z</time></trkpt>
<trkpt lat="48.437372" lon="2.700796"><ele></ele><time>2019-1-17T4:10:17Z</time></trkpt>
<trkpt lat="48.437396" lon="2.700932"><ele></ele><time>2019-1-17T4:10:20Z</time></trkpt>
<trkpt lat="48.437487" lon="2.700993"><ele></ele><time>2019-1-17T4:10:23Z</time></trkpt>
<trkpt lat="48.437473" lon="2.701008"><ele></ele><time>2019-1-17T4:10:26Z</time></trkpt>
<trkpt lat="48.427168" lon="2.707475"><ele></ele><time>2019-1-17T4:10:29Z</time></trkpt>
<trkpt lat="48.426998" lon="2.707495"><ele></ele><time>2019-1-17T4:10:32Z</time></trkpt>
<trkpt lat="48.427005" lon="2.707631"><ele></ele><time>2019-1-17T4:10:35Z</time></trkpt>
<trkpt lat="48.426913" lon="2.707634"><ele></ele><time>2019-1-17T4:10:38Z</time></trkpt>
<trkpt lat="48.426828" lon="2.70771"><ele></ele><time>2019-1-17T4:10:41Z</time></trkpt>
<trkpt lat="48.426727" lon="2.707784"><ele></ele><time>2019-1-17T4:10:44Z</time></trkpt>
<trkpt lat="48.426609" lon="2.707797"><ele></ele><time>2019-1-17T4:10:47Z</time></trkpt>
<trkpt lat="48.426497" lon="2.707812"><ele></ele><time>2019-1-17T4:10:50Z</time></trkpt>
<trkpt lat="48.426384" lon="2.707862"><ele></ele><time>2019-1-17T4:10:53Z</time></trkpt>
<trkpt lat="48.42629" lon="2.707893"><ele></ele><time>2019-1-17T4:10:56Z</time></trkpt>
<trkpt lat="48.426189" lon="2.707938"><ele></ele><time>2019-1-17T4:10:59Z</time></trkpt>
<trkpt lat="48.426066" lon="2.707999"><ele></ele><time>2019-1-17T4:11:2Z</time></trkpt>
<trkpt lat="48.425968" lon="2.708056"><ele></ele><time>2019-1-17T4:11:5Z</time></trkpt>
<trkpt lat="48.425892" lon="2.708134"><ele></ele><time>2019-1-17T4:11:8Z</time></trkpt>
<trkpt lat="48.425814" lon="2.708219"><ele></ele><time>2019-1-17T4:11:11Z</time></trkpt>
<trkpt lat="48.425701" lon="2.708286"><ele></ele><time>2019-1-17T4:11:14Z</time></trkpt>
<trkpt lat="48.425593" lon="2.708377"><ele></ele><time>2019-1-17T4:11:17Z</time></trkpt>
<trkpt lat="48.42549" lon="2.708461"><ele></ele><time>2019-1-17T4:11:20Z</time></trkpt>
<trkpt lat="48.425383" lon="2.708542"><ele></ele><time>2019-1-17T4:11:23Z</time></trkpt>
<trkpt lat="48.425273" lon="2.708659"><ele></ele><time>2019-1-17T4:11:26Z</time></trkpt>
<trkpt lat="48.425216" lon="2.708805"><ele></ele><time>2019-1-17T4:11:29Z</time></trkpt>
<trkpt lat="48.425188" lon="2.709006"><ele></ele><time>2019-1-17T4:11:32Z</time></trkpt>
<trkpt lat="48.425165" lon="2.709167"><ele></ele><time>2019-1-17T4:11:35Z</time></trkpt>
<trkpt lat="48.425145" lon="2.709305"><ele></ele><time>2019-1-17T4:11:38Z</time></trkpt>
<trkpt lat="48.425068" lon="2.709167"><ele></ele><time>2019-1-17T4:11:41Z</time></trkpt>
<trkpt lat="48.425009" lon="2.709042"><ele></ele><time>2019-1-17T4:11:44Z</time></trkpt>
<trkpt lat="48.424975" lon="2.708909"><ele></ele><time>2019-1-17T4:11:47Z</time></trkpt>
<trkpt lat="48.424886" lon="2.708816"><ele></ele><time>2019-1-17T4:11:50Z</time></trkpt>
<trkpt lat="48.424785" lon="2.70874"><ele></ele><time>2019-1-17T4:11:53Z</time></trkpt>
<trkpt lat="48.424679" lon="2.708674"><ele></ele><time>2019-1-17T4:11:56Z</time></trkpt>
<trkpt lat="48.424577" lon="2.708568"><ele></ele><time>2019-1-17T4:11:59Z</time></trkpt>
<trkpt lat="48.424497" lon="2.708494"><ele></ele><time>2019-1-17T4:12:2Z</time></trkpt>
<trkpt lat="48.42438" lon="2.708345"><ele></ele><time>2019-1-17T4:12:5Z</time></trkpt>
<trkpt lat="48.42428" lon="2.708239"><ele></ele><time>2019-1-17T4:12:8Z</time></trkpt>
<trkpt lat="48.424161" lon="2.708142"><ele></ele><time>2019-1-17T4:12:11Z</time></trkpt>
<trkpt lat="48.424077" lon="2.708038"><ele></ele><time>2019-1-17T4:12:14Z</time></trkpt>
<trkpt lat="48.423975" lon="2.707929"><ele></ele><time>2019-1-17T4:12:17Z</time></trkpt>
<trkpt lat="48.423929" lon="2.707789"><ele></ele><time>2019-1-17T4:12:20Z</time></trkpt>
<trkpt lat="48.423854" lon="2.70765"><ele></ele><time>2019-1-17T4:12:23Z</time></trkpt>
<trkpt lat="48.423781" lon="2.707495"><ele></ele><time>2019-1-17T4:12:26Z</time></trkpt>
<trkpt lat="48.423722" lon="2.707361"><ele></ele><time>2019-1-17T4:12:29Z</time></trkpt>
<trkpt lat="48.423759" lon="2.707223"><ele></ele><time>2019-1-17T4:12:32Z</time></trkpt>
<trkpt lat="48.423779" lon="2.707085"><ele></ele><time>2019-1-17T4:12:35Z</time></trkpt>
<trkpt lat="48.423682" lon="2.707136"><ele></ele><time>2019-1-17T4:12:38Z</time></trkpt>
<trkpt lat="48.423584" lon="2.707146"><ele></ele><time>2019-1-17T4:12:41Z</time></trkpt>
<trkpt lat="48.423479" lon="2.707131"><ele></ele><time>2019-1-17T4:12:44Z</time></trkpt>
<trkpt lat="48.423363" lon="2.707092"><ele></ele><time>2019-1-17T4:12:47Z</time></trkpt>
<trkpt lat="48.423277" lon="2.707052"><ele></ele><time>2019-1-17T4:12:50Z</time></trkpt>
<trkpt lat="48.423184" lon="2.707009"><ele></ele><time>2019-1-17T4:12:53Z</time></trkpt>
<trkpt lat="48.423061" lon="2.70699"><ele></ele><time>2019-1-17T4:12:56Z</time></trkpt>
<trkpt lat="48.422928" lon="2.706961"><ele></ele><time>2019-1-17T4:12:59Z</time></trkpt>
<trkpt lat="48.422842" lon="2.706899"><ele></ele><time>2019-1-17T4:13:2Z</time></trkpt>
<trkpt lat="48.422755" lon="2.706834"><ele></ele><time>2019-1-17T4:13:5Z</time></trkpt>
<trkpt lat="48.422646" lon="2.70679"><ele></ele><time>2019-1-17T4:13:8Z</time></trkpt>
<trkpt lat="48.422591" lon="2.706646"><ele></ele><time>2019-1-17T4:13:11Z</time></trkpt>
<trkpt lat="48.422494" lon="2.706524"><ele></ele><time>2019-1-17T4:13:14Z</time></trkpt>
<trkpt lat="48.422396" lon="2.70645"><ele></ele><time>2019-1-17T4:13:17Z</time></trkpt>
<trkpt lat="48.422302" lon="2.706375"><ele></ele><time>2019-1-17T4:13:20Z</time></trkpt>
<trkpt lat="48.422215" lon="2.706261"><ele></ele><time>2019-1-17T4:13:23Z</time></trkpt>
<trkpt lat="48.42215" lon="2.706166"><ele></ele><time>2019-1-17T4:13:26Z</time></trkpt>
<trkpt lat="48.422081" lon="2.706044"><ele></ele><time>2019-1-17T4:13:29Z</time></trkpt>
<trkpt lat="48.422" lon="2.705937"><ele></ele><time>2019-1-17T4:13:32Z</time></trkpt>
<trkpt lat="48.421927" lon="2.705856"><ele></ele><time>2019-1-17T4:13:35Z</time></trkpt>
<trkpt lat="48.421843" lon="2.705788"><ele></ele><time>2019-1-17T4:13:38Z</time></trkpt>
<trkpt lat="48.421761" lon="2.70567"><ele></ele><time>2019-1-17T4:13:41Z</time></trkpt>
<trkpt lat="48.42167" lon="2.705559"><ele></ele><time>2019-1-17T4:13:44Z</time></trkpt>
<trkpt lat="48.421613" lon="2.705449"><ele></ele><time>2019-1-17T4:13:47Z</time></trkpt>
<trkpt lat="48.421523" lon="2.70534"><ele></ele><time>2019-1-17T4:13:50Z</time></trkpt>
<trkpt lat="48.421428" lon="2.705245"><ele></ele><time>2019-1-17T4:13:53Z</time></trkpt>
<trkpt lat="48.421321" lon="2.70527"><ele></ele><time>2019-1-17T4:13:56Z</time></trkpt>
<trkpt lat="48.421268" lon="2.705158"><ele></ele><time>2019-1-17T4:13:59Z</time></trkpt>
<trkpt lat="48.421308" lon="2.705029"><ele></ele><time>2019-1-17T4:14:2Z</time></trkpt>
<trkpt lat="48.4214" lon="2.70492"><ele></ele><time>2019-1-17T4:14:5Z</time></trkpt>
<trkpt lat="48.421455" lon="2.704808"><ele></ele><time>2019-1-17T4:14:8Z</time></trkpt>
<trkpt lat="48.421509" lon="2.704671"><ele></ele><time>2019-1-17T4:14:11Z</time></trkpt>
<trkpt lat="48.421613" lon="2.704615"><ele></ele><time>2019-1-17T4:14:14Z</time></trkpt>
<trkpt lat="48.421631" lon="2.704465"><ele></ele><time>2019-1-17T4:14:17Z</time></trkpt>
<trkpt lat="48.421631" lon="2.704316"><ele></ele><time>2019-1-17T4:14:20Z</time></trkpt>
<trkpt lat="48.421665" lon="2.704443"><ele></ele><time>2019-1-17T4:14:23Z</time></trkpt>
<trkpt lat="48.421656" lon="2.704587"><ele></ele><time>2019-1-17T4:14:26Z</time></trkpt>
<trkpt lat="48.421723" lon="2.704686"><ele></ele><time>2019-1-17T4:14:29Z</time></trkpt>
<trkpt lat="48.421771" lon="2.704545"><ele></ele><time>2019-1-17T4:14:32Z</time></trkpt>
<trkpt lat="48.421794" lon="2.704405"><ele></ele><time>2019-1-17T4:14:35Z</time></trkpt>
<trkpt lat="48.42186" lon="2.704294"><ele></ele><time>2019-1-17T4:14:38Z</time></trkpt>
<trkpt lat="48.421925" lon="2.704153"><ele></ele><time>2019-1-17T4:14:41Z</time></trkpt>
<trkpt lat="48.421975" lon="2.704038"><ele></ele><time>2019-1-17T4:14:44Z</time></trkpt>
<trkpt lat="48.422027" lon="2.703914"><ele></ele><time>2019-1-17T4:14:47Z</time></trkpt>
<trkpt lat="48.422107" lon="2.703739"><ele></ele><time>2019-1-17T4:14:50Z</time></trkpt>
<trkpt lat="48.422131" lon="2.703604"><ele></ele><time>2019-1-17T4:14:53Z</time></trkpt>
<trkpt lat="48.422114" lon="2.703439"><ele></ele><time>2019-1-17T4:14:56Z</time></trkpt>
<trkpt lat="48.422066" lon="2.703302"><ele></ele><time>2019-1-17T4:14:59Z</time></trkpt>
<trkpt lat="48.421992" lon="2.703209"><ele></ele><time>2019-1-17T4:15:2Z</time></trkpt>
<trkpt lat="48.421993" lon="2.703032"><ele></ele><time>2019-1-17T4:15:5Z</time></trkpt>
<trkpt lat="48.421918" lon="2.702949"><ele></ele><time>2019-1-17T4:15:8Z</time></trkpt>
<trkpt lat="48.421832" lon="2.702904"><ele></ele><time>2019-1-17T4:15:11Z</time></trkpt>
<trkpt lat="48.421773" lon="2.70279"><ele></ele><time>2019-1-17T4:15:14Z</time></trkpt>
<trkpt lat="48.421712" lon="2.702673"><ele></ele><time>2019-1-17T4:15:17Z</time></trkpt>
<trkpt lat="48.421773" lon="2.702565"><ele></ele><time>2019-1-17T4:15:20Z</time></trkpt>
<trkpt lat="48.421833" lon="2.702446"><ele></ele><time>2019-1-17T4:15:23Z</time></trkpt>
<trkpt lat="48.421883" lon="2.702564"><ele></ele><time>2019-1-17T4:15:26Z</time></trkpt>
<trkpt lat="48.421974" lon="2.702614"><ele></ele><time>2019-1-17T4:15:29Z</time></trkpt>
<trkpt lat="48.422067" lon="2.702565"><ele></ele><time>2019-1-17T4:15:32Z</time></trkpt>
<trkpt lat="48.422165" lon="2.702487"><ele></ele><time>2019-1-17T4:15:35Z</time></trkpt>
<trkpt lat="48.422256" lon="2.702483"><ele></ele><time>2019-1-17T4:15:38Z</time></trkpt>
<trkpt lat="48.422374" lon="2.702559"><ele></ele><time>2019-1-17T4:15:41Z</time></trkpt>
<trkpt lat="48.42244" lon="2.70268"><ele></ele><time>2019-1-17T4:15:44Z</time></trkpt>
<trkpt lat="48.422545" lon="2.702784"><ele></ele><time>2019-1-17T4:15:47Z</time></trkpt>
<trkpt lat="48.422652" lon="2.702903"><ele></ele><time>2019-1-17T4:15:50Z</time></trkpt>
<trkpt lat="48.422701" lon="2.703069"><ele></ele><time>2019-1-17T4:15:53Z</time></trkpt>
<trkpt lat="48.42275" lon="2.703212"><ele></ele><time>2019-1-17T4:15:56Z</time></trkpt>
<trkpt lat="48.422705" lon="2.703337"><ele></ele><time>2019-1-17T4:15:59Z</time></trkpt>
<trkpt lat="48.422696" lon="2.703496"><ele></ele><time>2019-1-17T4:16:2Z</time></trkpt>
<trkpt lat="48.422758" lon="2.703631"><ele></ele><time>2019-1-17T4:16:5Z</time></trkpt>
<trkpt lat="48.422835" lon="2.703758"><ele></ele><time>2019-1-17T4:16:8Z</time></trkpt>
<trkpt lat="48.422918" lon="2.703824"><ele></ele><time>2019-1-17T4:16:11Z</time></trkpt>
<trkpt lat="48.423015" lon="2.703792"><ele></ele><time>2019-1-17T4:16:14Z</time></trkpt>
<trkpt lat="48.423117" lon="2.703722"><ele></ele><time>2019-1-17T4:16:17Z</time></trkpt>
<trkpt lat="48.423189" lon="2.703602"><ele></ele><time>2019-1-17T4:16:20Z</time></trkpt>
<trkpt lat="48.423152" lon="2.703473"><ele></ele><time>2019-1-17T4:16:23Z</time></trkpt>
<trkpt lat="48.423155" lon="2.703323"><ele></ele><time>2019-1-17T4:16:26Z</time></trkpt>
<trkpt lat="48.423156" lon="2.703148"><ele></ele><time>2019-1-17T4:16:29Z</time></trkpt>
<trkpt lat="48.423063" lon="2.703091"><ele></ele><time>2019-1-17T4:16:32Z</time></trkpt>
<trkpt lat="48.423126" lon="2.702955"><ele></ele><time>2019-1-17T4:16:35Z</time></trkpt>
<trkpt lat="48.423184" lon="2.702823"><ele></ele><time>2019-1-17T4:16:38Z</time></trkpt>
<trkpt lat="48.423206" lon="2.702648"><ele></ele><time>2019-1-17T4:16:41Z</time></trkpt>
<trkpt lat="48.42324" lon="2.702509"><ele></ele><time>2019-1-17T4:16:44Z</time></trkpt>
<trkpt lat="48.42328" lon="2.702362"><ele></ele><time>2019-1-17T4:16:47Z</time></trkpt>
<trkpt lat="48.423292" lon="2.702223"><ele></ele><time>2019-1-17T4:16:50Z</time></trkpt>
<trkpt lat="48.42325" lon="2.702073"><ele></ele><time>2019-1-17T4:16:53Z</time></trkpt>
<trkpt lat="48.423169" lon="2.701976"><ele></ele><time>2019-1-17T4:16:56Z</time></trkpt>
<trkpt lat="48.423103" lon="2.701849"><ele></ele><time>2019-1-17T4:16:59Z</time></trkpt>
<trkpt lat="48.423174" lon="2.701761"><ele></ele><time>2019-1-17T4:17:2Z</time></trkpt>
<trkpt lat="48.423172" lon="2.701622"><ele></ele><time>2019-1-17T4:17:5Z</time></trkpt>
<trkpt lat="48.423109" lon="2.701523"><ele></ele><time>2019-1-17T4:17:8Z</time></trkpt>
<trkpt lat="48.423099" lon="2.701381"><ele></ele><time>2019-1-17T4:17:11Z</time></trkpt>
<trkpt lat="48.423194" lon="2.701423"><ele></ele><time>2019-1-17T4:17:14Z</time></trkpt>
<trkpt lat="48.423287" lon="2.701471"><ele></ele><time>2019-1-17T4:17:17Z</time></trkpt>
<trkpt lat="48.42316" lon="2.701563"><ele></ele><time>2019-1-17T4:17:20Z</time></trkpt>
<trkpt lat="48.423066" lon="2.701597"><ele></ele><time>2019-1-17T4:17:23Z</time></trkpt>
<trkpt lat="48.42296" lon="2.701653"><ele></ele><time>2019-1-17T4:17:26Z</time></trkpt>
<trkpt lat="48.423061" lon="2.701679"><ele></ele><time>2019-1-17T4:17:29Z</time></trkpt>
<trkpt lat="48.42317" lon="2.701598"><ele></ele><time>2019-1-17T4:17:32Z</time></trkpt>
<trkpt lat="48.423245" lon="2.701479"><ele></ele><time>2019-1-17T4:17:35Z</time></trkpt>
<trkpt lat="48.423303" lon="2.701373"><ele></ele><time>2019-1-17T4:17:38Z</time></trkpt>
<trkpt lat="48.42335" lon="2.701251"><ele></ele><time>2019-1-17T4:17:41Z</time></trkpt>
<trkpt lat="48.423428" lon="2.701323"><ele></ele><time>2019-1-17T4:17:44Z</time></trkpt>
<trkpt lat="48.423446" lon="2.701481"><ele></ele><time>2019-1-17T4:17:47Z</time></trkpt>
<trkpt lat="48.423528" lon="2.701569"><ele></ele><time>2019-1-17T4:17:50Z</time></trkpt>
<trkpt lat="48.423616" lon="2.701599"><ele></ele><time>2019-1-17T4:17:53Z</time></trkpt>
<trkpt lat="48.423706" lon="2.701631"><ele></ele><time>2019-1-17T4:17:56Z</time></trkpt>
<trkpt lat="48.423788" lon="2.701558"><ele></ele><time>2019-1-17T4:17:59Z</time></trkpt>
<trkpt lat="48.423878" lon="2.701558"><ele></ele><time>2019-1-17T4:18:2Z</time></trkpt>
<trkpt lat="48.42397" lon="2.701551"><ele></ele><time>2019-1-17T4:18:5Z</time></trkpt>
<trkpt lat="48.424035" lon="2.701458"><ele></ele><time>2019-1-17T4:18:8Z</time></trkpt>
<trkpt lat="48.424076" lon="2.701324"><ele></ele><time>2019-1-17T4:18:11Z</time></trkpt>
<trkpt lat="48.424104" lon="2.70117"><ele></ele><time>2019-1-17T4:18:14Z</time></trkpt>
<trkpt lat="48.424124" lon="2.701026"><ele></ele><time>2019-1-17T4:18:17Z</time></trkpt>
<trkpt lat="48.424124" lon="2.700881"><ele></ele><time>2019-1-17T4:18:20Z</time></trkpt>
<trkpt lat="48.424177" lon="2.700759"><ele></ele><time>2019-1-17T4:18:23Z</time></trkpt>
<trkpt lat="48.424152" lon="2.70062"><ele></ele><time>2019-1-17T4:18:26Z</time></trkpt>
<trkpt lat="48.424126" lon="2.700487"><ele></ele><time>2019-1-17T4:18:29Z</time></trkpt>
<trkpt lat="48.424055" lon="2.700323"><ele></ele><time>2019-1-17T4:18:32Z</time></trkpt>
<trkpt lat="48.423983" lon="2.700193"><ele></ele><time>2019-1-17T4:18:35Z</time></trkpt>
<trkpt lat="48.423937" lon="2.700049"><ele></ele><time>2019-1-17T4:18:38Z</time></trkpt>
<trkpt lat="48.423845" lon="2.700016"><ele></ele><time>2019-1-17T4:18:41Z</time></trkpt>
<trkpt lat="48.423769" lon="2.699924"><ele></ele><time>2019-1-17T4:18:44Z</time></trkpt>
<trkpt lat="48.423698" lon="2.699804"><ele></ele><time>2019-1-17T4:18:47Z</time></trkpt>
<trkpt lat="48.42363" lon="2.699697"><ele></ele><time>2019-1-17T4:18:50Z</time></trkpt>
<trkpt lat="48.423574" lon="2.69957"><ele></ele><time>2019-1-17T4:18:53Z</time></trkpt>
<trkpt lat="48.423504" lon="2.699399"><ele></ele><time>2019-1-17T4:18:56Z</time></trkpt>
<trkpt lat="48.423418" lon="2.69926"><ele></ele><time>2019-1-17T4:18:59Z</time></trkpt>
<trkpt lat="48.423357" lon="2.699136"><ele></ele><time>2019-1-17T4:19:2Z</time></trkpt>
<trkpt lat="48.423256" lon="2.699052"><ele></ele><time>2019-1-17T4:19:5Z</time></trkpt>
<trkpt lat="48.423184" lon="2.698951"><ele></ele><time>2019-1-17T4:19:8Z</time></trkpt>
<trkpt lat="48.423094" lon="2.698839"><ele></ele><time>2019-1-17T4:19:11Z</time></trkpt>
<trkpt lat="48.42303" lon="2.698704"><ele></ele><time>2019-1-17T4:19:14Z</time></trkpt>
<trkpt lat="48.422988" lon="2.698549"><ele></ele><time>2019-1-17T4:19:17Z</time></trkpt>
<trkpt lat="48.4229" lon="2.69845"><ele></ele><time>2019-1-17T4:19:20Z</time></trkpt>
<trkpt lat="48.42281" lon="2.698383"><ele></ele><time>2019-1-17T4:19:23Z</time></trkpt>
<trkpt lat="48.42291" lon="2.698451"><ele></ele><time>2019-1-17T4:19:26Z</time></trkpt>
<trkpt lat="48.422983" lon="2.69855"><ele></ele><time>2019-1-17T4:19:29Z</time></trkpt>
<trkpt lat="48.423074" lon="2.6986"><ele></ele><time>2019-1-17T4:19:32Z</time></trkpt>
<trkpt lat="48.423178" lon="2.698623"><ele></ele><time>2019-1-17T4:19:35Z</time></trkpt>
<trkpt lat="48.423266" lon="2.698673"><ele></ele><time>2019-1-17T4:19:38Z</time></trkpt>
<trkpt lat="48.423368" lon="2.698673"><ele></ele><time>2019-1-17T4:19:41Z</time></trkpt>
<trkpt lat="48.423495" lon="2.698666"><ele></ele><time>2019-1-17T4:19:44Z</time></trkpt>
<trkpt lat="48.423619" lon="2.698612"><ele></ele><time>2019-1-17T4:19:47Z</time></trkpt>
<trkpt lat="48.42371" lon="2.698599"><ele></ele><time>2019-1-17T4:19:50Z</time></trkpt>
<trkpt lat="48.423799" lon="2.698531"><ele></ele><time>2019-1-17T4:19:53Z</time></trkpt>
<trkpt lat="48.423908" lon="2.698548"><ele></ele><time>2019-1-17T4:19:56Z</time></trkpt>
<trkpt lat="48.423998" lon="2.698529"><ele></ele><time>2019-1-17T4:19:59Z</time></trkpt>
<trkpt lat="48.424099" lon="2.698509"><ele></ele><time>2019-1-17T4:20:2Z</time></trkpt>
<trkpt lat="48.424233" lon="2.698462"><ele></ele><time>2019-1-17T4:20:5Z</time></trkpt>
<trkpt lat="48.424283" lon="2.698304"><ele></ele><time>2019-1-17T4:20:8Z</time></trkpt>
<trkpt lat="48.424356" lon="2.698211"><ele></ele><time>2019-1-17T4:20:11Z</time></trkpt>
<trkpt lat="48.42442" lon="2.698051"><ele></ele><time>2019-1-17T4:20:14Z</time></trkpt>
<trkpt lat="48.424482" lon="2.69787"><ele></ele><time>2019-1-17T4:20:17Z</time></trkpt>
<trkpt lat="48.424543" lon="2.697754"><ele></ele><time>2019-1-17T4:20:20Z</time></trkpt>
<trkpt lat="48.424568" lon="2.697613"><ele></ele><time>2019-1-17T4:20:23Z</time></trkpt>
<trkpt lat="48.42465" lon="2.697456"><ele></ele><time>2019-1-17T4:20:26Z</time></trkpt>
<trkpt lat="48.424677" lon="2.697261"><ele></ele><time>2019-1-17T4:20:29Z</time></trkpt>
<trkpt lat="48.424699" lon="2.697118"><ele></ele><time>2019-1-17T4:20:32Z</time></trkpt>
<trkpt lat="48.424717" lon="2.696961"><ele></ele><time>2019-1-17T4:20:35Z</time></trkpt>
<trkpt lat="48.424712" lon="2.69681"><ele></ele><time>2019-1-17T4:20:38Z</time></trkpt>
<trkpt lat="48.424656" lon="2.696649"><ele></ele><time>2019-1-17T4:20:41Z</time></trkpt>
<trkpt lat="48.424646" lon="2.696511"><ele></ele><time>2019-1-17T4:20:44Z</time></trkpt>
<trkpt lat="48.424672" lon="2.696367"><ele></ele><time>2019-1-17T4:20:47Z</time></trkpt>
<trkpt lat="48.424694" lon="2.696204"><ele></ele><time>2019-1-17T4:20:50Z</time></trkpt>
<trkpt lat="48.424693" lon="2.696062"><ele></ele><time>2019-1-17T4:20:53Z</time></trkpt>
<trkpt lat="48.424728" lon="2.695894"><ele></ele><time>2019-1-17T4:20:56Z</time></trkpt>
<trkpt lat="48.424731" lon="2.695742"><ele></ele><time>2019-1-17T4:20:59Z</time></trkpt>
<trkpt lat="48.424726" lon="2.695566"><ele></ele><time>2019-1-17T4:21:2Z</time></trkpt>
<trkpt lat="48.424749" lon="2.695424"><ele></ele><time>2019-1-17T4:21:5Z</time></trkpt>
<trkpt lat="48.424739" lon="2.695247"><ele></ele><time>2019-1-17T4:21:8Z</time></trkpt>
<trkpt lat="48.424745" lon="2.695111"><ele></ele><time>2019-1-17T4:21:11Z</time></trkpt>
<trkpt lat="48.424748" lon="2.694934"><ele></ele><time>2019-1-17T4:21:14Z</time></trkpt>
<trkpt lat="48.424743" lon="2.694789"><ele></ele><time>2019-1-17T4:21:17Z</time></trkpt>
<trkpt lat="48.424741" lon="2.694644"><ele></ele><time>2019-1-17T4:21:20Z</time></trkpt>
<trkpt lat="48.424737" lon="2.694484"><ele></ele><time>2019-1-17T4:21:23Z</time></trkpt>
<trkpt lat="48.424753" lon="2.694327"><ele></ele><time>2019-1-17T4:21:26Z</time></trkpt>
<trkpt lat="48.424695" lon="2.694224"><ele></ele><time>2019-1-17T4:21:29Z</time></trkpt>
<trkpt lat="48.424629" lon="2.694113"><ele></ele><time>2019-1-17T4:21:32Z</time></trkpt>
<trkpt lat="48.424547" lon="2.69404"><ele></ele><time>2019-1-17T4:21:35Z</time></trkpt>
<trkpt lat="48.424462" lon="2.693985"><ele></ele><time>2019-1-17T4:21:38Z</time></trkpt>
<trkpt lat="48.424349" lon="2.693938"><ele></ele><time>2019-1-17T4:21:41Z</time></trkpt>
<trkpt lat="48.424269" lon="2.693846"><ele></ele><time>2019-1-17T4:21:44Z</time></trkpt>
<trkpt lat="48.424176" lon="2.69383"><ele></ele><time>2019-1-17T4:21:47Z</time></trkpt>
<trkpt lat="48.424069" lon="2.693766"><ele></ele><time>2019-1-17T4:21:50Z</time></trkpt>
<trkpt lat="48.423979" lon="2.693657"><ele></ele><time>2019-1-17T4:21:53Z</time></trkpt>
<trkpt lat="48.42387" lon="2.693571"><ele></ele><time>2019-1-17T4:21:56Z</time></trkpt>
<trkpt lat="48.42379" lon="2.693497"><ele></ele><time>2019-1-17T4:21:59Z</time></trkpt>
<trkpt lat="48.423676" lon="2.693444"><ele></ele><time>2019-1-17T4:22:2Z</time></trkpt>
<trkpt lat="48.423593" lon="2.693336"><ele></ele><time>2019-1-17T4:22:5Z</time></trkpt>
<trkpt lat="48.423471" lon="2.693278"><ele></ele><time>2019-1-17T4:22:8Z</time></trkpt>
<trkpt lat="48.423341" lon="2.693261"><ele></ele><time>2019-1-17T4:22:11Z</time></trkpt>
<trkpt lat="48.423234" lon="2.69317"><ele></ele><time>2019-1-17T4:22:14Z</time></trkpt>
<trkpt lat="48.423148" lon="2.693086"><ele></ele><time>2019-1-17T4:22:17Z</time></trkpt>
<trkpt lat="48.423065" lon="2.693025"><ele></ele><time>2019-1-17T4:22:20Z</time></trkpt>
<trkpt lat="48.423119" lon="2.692855"><ele></ele><time>2019-1-17T4:22:23Z</time></trkpt>
<trkpt lat="48.423056" lon="2.692708"><ele></ele><time>2019-1-17T4:22:26Z</time></trkpt>
<trkpt lat="48.42294" lon="2.692632"><ele></ele><time>2019-1-17T4:22:29Z</time></trkpt>
<trkpt lat="48.422894" lon="2.692492"><ele></ele><time>2019-1-17T4:22:32Z</time></trkpt>
<trkpt lat="48.42288" lon="2.692354"><ele></ele><time>2019-1-17T4:22:35Z</time></trkpt>
<trkpt lat="48.422963" lon="2.692296"><ele></ele><time>2019-1-17T4:22:38Z</time></trkpt>
<trkpt lat="48.423053" lon="2.692212"><ele></ele><time>2019-1-17T4:22:41Z</time></trkpt>
<trkpt lat="48.423131" lon="2.692074"><ele></ele><time>2019-1-17T4:22:44Z</time></trkpt>
<trkpt lat="48.423093" lon="2.691937"><ele></ele><time>2019-1-17T4:22:47Z</time></trkpt>
<trkpt lat="48.423126" lon="2.691811"><ele></ele><time>2019-1-17T4:22:50Z</time></trkpt>
<trkpt lat="48.423184" lon="2.691639"><ele></ele><time>2019-1-17T4:22:53Z</time></trkpt>
<trkpt lat="48.423189" lon="2.691498"><ele></ele><time>2019-1-17T4:22:56Z</time></trkpt>
<trkpt lat="48.423134" lon="2.691388"><ele></ele><time>2019-1-17T4:22:59Z</time></trkpt>
<trkpt lat="48.422988" lon="2.691358"><ele></ele><time>2019-1-17T4:23:2Z</time></trkpt>
<trkpt lat="48.422874" lon="2.691269"><ele></ele><time>2019-1-17T4:23:5Z</time></trkpt>
<trkpt lat="48.422764" lon="2.691226"><ele></ele><time>2019-1-17T4:23:8Z</time></trkpt>
<trkpt lat="48.422657" lon="2.691096"><ele></ele><time>2019-1-17T4:23:11Z</time></trkpt>
<trkpt lat="48.422565" lon="2.691007"><ele></ele><time>2019-1-17T4:23:14Z</time></trkpt>
<trkpt lat="48.42247" lon="2.690951"><ele></ele><time>2019-1-17T4:23:17Z</time></trkpt>
<trkpt lat="48.422387" lon="2.690875"><ele></ele><time>2019-1-17T4:23:20Z</time></trkpt>
<trkpt lat="48.422295" lon="2.690809"><ele></ele><time>2019-1-17T4:23:23Z</time></trkpt>
<trkpt lat="48.422159" lon="2.690809"><ele></ele><time>2019-1-17T4:23:26Z</time></trkpt>
<trkpt lat="48.42207" lon="2.690711"><ele></ele><time>2019-1-17T4:23:29Z</time></trkpt>
<trkpt lat="48.421999" lon="2.690583"><ele></ele><time>2019-1-17T4:23:32Z</time></trkpt>
<trkpt lat="48.421942" lon="2.690442"><ele></ele><time>2019-1-17T4:23:35Z</time></trkpt>
<trkpt lat="48.421836" lon="2.690349"><ele></ele><time>2019-1-17T4:23:38Z</time></trkpt>
<trkpt lat="48.421752" lon="2.690221"><ele></ele><time>2019-1-17T4:23:41Z</time></trkpt>
<trkpt lat="48.421714" lon="2.690059"><ele></ele><time>2019-1-17T4:23:44Z</time></trkpt>
<trkpt lat="48.421635" lon="2.689941"><ele></ele><time>2019-1-17T4:23:47Z</time></trkpt>
<trkpt lat="48.42155" lon="2.689797"><ele></ele><time>2019-1-17T4:23:50Z</time></trkpt>
<trkpt lat="48.421494" lon="2.689678"><ele></ele><time>2019-1-17T4:23:53Z</time></trkpt>
<trkpt lat="48.421414" lon="2.689555"><ele></ele><time>2019-1-17T4:23:56Z</time></trkpt>
<trkpt lat="48.42132" lon="2.689416"><ele></ele><time>2019-1-17T4:23:59Z</time></trkpt>
<trkpt lat="48.421264" lon="2.689264"><ele></ele><time>2019-1-17T4:24:2Z</time></trkpt>
<trkpt lat="48.421234" lon="2.689131"><ele></ele><time>2019-1-17T4:24:5Z</time></trkpt>
<trkpt lat="48.421171" lon="2.689026"><ele></ele><time>2019-1-17T4:24:8Z</time></trkpt>
<trkpt lat="48.421116" lon="2.688871"><ele></ele><time>2019-1-17T4:24:11Z</time></trkpt>
<trkpt lat="48.421081" lon="2.688714"><ele></ele><time>2019-1-17T4:24:14Z</time></trkpt>
<trkpt lat="48.421043" lon="2.688577"><ele></ele><time>2019-1-17T4:24:17Z</time></trkpt>
<trkpt lat="48.421005" lon="2.688406"><ele></ele><time>2019-1-17T4:24:20Z</time></trkpt>
<trkpt lat="48.420943" lon="2.688277"><ele></ele><time>2019-1-17T4:24:23Z</time></trkpt>
<trkpt lat="48.420847" lon="2.688179"><ele></ele><time>2019-1-17T4:24:26Z</time></trkpt>
<trkpt lat="48.420781" lon="2.688085"><ele></ele><time>2019-1-17T4:24:29Z</time></trkpt>
<trkpt lat="48.42073" lon="2.687937"><ele></ele><time>2019-1-17T4:24:32Z</time></trkpt>
<trkpt lat="48.4207" lon="2.687773"><ele></ele><time>2019-1-17T4:24:35Z</time></trkpt>
<trkpt lat="48.420619" lon="2.687695"><ele></ele><time>2019-1-17T4:24:38Z</time></trkpt>
<trkpt lat="48.420581" lon="2.687561"><ele></ele><time>2019-1-17T4:24:41Z</time></trkpt>
<trkpt lat="48.420511" lon="2.68742"><ele></ele><time>2019-1-17T4:24:44Z</time></trkpt>
<trkpt lat="48.420464" lon="2.68727"><ele></ele><time>2019-1-17T4:24:47Z</time></trkpt>
<trkpt lat="48.420398" lon="2.687176"><ele></ele><time>2019-1-17T4:24:50Z</time></trkpt>
<trkpt lat="48.420344" lon="2.687046"><ele></ele><time>2019-1-17T4:24:53Z</time></trkpt>
<trkpt lat="48.420297" lon="2.686929"><ele></ele><time>2019-1-17T4:24:56Z</time></trkpt>
<trkpt lat="48.42025" lon="2.686777"><ele></ele><time>2019-1-17T4:24:59Z</time></trkpt>
<trkpt lat="48.420242" lon="2.686596"><ele></ele><time>2019-1-17T4:25:2Z</time></trkpt>
<trkpt lat="48.42018" lon="2.686496"><ele></ele><time>2019-1-17T4:25:5Z</time></trkpt>
<trkpt lat="48.420116" lon="2.686385"><ele></ele><time>2019-1-17T4:25:8Z</time></trkpt>
<trkpt lat="48.420061" lon="2.68622"><ele></ele><time>2019-1-17T4:25:11Z</time></trkpt>
<trkpt lat="48.420004" lon="2.686077"><ele></ele><time>2019-1-17T4:25:14Z</time></trkpt>
<trkpt lat="48.42001" lon="2.685929"><ele></ele><time>2019-1-17T4:25:17Z</time></trkpt>
<trkpt lat="48.419965" lon="2.6858"><ele></ele><time>2019-1-17T4:25:20Z</time></trkpt>
<trkpt lat="48.419899" lon="2.68567"><ele></ele><time>2019-1-17T4:25:23Z</time></trkpt>
<trkpt lat="48.419851" lon="2.685527"><ele></ele><time>2019-1-17T4:25:26Z</time></trkpt>
<trkpt lat="48.419808" lon="2.685374"><ele></ele><time>2019-1-17T4:25:29Z</time></trkpt>
<trkpt lat="48.419772" lon="2.685244"><ele></ele><time>2019-1-17T4:25:32Z</time></trkpt>
<trkpt lat="48.419696" lon="2.685133"><ele></ele><time>2019-1-17T4:25:35Z</time></trkpt>
<trkpt lat="48.419641" lon="2.685013"><ele></ele><time>2019-1-17T4:25:38Z</time></trkpt>
<trkpt lat="48.41957" lon="2.684899"><ele></ele><time>2019-1-17T4:25:41Z</time></trkpt>
<trkpt lat="48.419511" lon="2.684763"><ele></ele><time>2019-1-17T4:25:44Z</time></trkpt>
<trkpt lat="48.419473" lon="2.684634"><ele></ele><time>2019-1-17T4:25:47Z</time></trkpt>
<trkpt lat="48.419473" lon="2.684472"><ele></ele><time>2019-1-17T4:25:50Z</time></trkpt>
<trkpt lat="48.419447" lon="2.684342"><ele></ele><time>2019-1-17T4:25:53Z</time></trkpt>
<trkpt lat="48.419401" lon="2.684206"><ele></ele><time>2019-1-17T4:25:56Z</time></trkpt>
<trkpt lat="48.419348" lon="2.684066"><ele></ele><time>2019-1-17T4:25:59Z</time></trkpt>
<trkpt lat="48.419274" lon="2.68397"><ele></ele><time>2019-1-17T4:26:2Z</time></trkpt>
<trkpt lat="48.41922" lon="2.683855"><ele></ele><time>2019-1-17T4:26:5Z</time></trkpt>
<trkpt lat="48.41915" lon="2.683742"><ele></ele><time>2019-1-17T4:26:8Z</time></trkpt>
<trkpt lat="48.41913" lon="2.683589"><ele></ele><time>2019-1-17T4:26:11Z</time></trkpt>
<trkpt lat="48.419073" lon="2.683444"><ele></ele><time>2019-1-17T4:26:14Z</time></trkpt>
<trkpt lat="48.419037" lon="2.68329"><ele></ele><time>2019-1-17T4:26:17Z</time></trkpt>
<trkpt lat="48.418978" lon="2.683182"><ele></ele><time>2019-1-17T4:26:20Z</time></trkpt>
<trkpt lat="48.418917" lon="2.683032"><ele></ele><time>2019-1-17T4:26:23Z</time></trkpt>
<trkpt lat="48.41889" lon="2.6829"><ele></ele><time>2019-1-17T4:26:26Z</time></trkpt>
<trkpt lat="48.418836" lon="2.682759"><ele></ele><time>2019-1-17T4:26:29Z</time></trkpt>
<trkpt lat="48.418839" lon="2.682617"><ele></ele><time>2019-1-17T4:26:32Z</time></trkpt>
<trkpt lat="48.418788" lon="2.682479"><ele></ele><time>2019-1-17T4:26:35Z</time></trkpt>
<trkpt lat="48.418773" lon="2.682326"><ele></ele><time>2019-1-17T4:26:38Z</time></trkpt>
<trkpt lat="48.418711" lon="2.682211"><ele></ele><time>2019-1-17T4:26:41Z</time></trkpt>
<trkpt lat="48.418676" lon="2.682057"><ele></ele><time>2019-1-17T4:26:44Z</time></trkpt>
<trkpt lat="48.418625" lon="2.681927"><ele></ele><time>2019-1-17T4:26:47Z</time></trkpt>
<trkpt lat="48.418561" lon="2.681769"><ele></ele><time>2019-1-17T4:26:50Z</time></trkpt>
<trkpt lat="48.418507" lon="2.681658"><ele></ele><time>2019-1-17T4:26:53Z</time></trkpt>
<trkpt lat="48.418445" lon="2.681511"><ele></ele><time>2019-1-17T4:26:56Z</time></trkpt>
<trkpt lat="48.418422" lon="2.68133"><ele></ele><time>2019-1-17T4:26:59Z</time></trkpt>
<trkpt lat="48.418347" lon="2.681254"><ele></ele><time>2019-1-17T4:27:2Z</time></trkpt>
<trkpt lat="48.418329" lon="2.68109"><ele></ele><time>2019-1-17T4:27:5Z</time></trkpt>
<trkpt lat="48.418281" lon="2.680957"><ele></ele><time>2019-1-17T4:27:8Z</time></trkpt>
<trkpt lat="48.41824" lon="2.680823"><ele></ele><time>2019-1-17T4:27:11Z</time></trkpt>
<trkpt lat="48.418186" lon="2.680702"><ele></ele><time>2019-1-17T4:27:14Z</time></trkpt>
<trkpt lat="48.418178" lon="2.680511"><ele></ele><time>2019-1-17T4:27:17Z</time></trkpt>
<trkpt lat="48.418119" lon="2.680378"><ele></ele><time>2019-1-17T4:27:20Z</time></trkpt>
<trkpt lat="48.418055" lon="2.680261"><ele></ele><time>2019-1-17T4:27:23Z</time></trkpt>
<trkpt lat="48.418" lon="2.680142"><ele></ele><time>2019-1-17T4:27:26Z</time></trkpt>
<trkpt lat="48.417945" lon="2.680019"><ele></ele><time>2019-1-17T4:27:29Z</time></trkpt>
<trkpt lat="48.417933" lon="2.679872"><ele></ele><time>2019-1-17T4:27:32Z</time></trkpt>
<trkpt lat="48.41785" lon="2.679755"><ele></ele><time>2019-1-17T4:27:35Z</time></trkpt>
<trkpt lat="48.417784" lon="2.679652"><ele></ele><time>2019-1-17T4:27:38Z</time></trkpt>
<trkpt lat="48.417815" lon="2.679507"><ele></ele><time>2019-1-17T4:27:41Z</time></trkpt>
<trkpt lat="48.417751" lon="2.679409"><ele></ele><time>2019-1-17T4:27:44Z</time></trkpt>
<trkpt lat="48.417745" lon="2.679244"><ele></ele><time>2019-1-17T4:27:47Z</time></trkpt>
<trkpt lat="48.417815" lon="2.679035"><ele></ele><time>2019-1-17T4:27:50Z</time></trkpt>
<trkpt lat="48.417844" lon="2.678907"><ele></ele><time>2019-1-17T4:27:53Z</time></trkpt>
<trkpt lat="48.417895" lon="2.678787"><ele></ele><time>2019-1-17T4:27:56Z</time></trkpt>
<trkpt lat="48.417939" lon="2.678653"><ele></ele><time>2019-1-17T4:27:59Z</time></trkpt>
<trkpt lat="48.417983" lon="2.67853"><ele></ele><time>2019-1-17T4:28:2Z</time></trkpt>
<trkpt lat="48.418024" lon="2.678398"><ele></ele><time>2019-1-17T4:28:5Z</time></trkpt>
<trkpt lat="48.418074" lon="2.678263"><ele></ele><time>2019-1-17T4:28:8Z</time></trkpt>
<trkpt lat="48.418128" lon="2.678107"><ele></ele><time>2019-1-17T4:28:11Z</time></trkpt>
<trkpt lat="48.418188" lon="2.677964"><ele></ele><time>2019-1-17T4:28:14Z</time></trkpt>
<trkpt lat="48.418202" lon="2.67782"><ele></ele><time>2019-1-17T4:28:17Z</time></trkpt>
<trkpt lat="48.418219" lon="2.677686"><ele></ele><time>2019-1-17T4:28:20Z</time></trkpt>
<trkpt lat="48.41827" lon="2.677527"><ele></ele><time>2019-1-17T4:28:23Z</time></trkpt>
<trkpt lat="48.41831" lon="2.677379"><ele></ele><time>2019-1-17T4:28:26Z</time></trkpt>
<trkpt lat="48.418375" lon="2.677209"><ele></ele><time>2019-1-17T4:28:29Z</time></trkpt>
<trkpt lat="48.418417" lon="2.677069"><ele></ele><time>2019-1-17T4:28:32Z</time></trkpt>
<trkpt lat="48.41847" lon="2.67694"><ele></ele><time>2019-1-17T4:28:35Z</time></trkpt>
<trkpt lat="48.41847" lon="2.676803"><ele></ele><time>2019-1-17T4:28:38Z</time></trkpt>
<trkpt lat="48.418507" lon="2.676635"><ele></ele><time>2019-1-17T4:28:41Z</time></trkpt>
<trkpt lat="48.418573" lon="2.676443"><ele></ele><time>2019-1-17T4:28:44Z</time></trkpt>
<trkpt lat="48.418629" lon="2.676292"><ele></ele><time>2019-1-17T4:28:47Z</time></trkpt>
<trkpt lat="48.41867" lon="2.676128"><ele></ele><time>2019-1-17T4:28:50Z</time></trkpt>
<trkpt lat="48.418725" lon="2.675958"><ele></ele><time>2019-1-17T4:28:53Z</time></trkpt>
<trkpt lat="48.418747" lon="2.675781"><ele></ele><time>2019-1-17T4:28:56Z</time></trkpt>
<trkpt lat="48.418803" lon="2.675612"><ele></ele><time>2019-1-17T4:28:59Z</time></trkpt>
<trkpt lat="48.418813" lon="2.675477"><ele></ele><time>2019-1-17T4:29:2Z</time></trkpt>
<trkpt lat="48.418879" lon="2.675365"><ele></ele><time>2019-1-17T4:29:5Z</time></trkpt>
<trkpt lat="48.418905" lon="2.675205"><ele></ele><time>2019-1-17T4:29:8Z</time></trkpt>
<trkpt lat="48.418937" lon="2.675063"><ele></ele><time>2019-1-17T4:29:11Z</time></trkpt>
<trkpt lat="48.418979" lon="2.674859"><ele></ele><time>2019-1-17T4:29:14Z</time></trkpt>
<trkpt lat="48.419019" lon="2.674693"><ele></ele><time>2019-1-17T4:29:17Z</time></trkpt>
<trkpt lat="48.418962" lon="2.674585"><ele></ele><time>2019-1-17T4:29:20Z</time></trkpt>
<trkpt lat="48.418888" lon="2.674467"><ele></ele><time>2019-1-17T4:29:23Z</time></trkpt>
<trkpt lat="48.418866" lon="2.674296"><ele></ele><time>2019-1-17T4:29:26Z</time></trkpt>
<trkpt lat="48.418802" lon="2.674155"><ele></ele><time>2019-1-17T4:29:29Z</time></trkpt>
<trkpt lat="48.418765" lon="2.674025"><ele></ele><time>2019-1-17T4:29:32Z</time></trkpt>
<trkpt lat="48.418661" lon="2.673976"><ele></ele><time>2019-1-17T4:29:35Z</time></trkpt>
<trkpt lat="48.418581" lon="2.673881"><ele></ele><time>2019-1-17T4:29:38Z</time></trkpt>
<trkpt lat="48.418498" lon="2.673816"><ele></ele><time>2019-1-17T4:29:41Z</time></trkpt>
<trkpt lat="48.418456" lon="2.673693"><ele></ele><time>2019-1-17T4:29:44Z</time></trkpt>
<trkpt lat="48.418407" lon="2.673574"><ele></ele><time>2019-1-17T4:29:47Z</time></trkpt>
<trkpt lat="48.418458" lon="2.673451"><ele></ele><time>2019-1-17T4:29:50Z</time></trkpt>
<trkpt lat="48.418543" lon="2.673397"><ele></ele><time>2019-1-17T4:29:53Z</time></trkpt>
<trkpt lat="48.418622" lon="2.673324"><ele></ele><time>2019-1-17T4:29:56Z</time></trkpt>
<trkpt lat="48.418703" lon="2.673263"><ele></ele><time>2019-1-17T4:29:59Z</time></trkpt>
<trkpt lat="48.418798" lon="2.673233"><ele></ele><time>2019-1-17T4:30:2Z</time></trkpt>
<trkpt lat="48.418902" lon="2.673185"><ele></ele><time>2019-1-17T4:30:5Z</time></trkpt>
<trkpt lat="48.418993" lon="2.67313"><ele></ele><time>2019-1-17T4:30:8Z</time></trkpt>
<trkpt lat="48.419112" lon="2.673058"><ele></ele><time>2019-1-17T4:30:11Z</time></trkpt>
<trkpt lat="48.41922" lon="2.673002"><ele></ele><time>2019-1-17T4:30:14Z</time></trkpt>
<trkpt lat="48.41931" lon="2.672901"><ele></ele><time>2019-1-17T4:30:17Z</time></trkpt>
<trkpt lat="48.419401" lon="2.672837"><ele></ele><time>2019-1-17T4:30:20Z</time></trkpt>
<trkpt lat="48.419504" lon="2.672764"><ele></ele><time>2019-1-17T4:30:23Z</time></trkpt>
<trkpt lat="48.419591" lon="2.672734"><ele></ele><time>2019-1-17T4:30:26Z</time></trkpt>
<trkpt lat="48.419685" lon="2.672668"><ele></ele><time>2019-1-17T4:30:29Z</time></trkpt>
<trkpt lat="48.41978" lon="2.672637"><ele></ele><time>2019-1-17T4:30:32Z</time></trkpt>
<trkpt lat="48.419876" lon="2.67254"><ele></ele><time>2019-1-17T4:30:35Z</time></trkpt>
<trkpt lat="48.419965" lon="2.672382"><ele></ele><time>2019-1-17T4:30:38Z</time></trkpt>
<trkpt lat="48.42006" lon="2.672325"><ele></ele><time>2019-1-17T4:30:41Z</time></trkpt>
<trkpt lat="48.420177" lon="2.672248"><ele></ele><time>2019-1-17T4:30:44Z</time></trkpt>
<trkpt lat="48.420286" lon="2.672184"><ele></ele><time>2019-1-17T4:30:47Z</time></trkpt>
<trkpt lat="48.420371" lon="2.672091"><ele></ele><time>2019-1-17T4:30:50Z</time></trkpt>
<trkpt lat="48.420471" lon="2.672041"><ele></ele><time>2019-1-17T4:30:53Z</time></trkpt>
<trkpt lat="48.420573" lon="2.671963"><ele></ele><time>2019-1-17T4:30:56Z</time></trkpt>
<trkpt lat="48.420675" lon="2.671848"><ele></ele><time>2019-1-17T4:30:59Z</time></trkpt>
<trkpt lat="48.420764" lon="2.671778"><ele></ele><time>2019-1-17T4:31:2Z</time></trkpt>
<trkpt lat="48.420855" lon="2.671708"><ele></ele><time>2019-1-17T4:31:5Z</time></trkpt>
<trkpt lat="48.420935" lon="2.67162"><ele></ele><time>2019-1-17T4:31:8Z</time></trkpt>
<trkpt lat="48.421044" lon="2.67156"><ele></ele><time>2019-1-17T4:31:11Z</time></trkpt>
<trkpt lat="48.421116" lon="2.671462"><ele></ele><time>2019-1-17T4:31:14Z</time></trkpt>
<trkpt lat="48.421192" lon="2.671352"><ele></ele><time>2019-1-17T4:31:17Z</time></trkpt>
<trkpt lat="48.421294" lon="2.671259"><ele></ele><time>2019-1-17T4:31:20Z</time></trkpt>
<trkpt lat="48.421401" lon="2.671185"><ele></ele><time>2019-1-17T4:31:23Z</time></trkpt>
<trkpt lat="48.421484" lon="2.671133"><ele></ele><time>2019-1-17T4:31:26Z</time></trkpt>
<trkpt lat="48.421556" lon="2.671045"><ele></ele><time>2019-1-17T4:31:29Z</time></trkpt>
<trkpt lat="48.421636" lon="2.670984"><ele></ele><time>2019-1-17T4:31:32Z</time></trkpt>
<trkpt lat="48.421719" lon="2.670876"><ele></ele><time>2019-1-17T4:31:35Z</time></trkpt>
<trkpt lat="48.421853" lon="2.670791"><ele></ele><time>2019-1-17T4:31:38Z</time></trkpt>
<trkpt lat="48.421935" lon="2.670721"><ele></ele><time>2019-1-17T4:31:41Z</time></trkpt>
<trkpt lat="48.422033" lon="2.670647"><ele></ele><time>2019-1-17T4:31:44Z</time></trkpt>
<trkpt lat="48.422135" lon="2.670576"><ele></ele><time>2019-1-17T4:31:47Z</time></trkpt>
<trkpt lat="48.422214" lon="2.670511"><ele></ele><time>2019-1-17T4:31:50Z</time></trkpt>
<trkpt lat="48.422328" lon="2.670432"><ele></ele><time>2019-1-17T4:31:53Z</time></trkpt>
<trkpt lat="48.422446" lon="2.67036"><ele></ele><time>2019-1-17T4:31:56Z</time></trkpt>
<trkpt lat="48.422518" lon="2.670278"><ele></ele><time>2019-1-17T4:31:59Z</time></trkpt>
<trkpt lat="48.422637" lon="2.670183"><ele></ele><time>2019-1-17T4:32:2Z</time></trkpt>
<trkpt lat="48.42273" lon="2.670086"><ele></ele><time>2019-1-17T4:32:5Z</time></trkpt>
<trkpt lat="48.422815" lon="2.670037"><ele></ele><time>2019-1-17T4:32:8Z</time></trkpt>
<trkpt lat="48.422933" lon="2.669989"><ele></ele><time>2019-1-17T4:32:11Z</time></trkpt>
<trkpt lat="48.423029" lon="2.669907"><ele></ele><time>2019-1-17T4:32:14Z</time></trkpt>
<trkpt lat="48.423114" lon="2.669849"><ele></ele><time>2019-1-17T4:32:17Z</time></trkpt>
<trkpt lat="48.423227" lon="2.669775"><ele></ele><time>2019-1-17T4:32:20Z</time></trkpt>
<trkpt lat="48.423302" lon="2.669674"><ele></ele><time>2019-1-17T4:32:23Z</time></trkpt>
<trkpt lat="48.4234" lon="2.669597"><ele></ele><time>2019-1-17T4:32:26Z</time></trkpt>
<trkpt lat="48.423491" lon="2.669546"><ele></ele><time>2019-1-17T4:32:29Z</time></trkpt>
<trkpt lat="48.423595" lon="2.669466"><ele></ele><time>2019-1-17T4:32:32Z</time></trkpt>
<trkpt lat="48.423714" lon="2.6694"><ele></ele><time>2019-1-17T4:32:35Z</time></trkpt>
<trkpt lat="48.423819" lon="2.669341"><ele></ele><time>2019-1-17T4:32:38Z</time></trkpt>
<trkpt lat="48.42391" lon="2.669257"><ele></ele><time>2019-1-17T4:32:41Z</time></trkpt>
<trkpt lat="48.424034" lon="2.669188"><ele></ele><time>2019-1-17T4:32:44Z</time></trkpt>
<trkpt lat="48.424148" lon="2.669104"><ele></ele><time>2019-1-17T4:32:47Z</time></trkpt>
<trkpt lat="48.424269" lon="2.669025"><ele></ele><time>2019-1-17T4:32:50Z</time></trkpt>
<trkpt lat="48.42438" lon="2.668943"><ele></ele><time>2019-1-17T4:32:53Z</time></trkpt>
<trkpt lat="48.424493" lon="2.668878"><ele></ele><time>2019-1-17T4:32:56Z</time></trkpt>
<trkpt lat="48.424574" lon="2.668804"><ele></ele><time>2019-1-17T4:32:59Z</time></trkpt>
<trkpt lat="48.424689" lon="2.668722"><ele></ele><time>2019-1-17T4:33:2Z</time></trkpt>
<trkpt lat="48.42477" lon="2.668654"><ele></ele><time>2019-1-17T4:33:5Z</time></trkpt>
<trkpt lat="48.424881" lon="2.668598"><ele></ele><time>2019-1-17T4:33:8Z</time></trkpt>
<trkpt lat="48.424964" lon="2.668519"><ele></ele><time>2019-1-17T4:33:11Z</time></trkpt>
<trkpt lat="48.425086" lon="2.668492"><ele></ele><time>2019-1-17T4:33:14Z</time></trkpt>
<trkpt lat="48.425215" lon="2.668426"><ele></ele><time>2019-1-17T4:33:17Z</time></trkpt>
<trkpt lat="48.425313" lon="2.668391"><ele></ele><time>2019-1-17T4:33:20Z</time></trkpt>
<trkpt lat="48.425427" lon="2.668307"><ele></ele><time>2019-1-17T4:33:23Z</time></trkpt>
<trkpt lat="48.425539" lon="2.668214"><ele></ele><time>2019-1-17T4:33:26Z</time></trkpt>
<trkpt lat="48.425651" lon="2.668143"><ele></ele><time>2019-1-17T4:33:29Z</time></trkpt>
<trkpt lat="48.425719" lon="2.668051"><ele></ele><time>2019-1-17T4:33:32Z</time></trkpt>
<trkpt lat="48.425837" lon="2.667961"><ele></ele><time>2019-1-17T4:33:35Z</time></trkpt>
<trkpt lat="48.425958" lon="2.667849"><ele></ele><time>2019-1-17T4:33:38Z</time></trkpt>
<trkpt lat="48.426077" lon="2.667787"><ele></ele><time>2019-1-17T4:33:41Z</time></trkpt>
<trkpt lat="48.426176" lon="2.667708"><ele></ele><time>2019-1-17T4:33:44Z</time></trkpt>
<trkpt lat="48.426268" lon="2.667669"><ele></ele><time>2019-1-17T4:33:47Z</time></trkpt>
<trkpt lat="48.426373" lon="2.667615"><ele></ele><time>2019-1-17T4:33:50Z</time></trkpt>
<trkpt lat="48.426473" lon="2.667617"><ele></ele><time>2019-1-17T4:33:53Z</time></trkpt>
<trkpt lat="48.426587" lon="2.66752"><ele></ele><time>2019-1-17T4:33:56Z</time></trkpt>
<trkpt lat="48.426687" lon="2.667461"><ele></ele><time>2019-1-17T4:33:59Z</time></trkpt>
<trkpt lat="48.42678" lon="2.667409"><ele></ele><time>2019-1-17T4:34:2Z</time></trkpt>
<trkpt lat="48.426868" lon="2.667351"><ele></ele><time>2019-1-17T4:34:5Z</time></trkpt>
<trkpt lat="48.426952" lon="2.667291"><ele></ele><time>2019-1-17T4:34:8Z</time></trkpt>
<trkpt lat="48.427054" lon="2.667225"><ele></ele><time>2019-1-17T4:34:11Z</time></trkpt>
<trkpt lat="48.427161" lon="2.667198"><ele></ele><time>2019-1-17T4:34:14Z</time></trkpt>
<trkpt lat="48.42724" lon="2.667107"><ele></ele><time>2019-1-17T4:34:17Z</time></trkpt>
<trkpt lat="48.427348" lon="2.667027"><ele></ele><time>2019-1-17T4:34:20Z</time></trkpt>
<trkpt lat="48.427488" lon="2.666947"><ele></ele><time>2019-1-17T4:34:23Z</time></trkpt>
<trkpt lat="48.42759" lon="2.666886"><ele></ele><time>2019-1-17T4:34:26Z</time></trkpt>
<trkpt lat="48.427698" lon="2.666808"><ele></ele><time>2019-1-17T4:34:29Z</time></trkpt>
<trkpt lat="48.427798" lon="2.666727"><ele></ele><time>2019-1-17T4:34:32Z</time></trkpt>
<trkpt lat="48.427904" lon="2.666687"><ele></ele><time>2019-1-17T4:34:35Z</time></trkpt>
<trkpt lat="48.428013" lon="2.666615"><ele></ele><time>2019-1-17T4:34:38Z</time></trkpt>
<trkpt lat="48.428126" lon="2.666551"><ele></ele><time>2019-1-17T4:34:41Z</time></trkpt>
<trkpt lat="48.428226" lon="2.666554"><ele></ele><time>2019-1-17T4:34:44Z</time></trkpt>
<trkpt lat="48.428322" lon="2.666544"><ele></ele><time>2019-1-17T4:34:47Z</time></trkpt>
<trkpt lat="48.428483" lon="2.666498"><ele></ele><time>2019-1-17T4:34:50Z</time></trkpt>
<trkpt lat="48.428582" lon="2.666477"><ele></ele><time>2019-1-17T4:34:53Z</time></trkpt>
<trkpt lat="48.428662" lon="2.666569"><ele></ele><time>2019-1-17T4:34:56Z</time></trkpt>
<trkpt lat="48.428758" lon="2.66667"><ele></ele><time>2019-1-17T4:34:59Z</time></trkpt>
<trkpt lat="48.428813" lon="2.666821"><ele></ele><time>2019-1-17T4:35:2Z</time></trkpt>
<trkpt lat="48.428936" lon="2.66698"><ele></ele><time>2019-1-17T4:35:5Z</time></trkpt>
<trkpt lat="48.428993" lon="2.667117"><ele></ele><time>2019-1-17T4:35:8Z</time></trkpt>
<trkpt lat="48.429032" lon="2.667295"><ele></ele><time>2019-1-17T4:35:11Z</time></trkpt>
<trkpt lat="48.429077" lon="2.667433"><ele></ele><time>2019-1-17T4:35:14Z</time></trkpt>
<trkpt lat="48.429201" lon="2.667534"><ele></ele><time>2019-1-17T4:35:17Z</time></trkpt>
<trkpt lat="48.429202" lon="2.667683"><ele></ele><time>2019-1-17T4:35:20Z</time></trkpt>
<trkpt lat="48.429305" lon="2.667759"><ele></ele><time>2019-1-17T4:35:23Z</time></trkpt>
<trkpt lat="48.429395" lon="2.667861"><ele></ele><time>2019-1-17T4:35:26Z</time></trkpt>
<trkpt lat="48.429512" lon="2.667896"><ele></ele><time>2019-1-17T4:35:29Z</time></trkpt>
<trkpt lat="48.429615" lon="2.667864"><ele></ele><time>2019-1-17T4:35:32Z</time></trkpt>
<trkpt lat="48.429693" lon="2.667971"><ele></ele><time>2019-1-17T4:35:35Z</time></trkpt>
<trkpt lat="48.429745" lon="2.668087"><ele></ele><time>2019-1-17T4:35:38Z</time></trkpt>
<trkpt lat="48.429831" lon="2.668143"><ele></ele><time>2019-1-17T4:35:41Z</time></trkpt>
<trkpt lat="48.429935" lon="2.66813"><ele></ele><time>2019-1-17T4:35:44Z</time></trkpt>
<trkpt lat="48.429878" lon="2.667982"><ele></ele><time>2019-1-17T4:35:47Z</time></trkpt>
<trkpt lat="48.429907" lon="2.667809"><ele></ele><time>2019-1-17T4:35:50Z</time></trkpt>
<trkpt lat="48.429988" lon="2.667689"><ele></ele><time>2019-1-17T4:35:53Z</time></trkpt>
<trkpt lat="48.429991" lon="2.667523"><ele></ele><time>2019-1-17T4:35:56Z</time></trkpt>
<trkpt lat="48.429965" lon="2.667362"><ele></ele><time>2019-1-17T4:35:59Z</time></trkpt>
<trkpt lat="48.429994" lon="2.667224"><ele></ele><time>2019-1-17T4:36:2Z</time></trkpt>
<trkpt lat="48.429972" lon="2.66707"><ele></ele><time>2019-1-17T4:36:5Z</time></trkpt>
<trkpt lat="48.429987" lon="2.666926"><ele></ele><time>2019-1-17T4:36:8Z</time></trkpt>
<trkpt lat="48.430043" lon="2.666781"><ele></ele><time>2019-1-17T4:36:11Z</time></trkpt>
<trkpt lat="48.430134" lon="2.666662"><ele></ele><time>2019-1-17T4:36:14Z</time></trkpt>
<trkpt lat="48.430226" lon="2.66661"><ele></ele><time>2019-1-17T4:36:17Z</time></trkpt>
<trkpt lat="48.430326" lon="2.666532"><ele></ele><time>2019-1-17T4:36:20Z</time></trkpt>
<trkpt lat="48.4304" lon="2.666445"><ele></ele><time>2019-1-17T4:36:23Z</time></trkpt>
<trkpt lat="48.430438" lon="2.666302"><ele></ele><time>2019-1-17T4:36:26Z</time></trkpt>
<trkpt lat="48.430497" lon="2.666184"><ele></ele><time>2019-1-17T4:36:29Z</time></trkpt>
<trkpt lat="48.430581" lon="2.666084"><ele></ele><time>2019-1-17T4:36:32Z</time></trkpt>
<trkpt lat="48.430618" lon="2.665946"><ele></ele><time>2019-1-17T4:36:35Z</time></trkpt>
<trkpt lat="48.430698" lon="2.665846"><ele></ele><time>2019-1-17T4:36:38Z</time></trkpt>
<trkpt lat="48.430779" lon="2.665773"><ele></ele><time>2019-1-17T4:36:41Z</time></trkpt>
<trkpt lat="48.430829" lon="2.665657"><ele></ele><time>2019-1-17T4:36:44Z</time></trkpt>
<trkpt lat="48.430935" lon="2.665594"><ele></ele><time>2019-1-17T4:36:47Z</time></trkpt>
<trkpt lat="48.431032" lon="2.665567"><ele></ele><time>2019-1-17T4:36:50Z</time></trkpt>
<trkpt lat="48.431129" lon="2.665567"><ele></ele><time>2019-1-17T4:36:53Z</time></trkpt>
<trkpt lat="48.431244" lon="2.665579"><ele></ele><time>2019-1-17T4:36:56Z</time></trkpt>
<trkpt lat="48.431365" lon="2.665546"><ele></ele><time>2019-1-17T4:36:59Z</time></trkpt>
<trkpt lat="48.431471" lon="2.665561"><ele></ele><time>2019-1-17T4:37:2Z</time></trkpt>
<trkpt lat="48.43157" lon="2.665587"><ele></ele><time>2019-1-17T4:37:5Z</time></trkpt>
<trkpt lat="48.431673" lon="2.665639"><ele></ele><time>2019-1-17T4:37:8Z</time></trkpt>
<trkpt lat="48.431791" lon="2.665665"><ele></ele><time>2019-1-17T4:37:11Z</time></trkpt>
<trkpt lat="48.431895" lon="2.665631"><ele></ele><time>2019-1-17T4:37:14Z</time></trkpt>
<trkpt lat="48.432021" lon="2.665637"><ele></ele><time>2019-1-17T4:37:17Z</time></trkpt>
<trkpt lat="48.432109" lon="2.665696"><ele></ele><time>2019-1-17T4:37:20Z</time></trkpt>
<trkpt lat="48.432212" lon="2.665694"><ele></ele><time>2019-1-17T4:37:23Z</time></trkpt>
<trkpt lat="48.43235" lon="2.665735"><ele></ele><time>2019-1-17T4:37:26Z</time></trkpt>
<trkpt lat="48.432467" lon="2.665735"><ele></ele><time>2019-1-17T4:37:29Z</time></trkpt>
<trkpt lat="48.43261" lon="2.665752"><ele></ele><time>2019-1-17T4:37:32Z</time></trkpt>
<trkpt lat="48.432711" lon="2.665791"><ele></ele><time>2019-1-17T4:37:35Z</time></trkpt>
<trkpt lat="48.43283" lon="2.665823"><ele></ele><time>2019-1-17T4:37:38Z</time></trkpt>
<trkpt lat="48.432934" lon="2.665853"><ele></ele><time>2019-1-17T4:37:41Z</time></trkpt>
<trkpt lat="48.433048" lon="2.665908"><ele></ele><time>2019-1-17T4:37:44Z</time></trkpt>
<trkpt lat="48.433142" lon="2.665984"><ele></ele><time>2019-1-17T4:37:47Z</time></trkpt>
<trkpt lat="48.433243" lon="2.665987"><ele></ele><time>2019-1-17T4:37:50Z</time></trkpt>
<trkpt lat="48.433354" lon="2.665985"><ele></ele><time>2019-1-17T4:37:53Z</time></trkpt>
<trkpt lat="48.433461" lon="2.665932"><ele></ele><time>2019-1-17T4:37:56Z</time></trkpt>
<trkpt lat="48.433601" lon="2.665968"><ele></ele><time>2019-1-17T4:37:59Z</time></trkpt>
<trkpt lat="48.433726" lon="2.666012"><ele></ele><time>2019-1-17T4:38:2Z</time></trkpt>
<trkpt lat="48.433838" lon="2.666077"><ele></ele><time>2019-1-17T4:38:5Z</time></trkpt>
<trkpt lat="48.433948" lon="2.666071"><ele></ele><time>2019-1-17T4:38:8Z</time></trkpt>
<trkpt lat="48.43409" lon="2.666118"><ele></ele><time>2019-1-17T4:38:11Z</time></trkpt>
<trkpt lat="48.434196" lon="2.666196"><ele></ele><time>2019-1-17T4:38:14Z</time></trkpt>
<trkpt lat="48.4343" lon="2.66622"><ele></ele><time>2019-1-17T4:38:17Z</time></trkpt>
<trkpt lat="48.4344" lon="2.66626"><ele></ele><time>2019-1-17T4:38:20Z</time></trkpt>
<trkpt lat="48.434489" lon="2.666289"><ele></ele><time>2019-1-17T4:38:23Z</time></trkpt>
<trkpt lat="48.434579" lon="2.666299"><ele></ele><time>2019-1-17T4:38:26Z</time></trkpt>
<trkpt lat="48.434683" lon="2.666267"><ele></ele><time>2019-1-17T4:38:29Z</time></trkpt>
<trkpt lat="48.434777" lon="2.666292"><ele></ele><time>2019-1-17T4:38:32Z</time></trkpt>
<trkpt lat="48.43488" lon="2.666319"><ele></ele><time>2019-1-17T4:38:35Z</time></trkpt>
<trkpt lat="48.434968" lon="2.666361"><ele></ele><time>2019-1-17T4:38:38Z</time></trkpt>
<trkpt lat="48.43507" lon="2.666382"><ele></ele><time>2019-1-17T4:38:41Z</time></trkpt>
<trkpt lat="48.435201" lon="2.666415"><ele></ele><time>2019-1-17T4:38:44Z</time></trkpt>
<trkpt lat="48.435293" lon="2.66643"><ele></ele><time>2019-1-17T4:38:47Z</time></trkpt>
<trkpt lat="48.435417" lon="2.666467"><ele></ele><time>2019-1-17T4:38:50Z</time></trkpt>
<trkpt lat="48.435467" lon="2.666632"><ele></ele><time>2019-1-17T4:38:53Z</time></trkpt>
<trkpt lat="48.435597" lon="2.666734"><ele></ele><time>2019-1-17T4:38:56Z</time></trkpt>
<trkpt lat="48.435704" lon="2.666782"><ele></ele><time>2019-1-17T4:38:59Z</time></trkpt>
<trkpt lat="48.435816" lon="2.66687"><ele></ele><time>2019-1-17T4:39:2Z</time></trkpt>
<trkpt lat="48.435879" lon="2.666985"><ele></ele><time>2019-1-17T4:39:5Z</time></trkpt>
<trkpt lat="48.435974" lon="2.666999"><ele></ele><time>2019-1-17T4:39:8Z</time></trkpt>
<trkpt lat="48.436061" lon="2.667042"><ele></ele><time>2019-1-17T4:39:11Z</time></trkpt>
<trkpt lat="48.436123" lon="2.667162"><ele></ele><time>2019-1-17T4:39:14Z</time></trkpt>
<trkpt lat="48.436219" lon="2.667179"><ele></ele><time>2019-1-17T4:39:17Z</time></trkpt>
<trkpt lat="48.436344" lon="2.667179"><ele></ele><time>2019-1-17T4:39:20Z</time></trkpt>
<trkpt lat="48.436468" lon="2.66716"><ele></ele><time>2019-1-17T4:39:23Z</time></trkpt>
<trkpt lat="48.436577" lon="2.667153"><ele></ele><time>2019-1-17T4:39:26Z</time></trkpt>
<trkpt lat="48.43669" lon="2.667126"><ele></ele><time>2019-1-17T4:39:29Z</time></trkpt>
<trkpt lat="48.436822" lon="2.667121"><ele></ele><time>2019-1-17T4:39:32Z</time></trkpt>
<trkpt lat="48.436912" lon="2.667097"><ele></ele><time>2019-1-17T4:39:35Z</time></trkpt>
<trkpt lat="48.437025" lon="2.667064"><ele></ele><time>2019-1-17T4:39:38Z</time></trkpt>
<trkpt lat="48.437131" lon="2.667062"><ele></ele><time>2019-1-17T4:39:41Z</time></trkpt>
<trkpt lat="48.437226" lon="2.667074"><ele></ele><time>2019-1-17T4:39:44Z</time></trkpt>
<trkpt lat="48.437316" lon="2.667127"><ele></ele><time>2019-1-17T4:39:47Z</time></trkpt>
<trkpt lat="48.437415" lon="2.667205"><ele></ele><time>2019-1-17T4:39:50Z</time></trkpt>
<trkpt lat="48.437536" lon="2.667221"><ele></ele><time>2019-1-17T4:39:53Z</time></trkpt>
<trkpt lat="48.437641" lon="2.66725"><ele></ele><time>2019-1-17T4:39:56Z</time></trkpt>
<trkpt lat="48.437749" lon="2.667329"><ele></ele><time>2019-1-17T4:39:59Z</time></trkpt>
<trkpt lat="48.437852" lon="2.667339"><ele></ele><time>2019-1-17T4:40:2Z</time></trkpt>
<trkpt lat="48.437933" lon="2.66743"><ele></ele><time>2019-1-17T4:40:5Z</time></trkpt>
<trkpt lat="48.43803" lon="2.667459"><ele></ele><time>2019-1-17T4:40:8Z</time></trkpt>
<trkpt lat="48.438142" lon="2.667476"><ele></ele><time>2019-1-17T4:40:11Z</time></trkpt>
<trkpt lat="48.438236" lon="2.667533"><ele></ele><time>2019-1-17T4:40:14Z</time></trkpt>
<trkpt lat="48.438344" lon="2.66761"><ele></ele><time>2019-1-17T4:40:17Z</time></trkpt>
<trkpt lat="48.43845" lon="2.667693"><ele></ele><time>2019-1-17T4:40:20Z</time></trkpt>
<trkpt lat="48.438538" lon="2.667775"><ele></ele><time>2019-1-17T4:40:23Z</time></trkpt>
<trkpt lat="48.438641" lon="2.66778"><ele></ele><time>2019-1-17T4:40:26Z</time></trkpt>
<trkpt lat="48.438745" lon="2.66783"><ele></ele><time>2019-1-17T4:40:29Z</time></trkpt>
<trkpt lat="48.438868" lon="2.667856"><ele></ele><time>2019-1-17T4:40:32Z</time></trkpt>
<trkpt lat="48.439008" lon="2.667893"><ele></ele><time>2019-1-17T4:40:35Z</time></trkpt>
<trkpt lat="48.439133" lon="2.667923"><ele></ele><time>2019-1-17T4:40:38Z</time></trkpt>
<trkpt lat="48.439244" lon="2.667937"><ele></ele><time>2019-1-17T4:40:41Z</time></trkpt>
<trkpt lat="48.439334" lon="2.667934"><ele></ele><time>2019-1-17T4:40:44Z</time></trkpt>
<trkpt lat="48.439438" lon="2.667902"><ele></ele><time>2019-1-17T4:40:47Z</time></trkpt>
<trkpt lat="48.439527" lon="2.667888"><ele></ele><time>2019-1-17T4:40:50Z</time></trkpt>
<trkpt lat="48.43966" lon="2.667849"><ele></ele><time>2019-1-17T4:40:53Z</time></trkpt>
<trkpt lat="48.439748" lon="2.667884"><ele></ele><time>2019-1-17T4:40:56Z</time></trkpt>
<trkpt lat="48.439857" lon="2.667944"><ele></ele><time>2019-1-17T4:40:59Z</time></trkpt>
<trkpt lat="48.439983" lon="2.668007"><ele></ele><time>2019-1-17T4:41:2Z</time></trkpt>
<trkpt lat="48.440084" lon="2.668051"><ele></ele><time>2019-1-17T4:41:5Z</time></trkpt>
<trkpt lat="48.44017" lon="2.668124"><ele></ele><time>2019-1-17T4:41:8Z</time></trkpt>
<trkpt lat="48.440271" lon="2.668195"><ele></ele><time>2019-1-17T4:41:11Z</time></trkpt>
<trkpt lat="48.440363" lon="2.668246"><ele></ele><time>2019-1-17T4:41:14Z</time></trkpt>
<trkpt lat="48.440445" lon="2.668304"><ele></ele><time>2019-1-17T4:41:17Z</time></trkpt>
<trkpt lat="48.440575" lon="2.668358"><ele></ele><time>2019-1-17T4:41:20Z</time></trkpt>
<trkpt lat="48.440667" lon="2.668399"><ele></ele><time>2019-1-17T4:41:23Z</time></trkpt>
<trkpt lat="48.440771" lon="2.668462"><ele></ele><time>2019-1-17T4:41:26Z</time></trkpt>
<trkpt lat="48.440894" lon="2.668508"><ele></ele><time>2019-1-17T4:41:29Z</time></trkpt>
<trkpt lat="48.441014" lon="2.668587"><ele></ele><time>2019-1-17T4:41:32Z</time></trkpt>
<trkpt lat="48.441116" lon="2.668644"><ele></ele><time>2019-1-17T4:41:35Z</time></trkpt>
<trkpt lat="48.441244" lon="2.668687"><ele></ele><time>2019-1-17T4:41:38Z</time></trkpt>
<trkpt lat="48.441323" lon="2.668764"><ele></ele><time>2019-1-17T4:41:41Z</time></trkpt>
<trkpt lat="48.441442" lon="2.668846"><ele></ele><time>2019-1-17T4:41:44Z</time></trkpt>
<trkpt lat="48.441534" lon="2.668916"><ele></ele><time>2019-1-17T4:41:47Z</time></trkpt>
<trkpt lat="48.441645" lon="2.668968"><ele></ele><time>2019-1-17T4:41:50Z</time></trkpt>
<trkpt lat="48.44173" lon="2.669028"><ele></ele><time>2019-1-17T4:41:53Z</time></trkpt>
<trkpt lat="48.441822" lon="2.669065"><ele></ele><time>2019-1-17T4:41:56Z</time></trkpt>
<trkpt lat="48.441924" lon="2.669178"><ele></ele><time>2019-1-17T4:41:59Z</time></trkpt>
<trkpt lat="48.442021" lon="2.66923"><ele></ele><time>2019-1-17T4:42:2Z</time></trkpt>
<trkpt lat="48.442108" lon="2.669271"><ele></ele><time>2019-1-17T4:42:5Z</time></trkpt>
<trkpt lat="48.442203" lon="2.669249"><ele></ele><time>2019-1-17T4:42:8Z</time></trkpt>
<trkpt lat="48.442263" lon="2.669353"><ele></ele><time>2019-1-17T4:42:11Z</time></trkpt>
<trkpt lat="48.442389" lon="2.669383"><ele></ele><time>2019-1-17T4:42:14Z</time></trkpt>
<trkpt lat="48.442517" lon="2.669408"><ele></ele><time>2019-1-17T4:42:17Z</time></trkpt>
<trkpt lat="48.442632" lon="2.669422"><ele></ele><time>2019-1-17T4:42:20Z</time></trkpt>
<trkpt lat="48.442739" lon="2.669364"><ele></ele><time>2019-1-17T4:42:23Z</time></trkpt>
<trkpt lat="48.442846" lon="2.669306"><ele></ele><time>2019-1-17T4:42:26Z</time></trkpt>
<trkpt lat="48.442931" lon="2.669372"><ele></ele><time>2019-1-17T4:42:29Z</time></trkpt>
<trkpt lat="48.443028" lon="2.66942"><ele></ele><time>2019-1-17T4:42:32Z</time></trkpt>
<trkpt lat="48.443148" lon="2.669514"><ele></ele><time>2019-1-17T4:42:35Z</time></trkpt>
<trkpt lat="48.443248" lon="2.669551"><ele></ele><time>2019-1-17T4:42:38Z</time></trkpt>
<trkpt lat="48.443381" lon="2.669554"><ele></ele><time>2019-1-17T4:42:41Z</time></trkpt>
<trkpt lat="48.443511" lon="2.669559"><ele></ele><time>2019-1-17T4:42:44Z</time></trkpt>
<trkpt lat="48.443584" lon="2.669694"><ele></ele><time>2019-1-17T4:42:47Z</time></trkpt>
<trkpt lat="48.44367" lon="2.66979"><ele></ele><time>2019-1-17T4:42:50Z</time></trkpt>
<trkpt lat="48.443751" lon="2.669692"><ele></ele><time>2019-1-17T4:42:53Z</time></trkpt>
<trkpt lat="48.443737" lon="2.669502"><ele></ele><time>2019-1-17T4:42:56Z</time></trkpt>
<trkpt lat="48.443756" lon="2.669349"><ele></ele><time>2019-1-17T4:42:59Z</time></trkpt>
<trkpt lat="48.443817" lon="2.669228"><ele></ele><time>2019-1-17T4:43:2Z</time></trkpt>
<trkpt lat="48.443916" lon="2.66917"><ele></ele><time>2019-1-17T4:43:5Z</time></trkpt>
<trkpt lat="48.443991" lon="2.669042"><ele></ele><time>2019-1-17T4:43:8Z</time></trkpt>
<trkpt lat="48.444094" lon="2.668947"><ele></ele><time>2019-1-17T4:43:11Z</time></trkpt>
<trkpt lat="48.444185" lon="2.668836"><ele></ele><time>2019-1-17T4:43:14Z</time></trkpt>
<trkpt lat="48.444283" lon="2.668718"><ele></ele><time>2019-1-17T4:43:17Z</time></trkpt>
<trkpt lat="48.44435" lon="2.668582"><ele></ele><time>2019-1-17T4:43:20Z</time></trkpt>
<trkpt lat="48.444434" lon="2.668494"><ele></ele><time>2019-1-17T4:43:23Z</time></trkpt>
<trkpt lat="48.444523" lon="2.668368"><ele></ele><time>2019-1-17T4:43:26Z</time></trkpt>
<trkpt lat="48.444604" lon="2.668291"><ele></ele><time>2019-1-17T4:43:29Z</time></trkpt>
<trkpt lat="48.444718" lon="2.668218"><ele></ele><time>2019-1-17T4:43:32Z</time></trkpt>
<trkpt lat="48.444802" lon="2.668082"><ele></ele><time>2019-1-17T4:43:35Z</time></trkpt>
<trkpt lat="48.4449" lon="2.667944"><ele></ele><time>2019-1-17T4:43:38Z</time></trkpt>
<trkpt lat="48.444978" lon="2.667862"><ele></ele><time>2019-1-17T4:43:41Z</time></trkpt>
<trkpt lat="48.445072" lon="2.667774"><ele></ele><time>2019-1-17T4:43:44Z</time></trkpt>
<trkpt lat="48.445148" lon="2.66765"><ele></ele><time>2019-1-17T4:43:47Z</time></trkpt>
<trkpt lat="48.44524" lon="2.667509"><ele></ele><time>2019-1-17T4:43:50Z</time></trkpt>
<trkpt lat="48.445351" lon="2.667408"><ele></ele><time>2019-1-17T4:43:53Z</time></trkpt>
<trkpt lat="48.44544" lon="2.667337"><ele></ele><time>2019-1-17T4:43:56Z</time></trkpt>
<trkpt lat="48.445544" lon="2.66722"><ele></ele><time>2019-1-17T4:43:59Z</time></trkpt>
<trkpt lat="48.445621" lon="2.667124"><ele></ele><time>2019-1-17T4:44:2Z</time></trkpt>
<trkpt lat="48.445684" lon="2.667025"><ele></ele><time>2019-1-17T4:44:5Z</time></trkpt>
<trkpt lat="48.445757" lon="2.66693"><ele></ele><time>2019-1-17T4:44:8Z</time></trkpt>
<trkpt lat="48.445851" lon="2.666795"><ele></ele><time>2019-1-17T4:44:11Z</time></trkpt>
<trkpt lat="48.445921" lon="2.666707"><ele></ele><time>2019-1-17T4:44:14Z</time></trkpt>
<trkpt lat="48.446015" lon="2.66658"><ele></ele><time>2019-1-17T4:44:17Z</time></trkpt>
<trkpt lat="48.44612" lon="2.666457"><ele></ele><time>2019-1-17T4:44:20Z</time></trkpt>
<trkpt lat="48.446201" lon="2.666383"><ele></ele><time>2019-1-17T4:44:23Z</time></trkpt>
<trkpt lat="48.446297" lon="2.666246"><ele></ele><time>2019-1-17T4:44:26Z</time></trkpt>
<trkpt lat="48.446389" lon="2.666161"><ele></ele><time>2019-1-17T4:44:29Z</time></trkpt>
<trkpt lat="48.446464" lon="2.666069"><ele></ele><time>2019-1-17T4:44:32Z</time></trkpt>
<trkpt lat="48.446546" lon="2.665991"><ele></ele><time>2019-1-17T4:44:35Z</time></trkpt>
<trkpt lat="48.446661" lon="2.665878"><ele></ele><time>2019-1-17T4:44:38Z</time></trkpt>
<trkpt lat="48.446763" lon="2.665758"><ele></ele><time>2019-1-17T4:44:41Z</time></trkpt>
<trkpt lat="48.446859" lon="2.665639"><ele></ele><time>2019-1-17T4:44:44Z</time></trkpt>
<trkpt lat="48.446935" lon="2.665558"><ele></ele><time>2019-1-17T4:44:47Z</time></trkpt>
<trkpt lat="48.447012" lon="2.665459"><ele></ele><time>2019-1-17T4:44:50Z</time></trkpt>
<trkpt lat="48.447095" lon="2.665368"><ele></ele><time>2019-1-17T4:44:53Z</time></trkpt>
<trkpt lat="48.447179" lon="2.665291"><ele></ele><time>2019-1-17T4:44:56Z</time></trkpt>
<trkpt lat="48.447229" lon="2.665148"><ele></ele><time>2019-1-17T4:44:59Z</time></trkpt>
<trkpt lat="48.447327" lon="2.665079"><ele></ele><time>2019-1-17T4:45:2Z</time></trkpt>
<trkpt lat="48.447407" lon="2.664986"><ele></ele><time>2019-1-17T4:45:5Z</time></trkpt>
<trkpt lat="48.447505" lon="2.664921"><ele></ele><time>2019-1-17T4:45:8Z</time></trkpt>
<trkpt lat="48.447597" lon="2.664785"><ele></ele><time>2019-1-17T4:45:11Z</time></trkpt>
<trkpt lat="48.447684" lon="2.664712"><ele></ele><time>2019-1-17T4:45:14Z</time></trkpt>
<trkpt lat="48.447758" lon="2.664619"><ele></ele><time>2019-1-17T4:45:17Z</time></trkpt>
<trkpt lat="48.447831" lon="2.664476"><ele></ele><time>2019-1-17T4:45:20Z</time></trkpt>
<trkpt lat="48.44792" lon="2.664396"><ele></ele><time>2019-1-17T4:45:23Z</time></trkpt>
<trkpt lat="48.448005" lon="2.664325"><ele></ele><time>2019-1-17T4:45:26Z</time></trkpt>
<trkpt lat="48.448107" lon="2.66422"><ele></ele><time>2019-1-17T4:45:29Z</time></trkpt>
<trkpt lat="48.448202" lon="2.664123"><ele></ele><time>2019-1-17T4:45:32Z</time></trkpt>
<trkpt lat="48.448289" lon="2.664031"><ele></ele><time>2019-1-17T4:45:35Z</time></trkpt>
<trkpt lat="48.448329" lon="2.663906"><ele></ele><time>2019-1-17T4:45:38Z</time></trkpt>
<trkpt lat="48.448441" lon="2.663778"><ele></ele><time>2019-1-17T4:45:41Z</time></trkpt>
<trkpt lat="48.448521" lon="2.663648"><ele></ele><time>2019-1-17T4:45:44Z</time></trkpt>
<trkpt lat="48.448617" lon="2.663559"><ele></ele><time>2019-1-17T4:45:47Z</time></trkpt>
<trkpt lat="48.448695" lon="2.663452"><ele></ele><time>2019-1-17T4:45:50Z</time></trkpt>
<trkpt lat="48.448759" lon="2.663334"><ele></ele><time>2019-1-17T4:45:53Z</time></trkpt>
<trkpt lat="48.448852" lon="2.663224"><ele></ele><time>2019-1-17T4:45:56Z</time></trkpt>
<trkpt lat="48.448955" lon="2.663115"><ele></ele><time>2019-1-17T4:45:59Z</time></trkpt>
<trkpt lat="48.449042" lon="2.663016"><ele></ele><time>2019-1-17T4:46:2Z</time></trkpt>
<trkpt lat="48.449129" lon="2.662909"><ele></ele><time>2019-1-17T4:46:5Z</time></trkpt>
<trkpt lat="48.449231" lon="2.662837"><ele></ele><time>2019-1-17T4:46:8Z</time></trkpt>
<trkpt lat="48.449324" lon="2.662738"><ele></ele><time>2019-1-17T4:46:11Z</time></trkpt>
<trkpt lat="48.449391" lon="2.662646"><ele></ele><time>2019-1-17T4:46:14Z</time></trkpt>
<trkpt lat="48.449486" lon="2.66255"><ele></ele><time>2019-1-17T4:46:17Z</time></trkpt>
<trkpt lat="48.449595" lon="2.662446"><ele></ele><time>2019-1-17T4:46:20Z</time></trkpt>
<trkpt lat="48.449689" lon="2.662349"><ele></ele><time>2019-1-17T4:46:23Z</time></trkpt>
<trkpt lat="48.449801" lon="2.662228"><ele></ele><time>2019-1-17T4:46:26Z</time></trkpt>
<trkpt lat="48.449898" lon="2.662123"><ele></ele><time>2019-1-17T4:46:29Z</time></trkpt>
<trkpt lat="48.449963" lon="2.66195"><ele></ele><time>2019-1-17T4:46:32Z</time></trkpt>
<trkpt lat="48.450019" lon="2.661812"><ele></ele><time>2019-1-17T4:46:35Z</time></trkpt>
<trkpt lat="48.450117" lon="2.661751"><ele></ele><time>2019-1-17T4:46:38Z</time></trkpt>
<trkpt lat="48.450173" lon="2.661595"><ele></ele><time>2019-1-17T4:46:41Z</time></trkpt>
<trkpt lat="48.45029" lon="2.661482"><ele></ele><time>2019-1-17T4:46:44Z</time></trkpt>
<trkpt lat="48.450352" lon="2.661347"><ele></ele><time>2019-1-17T4:46:47Z</time></trkpt>
<trkpt lat="48.450431" lon="2.661239"><ele></ele><time>2019-1-17T4:46:50Z</time></trkpt>
<trkpt lat="48.450523" lon="2.661177"><ele></ele><time>2019-1-17T4:46:53Z</time></trkpt>
<trkpt lat="48.450586" lon="2.661074"><ele></ele><time>2019-1-17T4:46:56Z</time></trkpt>
<trkpt lat="48.450678" lon="2.660994"><ele></ele><time>2019-1-17T4:46:59Z</time></trkpt>
<trkpt lat="48.450759" lon="2.660904"><ele></ele><time>2019-1-17T4:47:2Z</time></trkpt>
<trkpt lat="48.450845" lon="2.660803"><ele></ele><time>2019-1-17T4:47:5Z</time></trkpt>
<trkpt lat="48.450915" lon="2.660689"><ele></ele><time>2019-1-17T4:47:8Z</time></trkpt>
<trkpt lat="48.450983" lon="2.660555"><ele></ele><time>2019-1-17T4:47:11Z</time></trkpt>
<trkpt lat="48.451087" lon="2.660483"><ele></ele><time>2019-1-17T4:47:14Z</time></trkpt>
<trkpt lat="48.451161" lon="2.660402"><ele></ele><time>2019-1-17T4:47:17Z</time></trkpt>
<trkpt lat="48.451252" lon="2.660285"><ele></ele><time>2019-1-17T4:47:20Z</time></trkpt>
<trkpt lat="48.451349" lon="2.660203"><ele></ele><time>2019-1-17T4:47:23Z</time></trkpt>
<trkpt lat="48.451439" lon="2.660133"><ele></ele><time>2019-1-17T4:47:26Z</time></trkpt>
<trkpt lat="48.451519" lon="2.66001"><ele></ele><time>2019-1-17T4:47:29Z</time></trkpt>
<trkpt lat="48.45155" lon="2.659862"><ele></ele><time>2019-1-17T4:47:32Z</time></trkpt>
<trkpt lat="48.451613" lon="2.659753"><ele></ele><time>2019-1-17T4:47:35Z</time></trkpt>
<trkpt lat="48.451696" lon="2.659627"><ele></ele><time>2019-1-17T4:47:38Z</time></trkpt>
<trkpt lat="48.451788" lon="2.659568"><ele></ele><time>2019-1-17T4:47:41Z</time></trkpt>
<trkpt lat="48.451868" lon="2.659498"><ele></ele><time>2019-1-17T4:47:44Z</time></trkpt>
<trkpt lat="48.451957" lon="2.659456"><ele></ele><time>2019-1-17T4:47:47Z</time></trkpt>
<trkpt lat="48.452054" lon="2.659418"><ele></ele><time>2019-1-17T4:47:50Z</time></trkpt>
<trkpt lat="48.452198" lon="2.659402"><ele></ele><time>2019-1-17T4:47:53Z</time></trkpt>
<trkpt lat="48.452282" lon="2.659452"><ele></ele><time>2019-1-17T4:47:56Z</time></trkpt>
<trkpt lat="48.452376" lon="2.659459"><ele></ele><time>2019-1-17T4:47:59Z</time></trkpt>
<trkpt lat="48.452494" lon="2.659464"><ele></ele><time>2019-1-17T4:48:2Z</time></trkpt>
<trkpt lat="48.452621" lon="2.65952"><ele></ele><time>2019-1-17T4:48:5Z</time></trkpt>
<trkpt lat="48.452731" lon="2.659547"><ele></ele><time>2019-1-17T4:48:8Z</time></trkpt>
<trkpt lat="48.452829" lon="2.659553"><ele></ele><time>2019-1-17T4:48:11Z</time></trkpt>
<trkpt lat="48.452952" lon="2.659573"><ele></ele><time>2019-1-17T4:48:14Z</time></trkpt>
<trkpt lat="48.453095" lon="2.659585"><ele></ele><time>2019-1-17T4:48:17Z</time></trkpt>
<trkpt lat="48.453179" lon="2.659515"><ele></ele><time>2019-1-17T4:48:20Z</time></trkpt>
<trkpt lat="48.45333" lon="2.659654"><ele></ele><time>2019-1-17T4:48:23Z</time></trkpt>
<trkpt lat="48.453508" lon="2.659642"><ele></ele><time>2019-1-17T4:48:26Z</time></trkpt>
<trkpt lat="48.453643" lon="2.659657"><ele></ele><time>2019-1-17T4:48:29Z</time></trkpt>
<trkpt lat="48.45377" lon="2.659659"><ele></ele><time>2019-1-17T4:48:32Z</time></trkpt>
<trkpt lat="48.453873" lon="2.65962"><ele></ele><time>2019-1-17T4:48:35Z</time></trkpt>
<trkpt lat="48.453976" lon="2.659714"><ele></ele><time>2019-1-17T4:48:38Z</time></trkpt>
<trkpt lat="48.454099" lon="2.659771"><ele></ele><time>2019-1-17T4:48:41Z</time></trkpt>
<trkpt lat="48.454183" lon="2.65983"><ele></ele><time>2019-1-17T4:48:44Z</time></trkpt>
<trkpt lat="48.454334" lon="2.659876"><ele></ele><time>2019-1-17T4:48:47Z</time></trkpt>
<trkpt lat="48.454443" lon="2.659699"><ele></ele><time>2019-1-17T4:48:50Z</time></trkpt>
<trkpt lat="48.45456" lon="2.659757"><ele></ele><time>2019-1-17T4:48:53Z</time></trkpt>
<trkpt lat="48.45466" lon="2.659787"><ele></ele><time>2019-1-17T4:48:56Z</time></trkpt>
<trkpt lat="48.454783" lon="2.659866"><ele></ele><time>2019-1-17T4:48:59Z</time></trkpt>
<trkpt lat="48.454884" lon="2.65987"><ele></ele><time>2019-1-17T4:49:2Z</time></trkpt>
<trkpt lat="48.454991" lon="2.65993"><ele></ele><time>2019-1-17T4:49:5Z</time></trkpt>
<trkpt lat="48.4551" lon="2.659934"><ele></ele><time>2019-1-17T4:49:8Z</time></trkpt>
<trkpt lat="48.455222" lon="2.659956"><ele></ele><time>2019-1-17T4:49:11Z</time></trkpt>
<trkpt lat="48.455353" lon="2.659997"><ele></ele><time>2019-1-17T4:49:14Z</time></trkpt>
<trkpt lat="48.455479" lon="2.659949"><ele></ele><time>2019-1-17T4:49:17Z</time></trkpt>
<trkpt lat="48.455579" lon="2.659975"><ele></ele><time>2019-1-17T4:49:20Z</time></trkpt>
<trkpt lat="48.455716" lon="2.660027"><ele></ele><time>2019-1-17T4:49:23Z</time></trkpt>
<trkpt lat="48.455799" lon="2.660099"><ele></ele><time>2019-1-17T4:49:26Z</time></trkpt>
<trkpt lat="48.455908" lon="2.660143"><ele></ele><time>2019-1-17T4:49:29Z</time></trkpt>
<trkpt lat="48.456064" lon="2.660137"><ele></ele><time>2019-1-17T4:49:32Z</time></trkpt>
<trkpt lat="48.456149" lon="2.66"><ele></ele><time>2019-1-17T4:49:35Z</time></trkpt>
<trkpt lat="48.456214" lon="2.659872"><ele></ele><time>2019-1-17T4:49:38Z</time></trkpt>
<trkpt lat="48.456258" lon="2.659735"><ele></ele><time>2019-1-17T4:49:41Z</time></trkpt>
<trkpt lat="48.456327" lon="2.659565"><ele></ele><time>2019-1-17T4:49:44Z</time></trkpt>
<trkpt lat="48.456392" lon="2.659464"><ele></ele><time>2019-1-17T4:49:47Z</time></trkpt>
<trkpt lat="48.456467" lon="2.659318"><ele></ele><time>2019-1-17T4:49:50Z</time></trkpt>
<trkpt lat="48.456472" lon="2.659175"><ele></ele><time>2019-1-17T4:49:53Z</time></trkpt>
<trkpt lat="48.45651" lon="2.658968"><ele></ele><time>2019-1-17T4:49:56Z</time></trkpt>
<trkpt lat="48.456593" lon="2.658834"><ele></ele><time>2019-1-17T4:49:59Z</time></trkpt>
<trkpt lat="48.45664" lon="2.658674"><ele></ele><time>2019-1-17T4:50:2Z</time></trkpt>
<trkpt lat="48.456654" lon="2.658511"><ele></ele><time>2019-1-17T4:50:5Z</time></trkpt>
<trkpt lat="48.456729" lon="2.658301"><ele></ele><time>2019-1-17T4:50:8Z</time></trkpt>
<trkpt lat="48.456811" lon="2.658129"><ele></ele><time>2019-1-17T4:50:11Z</time></trkpt>
<trkpt lat="48.456875" lon="2.657975"><ele></ele><time>2019-1-17T4:50:14Z</time></trkpt>
<trkpt lat="48.456967" lon="2.657837"><ele></ele><time>2019-1-17T4:50:17Z</time></trkpt>
<trkpt lat="48.457094" lon="2.657744"><ele></ele><time>2019-1-17T4:50:20Z</time></trkpt>
<trkpt lat="48.457186" lon="2.657663"><ele></ele><time>2019-1-17T4:50:23Z</time></trkpt>
<trkpt lat="48.457277" lon="2.657609"><ele></ele><time>2019-1-17T4:50:26Z</time></trkpt>
<trkpt lat="48.45741" lon="2.65758"><ele></ele><time>2019-1-17T4:50:29Z</time></trkpt>
<trkpt lat="48.457504" lon="2.657564"><ele></ele><time>2019-1-17T4:50:32Z</time></trkpt>
<trkpt lat="48.457509" lon="2.657769"><ele></ele><time>2019-1-17T4:50:35Z</time></trkpt>
<trkpt lat="48.457546" lon="2.657939"><ele></ele><time>2019-1-17T4:50:38Z</time></trkpt>
<trkpt lat="48.457612" lon="2.658102"><ele></ele><time>2019-1-17T4:50:41Z</time></trkpt>
<trkpt lat="48.457746" lon="2.658114"><ele></ele><time>2019-1-17T4:50:44Z</time></trkpt>
<trkpt lat="48.457871" lon="2.658136"><ele></ele><time>2019-1-17T4:50:47Z</time></trkpt>
<trkpt lat="48.457958" lon="2.658227"><ele></ele><time>2019-1-17T4:50:50Z</time></trkpt>
<trkpt lat="48.458042" lon="2.658394"><ele></ele><time>2019-1-17T4:50:53Z</time></trkpt>
<trkpt lat="48.458122" lon="2.658618"><ele></ele><time>2019-1-17T4:50:56Z</time></trkpt>
<trkpt lat="48.458222" lon="2.658778"><ele></ele><time>2019-1-17T4:50:59Z</time></trkpt>
<trkpt lat="48.458333" lon="2.658969"><ele></ele><time>2019-1-17T4:51:2Z</time></trkpt>
<trkpt lat="48.458418" lon="2.65911"><ele></ele><time>2019-1-17T4:51:5Z</time></trkpt>
<trkpt lat="48.458499" lon="2.65927"><ele></ele><time>2019-1-17T4:51:8Z</time></trkpt>
<trkpt lat="48.458476" lon="2.659433"><ele></ele><time>2019-1-17T4:51:11Z</time></trkpt>
<trkpt lat="48.458464" lon="2.65959"><ele></ele><time>2019-1-17T4:51:14Z</time></trkpt>
<trkpt lat="48.458466" lon="2.659781"><ele></ele><time>2019-1-17T4:51:17Z</time></trkpt>
<trkpt lat="48.458447" lon="2.659933"><ele></ele><time>2019-1-17T4:51:20Z</time></trkpt>
<trkpt lat="48.458411" lon="2.660066"><ele></ele><time>2019-1-17T4:51:23Z</time></trkpt>
<trkpt lat="48.45846" lon="2.66019"><ele></ele><time>2019-1-17T4:51:26Z</time></trkpt>
<trkpt lat="48.458476" lon="2.660378"><ele></ele><time>2019-1-17T4:51:29Z</time></trkpt>
<trkpt lat="48.458538" lon="2.660538"><ele></ele><time>2019-1-17T4:51:32Z</time></trkpt>
<trkpt lat="48.458624" lon="2.660701"><ele></ele><time>2019-1-17T4:51:35Z</time></trkpt>
<trkpt lat="48.458706" lon="2.660803"><ele></ele><time>2019-1-17T4:51:38Z</time></trkpt>
<trkpt lat="48.458849" lon="2.660862"><ele></ele><time>2019-1-17T4:51:41Z</time></trkpt>
<trkpt lat="48.458945" lon="2.660892"><ele></ele><time>2019-1-17T4:51:44Z</time></trkpt>
<trkpt lat="48.459054" lon="2.66098"><ele></ele><time>2019-1-17T4:51:47Z</time></trkpt>
<trkpt lat="48.459143" lon="2.661037"><ele></ele><time>2019-1-17T4:51:50Z</time></trkpt>
<trkpt lat="48.459229" lon="2.661118"><ele></ele><time>2019-1-17T4:51:53Z</time></trkpt>
<trkpt lat="48.459356" lon="2.66121"><ele></ele><time>2019-1-17T4:51:56Z</time></trkpt>
<trkpt lat="48.459466" lon="2.661298"><ele></ele><time>2019-1-17T4:51:59Z</time></trkpt>
<trkpt lat="48.459617" lon="2.661347"><ele></ele><time>2019-1-17T4:52:2Z</time></trkpt>
<trkpt lat="48.459754" lon="2.661388"><ele></ele><time>2019-1-17T4:52:5Z</time></trkpt>
<trkpt lat="48.459841" lon="2.661425"><ele></ele><time>2019-1-17T4:52:8Z</time></trkpt>
<trkpt lat="48.459962" lon="2.661416"><ele></ele><time>2019-1-17T4:52:11Z</time></trkpt>
<trkpt lat="48.460044" lon="2.661332"><ele></ele><time>2019-1-17T4:52:14Z</time></trkpt>
<trkpt lat="48.460164" lon="2.661259"><ele></ele><time>2019-1-17T4:52:17Z</time></trkpt>
<trkpt lat="48.460272" lon="2.661228"><ele></ele><time>2019-1-17T4:52:20Z</time></trkpt>
<trkpt lat="48.460406" lon="2.66119"><ele></ele><time>2019-1-17T4:52:23Z</time></trkpt>
<trkpt lat="48.460466" lon="2.661088"><ele></ele><time>2019-1-17T4:52:26Z</time></trkpt>
<trkpt lat="48.460448" lon="2.660951"><ele></ele><time>2019-1-17T4:52:29Z</time></trkpt>
<trkpt lat="48.460526" lon="2.660813"><ele></ele><time>2019-1-17T4:52:32Z</time></trkpt>
<trkpt lat="48.460596" lon="2.660714"><ele></ele><time>2019-1-17T4:52:35Z</time></trkpt>
<trkpt lat="48.460666" lon="2.660611"><ele></ele><time>2019-1-17T4:52:38Z</time></trkpt>
<trkpt lat="48.460816" lon="2.660547"><ele></ele><time>2019-1-17T4:52:41Z</time></trkpt>
<trkpt lat="48.460903" lon="2.660506"><ele></ele><time>2019-1-17T4:52:44Z</time></trkpt>
<trkpt lat="48.461004" lon="2.660542"><ele></ele><time>2019-1-17T4:52:47Z</time></trkpt>
<trkpt lat="48.461077" lon="2.660444"><ele></ele><time>2019-1-17T4:52:50Z</time></trkpt>
<trkpt lat="48.461183" lon="2.660377"><ele></ele><time>2019-1-17T4:52:53Z</time></trkpt>
<trkpt lat="48.46133" lon="2.660373"><ele></ele><time>2019-1-17T4:52:56Z</time></trkpt>
<trkpt lat="48.46142" lon="2.660426"><ele></ele><time>2019-1-17T4:52:59Z</time></trkpt>
<trkpt lat="48.461517" lon="2.660466"><ele></ele><time>2019-1-17T4:53:2Z</time></trkpt>
<trkpt lat="48.461611" lon="2.660533"><ele></ele><time>2019-1-17T4:53:5Z</time></trkpt>
<trkpt lat="48.461748" lon="2.660487"><ele></ele><time>2019-1-17T4:53:8Z</time></trkpt>
<trkpt lat="48.46186" lon="2.660438"><ele></ele><time>2019-1-17T4:53:11Z</time></trkpt>
<trkpt lat="48.461992" lon="2.660355"><ele></ele><time>2019-1-17T4:53:14Z</time></trkpt>
<trkpt lat="48.462109" lon="2.660353"><ele></ele><time>2019-1-17T4:53:17Z</time></trkpt>
<trkpt lat="48.462223" lon="2.660274"><ele></ele><time>2019-1-17T4:53:20Z</time></trkpt>
<trkpt lat="48.462337" lon="2.660221"><ele></ele><time>2019-1-17T4:53:23Z</time></trkpt>
<trkpt lat="48.462493" lon="2.660119"><ele></ele><time>2019-1-17T4:53:26Z</time></trkpt>
<trkpt lat="48.462569" lon="2.66003"><ele></ele><time>2019-1-17T4:53:29Z</time></trkpt>
<trkpt lat="48.462677" lon="2.66003"><ele></ele><time>2019-1-17T4:53:32Z</time></trkpt>
<trkpt lat="48.46278" lon="2.659964"><ele></ele><time>2019-1-17T4:53:35Z</time></trkpt>
<trkpt lat="48.462861" lon="2.659899"><ele></ele><time>2019-1-17T4:53:38Z</time></trkpt>
<trkpt lat="48.462937" lon="2.659787"><ele></ele><time>2019-1-17T4:53:41Z</time></trkpt>
<trkpt lat="48.463038" lon="2.659688"><ele></ele><time>2019-1-17T4:53:44Z</time></trkpt>
<trkpt lat="48.463111" lon="2.659579"><ele></ele><time>2019-1-17T4:53:47Z</time></trkpt>
<trkpt lat="48.463213" lon="2.659534"><ele></ele><time>2019-1-17T4:53:50Z</time></trkpt>
<trkpt lat="48.463298" lon="2.659473"><ele></ele><time>2019-1-17T4:53:53Z</time></trkpt>
<trkpt lat="48.463405" lon="2.659382"><ele></ele><time>2019-1-17T4:53:56Z</time></trkpt>
<trkpt lat="48.463566" lon="2.659213"><ele></ele><time>2019-1-17T4:53:59Z</time></trkpt>
<trkpt lat="48.463701" lon="2.659183"><ele></ele><time>2019-1-17T4:54:2Z</time></trkpt>
<trkpt lat="48.463851" lon="2.659107"><ele></ele><time>2019-1-17T4:54:5Z</time></trkpt>
<trkpt lat="48.463957" lon="2.659004"><ele></ele><time>2019-1-17T4:54:8Z</time></trkpt>
<trkpt lat="48.46411" lon="2.658929"><ele></ele><time>2019-1-17T4:54:11Z</time></trkpt>
<trkpt lat="48.464127" lon="2.658781"><ele></ele><time>2019-1-17T4:54:14Z</time></trkpt>
<trkpt lat="48.46424" lon="2.65869"><ele></ele><time>2019-1-17T4:54:17Z</time></trkpt>
<trkpt lat="48.464336" lon="2.658605"><ele></ele><time>2019-1-17T4:54:20Z</time></trkpt>
<trkpt lat="48.464452" lon="2.658539"><ele></ele><time>2019-1-17T4:54:23Z</time></trkpt>
<trkpt lat="48.464549" lon="2.65847"><ele></ele><time>2019-1-17T4:54:26Z</time></trkpt>
<trkpt lat="48.464668" lon="2.658461"><ele></ele><time>2019-1-17T4:54:29Z</time></trkpt>
<trkpt lat="48.464788" lon="2.658496"><ele></ele><time>2019-1-17T4:54:32Z</time></trkpt>
<trkpt lat="48.464929" lon="2.658469"><ele></ele><time>2019-1-17T4:54:35Z</time></trkpt>
<trkpt lat="48.46508" lon="2.658435"><ele></ele><time>2019-1-17T4:54:38Z</time></trkpt>
<trkpt lat="48.465197" lon="2.658436"><ele></ele><time>2019-1-17T4:54:41Z</time></trkpt>
<trkpt lat="48.465303" lon="2.658438"><ele></ele><time>2019-1-17T4:54:44Z</time></trkpt>
<trkpt lat="48.465454" lon="2.658371"><ele></ele><time>2019-1-17T4:54:47Z</time></trkpt>
<trkpt lat="48.465542" lon="2.658462"><ele></ele><time>2019-1-17T4:54:50Z</time></trkpt>
<trkpt lat="48.465669" lon="2.658433"><ele></ele><time>2019-1-17T4:54:53Z</time></trkpt>
<trkpt lat="48.465778" lon="2.658397"><ele></ele><time>2019-1-17T4:54:56Z</time></trkpt>
<trkpt lat="48.465881" lon="2.658325"><ele></ele><time>2019-1-17T4:54:59Z</time></trkpt>
<trkpt lat="48.46604" lon="2.658354"><ele></ele><time>2019-1-17T4:55:2Z</time></trkpt>
<trkpt lat="48.466182" lon="2.658384"><ele></ele><time>2019-1-17T4:55:5Z</time></trkpt>
<trkpt lat="48.466276" lon="2.658384"><ele></ele><time>2019-1-17T4:55:8Z</time></trkpt>
<trkpt lat="48.466379" lon="2.658401"><ele></ele><time>2019-1-17T4:55:11Z</time></trkpt>
<trkpt lat="48.466513" lon="2.658424"><ele></ele><time>2019-1-17T4:55:14Z</time></trkpt>
<trkpt lat="48.466644" lon="2.658462"><ele></ele><time>2019-1-17T4:55:17Z</time></trkpt>
<trkpt lat="48.466731" lon="2.658425"><ele></ele><time>2019-1-17T4:55:20Z</time></trkpt>
<trkpt lat="48.466866" lon="2.65839"><ele></ele><time>2019-1-17T4:55:23Z</time></trkpt>
<trkpt lat="48.467008" lon="2.658441"><ele></ele><time>2019-1-17T4:55:26Z</time></trkpt>
<trkpt lat="48.467115" lon="2.658441"><ele></ele><time>2019-1-17T4:55:29Z</time></trkpt>
<trkpt lat="48.467241" lon="2.658481"><ele></ele><time>2019-1-17T4:55:32Z</time></trkpt>
<trkpt lat="48.467397" lon="2.658555"><ele></ele><time>2019-1-17T4:55:35Z</time></trkpt>
<trkpt lat="48.467524" lon="2.658556"><ele></ele><time>2019-1-17T4:55:38Z</time></trkpt>
<trkpt lat="48.467638" lon="2.658522"><ele></ele><time>2019-1-17T4:55:41Z</time></trkpt>
<trkpt lat="48.467814" lon="2.658516"><ele></ele><time>2019-1-17T4:55:44Z</time></trkpt>
<trkpt lat="48.467955" lon="2.658604"><ele></ele><time>2019-1-17T4:55:47Z</time></trkpt>
<trkpt lat="48.468082" lon="2.658603"><ele></ele><time>2019-1-17T4:55:50Z</time></trkpt>
<trkpt lat="48.468202" lon="2.658627"><ele></ele><time>2019-1-17T4:55:53Z</time></trkpt>
<trkpt lat="48.468322" lon="2.658642"><ele></ele><time>2019-1-17T4:55:56Z</time></trkpt>
<trkpt lat="48.468453" lon="2.658639"><ele></ele><time>2019-1-17T4:55:59Z</time></trkpt>
<trkpt lat="48.468581" lon="2.658661"><ele></ele><time>2019-1-17T4:56:2Z</time></trkpt>
<trkpt lat="48.468725" lon="2.658689"><ele></ele><time>2019-1-17T4:56:5Z</time></trkpt>
<trkpt lat="48.468846" lon="2.658694"><ele></ele><time>2019-1-17T4:56:8Z</time></trkpt>
<trkpt lat="48.468943" lon="2.658664"><ele></ele><time>2019-1-17T4:56:11Z</time></trkpt>
<trkpt lat="48.469035" lon="2.658692"><ele></ele><time>2019-1-17T4:56:14Z</time></trkpt>
<trkpt lat="48.469171" lon="2.658678"><ele></ele><time>2019-1-17T4:56:17Z</time></trkpt>
<trkpt lat="48.469322" lon="2.658647"><ele></ele><time>2019-1-17T4:56:20Z</time></trkpt>
<trkpt lat="48.469427" lon="2.65867"><ele></ele><time>2019-1-17T4:56:23Z</time></trkpt>
<trkpt lat="48.469553" lon="2.658686"><ele></ele><time>2019-1-17T4:56:26Z</time></trkpt>
<trkpt lat="48.469653" lon="2.658711"><ele></ele><time>2019-1-17T4:56:29Z</time></trkpt>
<trkpt lat="48.469789" lon="2.658721"><ele></ele><time>2019-1-17T4:56:32Z</time></trkpt>
<trkpt lat="48.46989" lon="2.658743"><ele></ele><time>2019-1-17T4:56:35Z</time></trkpt>
<trkpt lat="48.470014" lon="2.658781"><ele></ele><time>2019-1-17T4:56:38Z</time></trkpt>
<trkpt lat="48.470139" lon="2.658806"><ele></ele><time>2019-1-17T4:56:41Z</time></trkpt>
<trkpt lat="48.470263" lon="2.658833"><ele></ele><time>2019-1-17T4:56:44Z</time></trkpt>
<trkpt lat="48.470375" lon="2.65882"><ele></ele><time>2019-1-17T4:56:47Z</time></trkpt>
<trkpt lat="48.470506" lon="2.658831"><ele></ele><time>2019-1-17T4:56:50Z</time></trkpt>
<trkpt lat="48.470613" lon="2.658803"><ele></ele><time>2019-1-17T4:56:53Z</time></trkpt>
<trkpt lat="48.470728" lon="2.658821"><ele></ele><time>2019-1-17T4:56:56Z</time></trkpt>
<trkpt lat="48.470829" lon="2.658833"><ele></ele><time>2019-1-17T4:56:59Z</time></trkpt>
<trkpt lat="48.470946" lon="2.658797"><ele></ele><time>2019-1-17T4:57:2Z</time></trkpt>
<trkpt lat="48.47103" lon="2.658743"><ele></ele><time>2019-1-17T4:57:5Z</time></trkpt>
<trkpt lat="48.471152" lon="2.658665"><ele></ele><time>2019-1-17T4:57:8Z</time></trkpt>
<trkpt lat="48.471259" lon="2.658625"><ele></ele><time>2019-1-17T4:57:11Z</time></trkpt>
<trkpt lat="48.471372" lon="2.658539"><ele></ele><time>2019-1-17T4:57:14Z</time></trkpt>
<trkpt lat="48.471492" lon="2.65847"><ele></ele><time>2019-1-17T4:57:17Z</time></trkpt>
<trkpt lat="48.471604" lon="2.658465"><ele></ele><time>2019-1-17T4:57:20Z</time></trkpt>
<trkpt lat="48.471692" lon="2.65839"><ele></ele><time>2019-1-17T4:57:23Z</time></trkpt>
<trkpt lat="48.471771" lon="2.658309"><ele></ele><time>2019-1-17T4:57:26Z</time></trkpt>
<trkpt lat="48.471898" lon="2.658159"><ele></ele><time>2019-1-17T4:57:29Z</time></trkpt>
<trkpt lat="48.471997" lon="2.658103"><ele></ele><time>2019-1-17T4:57:32Z</time></trkpt>
<trkpt lat="48.472069" lon="2.658019"><ele></ele><time>2019-1-17T4:57:35Z</time></trkpt>
<trkpt lat="48.472194" lon="2.657993"><ele></ele><time>2019-1-17T4:57:38Z</time></trkpt>
<trkpt lat="48.472288" lon="2.657919"><ele></ele><time>2019-1-17T4:57:41Z</time></trkpt>
<trkpt lat="48.472342" lon="2.657792"><ele></ele><time>2019-1-17T4:57:44Z</time></trkpt>
<trkpt lat="48.472433" lon="2.657709"><ele></ele><time>2019-1-17T4:57:47Z</time></trkpt>
<trkpt lat="48.472534" lon="2.657657"><ele></ele><time>2019-1-17T4:57:50Z</time></trkpt>
<trkpt lat="48.472609" lon="2.657569"><ele></ele><time>2019-1-17T4:57:53Z</time></trkpt>
<trkpt lat="48.472703" lon="2.657516"><ele></ele><time>2019-1-17T4:57:56Z</time></trkpt>
<trkpt lat="48.472794" lon="2.657422"><ele></ele><time>2019-1-17T4:57:59Z</time></trkpt>
<trkpt lat="48.472869" lon="2.657328"><ele></ele><time>2019-1-17T4:58:2Z</time></trkpt>
<trkpt lat="48.472923" lon="2.657182"><ele></ele><time>2019-1-17T4:58:5Z</time></trkpt>
<trkpt lat="48.473024" lon="2.657141"><ele></ele><time>2019-1-17T4:58:8Z</time></trkpt>
<trkpt lat="48.473143" lon="2.657099"><ele></ele><time>2019-1-17T4:58:11Z</time></trkpt>
<trkpt lat="48.473236" lon="2.657041"><ele></ele><time>2019-1-17T4:58:14Z</time></trkpt>
<trkpt lat="48.473358" lon="2.656988"><ele></ele><time>2019-1-17T4:58:17Z</time></trkpt>
<trkpt lat="48.473455" lon="2.656898"><ele></ele><time>2019-1-17T4:58:20Z</time></trkpt>
<trkpt lat="48.473562" lon="2.656865"><ele></ele><time>2019-1-17T4:58:23Z</time></trkpt>
<trkpt lat="48.473675" lon="2.656751"><ele></ele><time>2019-1-17T4:58:26Z</time></trkpt>
<trkpt lat="48.473787" lon="2.656689"><ele></ele><time>2019-1-17T4:58:29Z</time></trkpt>
<trkpt lat="48.473899" lon="2.656613"><ele></ele><time>2019-1-17T4:58:32Z</time></trkpt>
<trkpt lat="48.474021" lon="2.656514"><ele></ele><time>2019-1-17T4:58:35Z</time></trkpt>
<trkpt lat="48.474101" lon="2.656427"><ele></ele><time>2019-1-17T4:58:38Z</time></trkpt>
<trkpt lat="48.474195" lon="2.656356"><ele></ele><time>2019-1-17T4:58:41Z</time></trkpt>
<trkpt lat="48.474274" lon="2.656254"><ele></ele><time>2019-1-17T4:58:44Z</time></trkpt>
<trkpt lat="48.474371" lon="2.656181"><ele></ele><time>2019-1-17T4:58:47Z</time></trkpt>
<trkpt lat="48.47447" lon="2.656093"><ele></ele><time>2019-1-17T4:58:50Z</time></trkpt>
<trkpt lat="48.474547" lon="2.65598"><ele></ele><time>2019-1-17T4:58:53Z</time></trkpt>
<trkpt lat="48.474662" lon="2.655863"><ele></ele><time>2019-1-17T4:58:56Z</time></trkpt>
<trkpt lat="48.474776" lon="2.655721"><ele></ele><time>2019-1-17T4:58:59Z</time></trkpt>
<trkpt lat="48.474883" lon="2.655701"><ele></ele><time>2019-1-17T4:59:2Z</time></trkpt>
<trkpt lat="48.474971" lon="2.655623"><ele></ele><time>2019-1-17T4:59:5Z</time></trkpt>
<trkpt lat="48.475048" lon="2.655522"><ele></ele><time>2019-1-17T4:59:8Z</time></trkpt>
<trkpt lat="48.475156" lon="2.655413"><ele></ele><time>2019-1-17T4:59:11Z</time></trkpt>
<trkpt lat="48.475226" lon="2.655283"><ele></ele><time>2019-1-17T4:59:14Z</time></trkpt>
<trkpt lat="48.475317" lon="2.655202"><ele></ele><time>2019-1-17T4:59:17Z</time></trkpt>
<trkpt lat="48.475393" lon="2.655121"><ele></ele><time>2019-1-17T4:59:20Z</time></trkpt>
<trkpt lat="48.475495" lon="2.65506"><ele></ele><time>2019-1-17T4:59:23Z</time></trkpt>
<trkpt lat="48.475609" lon="2.65501"><ele></ele><time>2019-1-17T4:59:26Z</time></trkpt>
<trkpt lat="48.475762" lon="2.65494"><ele></ele><time>2019-1-17T4:59:29Z</time></trkpt>
<trkpt lat="48.475865" lon="2.654878"><ele></ele><time>2019-1-17T4:59:32Z</time></trkpt>
<trkpt lat="48.475949" lon="2.654797"><ele></ele><time>2019-1-17T4:59:35Z</time></trkpt>
<trkpt lat="48.476059" lon="2.654759"><ele></ele><time>2019-1-17T4:59:38Z</time></trkpt>
<trkpt lat="48.4762" lon="2.654657"><ele></ele><time>2019-1-17T4:59:41Z</time></trkpt>
<trkpt lat="48.476297" lon="2.654594"><ele></ele><time>2019-1-17T4:59:44Z</time></trkpt>
<trkpt lat="48.47641" lon="2.654521"><ele></ele><time>2019-1-17T4:59:47Z</time></trkpt>
<trkpt lat="48.476554" lon="2.654406"><ele></ele><time>2019-1-17T4:59:50Z</time></trkpt>
<trkpt lat="48.47665" lon="2.654248"><ele></ele><time>2019-1-17T4:59:53Z</time></trkpt>
<trkpt lat="48.476733" lon="2.654121"><ele></ele><time>2019-1-17T4:59:56Z</time></trkpt>
<trkpt lat="48.47684" lon="2.654061"><ele></ele><time>2019-1-17T4:59:59Z</time></trkpt>
<trkpt lat="48.47695" lon="2.65392"><ele></ele><time>2019-1-17T5:0:2Z</time></trkpt>
<trkpt lat="48.477059" lon="2.653849"><ele></ele><time>2019-1-17T5:0:5Z</time></trkpt>
<trkpt lat="48.477155" lon="2.653812"><ele></ele><time>2019-1-17T5:0:8Z</time></trkpt>
<trkpt lat="48.477299" lon="2.653722"><ele></ele><time>2019-1-17T5:0:11Z</time></trkpt>
<trkpt lat="48.477361" lon="2.653622"><ele></ele><time>2019-1-17T5:0:14Z</time></trkpt>
<trkpt lat="48.477456" lon="2.653528"><ele></ele><time>2019-1-17T5:0:17Z</time></trkpt>
<trkpt lat="48.477573" lon="2.65345"><ele></ele><time>2019-1-17T5:0:20Z</time></trkpt>
<trkpt lat="48.477658" lon="2.653383"><ele></ele><time>2019-1-17T5:0:23Z</time></trkpt>
<trkpt lat="48.477776" lon="2.65331"><ele></ele><time>2019-1-17T5:0:26Z</time></trkpt>
<trkpt lat="48.477896" lon="2.65315"><ele></ele><time>2019-1-17T5:0:29Z</time></trkpt>
<trkpt lat="48.477964" lon="2.653037"><ele></ele><time>2019-1-17T5:0:32Z</time></trkpt>
<trkpt lat="48.478064" lon="2.652956"><ele></ele><time>2019-1-17T5:0:35Z</time></trkpt>
<trkpt lat="48.478191" lon="2.652842"><ele></ele><time>2019-1-17T5:0:38Z</time></trkpt>
<trkpt lat="48.478356" lon="2.652794"><ele></ele><time>2019-1-17T5:0:41Z</time></trkpt>
<trkpt lat="48.478406" lon="2.652672"><ele></ele><time>2019-1-17T5:0:44Z</time></trkpt>
<trkpt lat="48.478504" lon="2.652579"><ele></ele><time>2019-1-17T5:0:47Z</time></trkpt>
<trkpt lat="48.478597" lon="2.65247"><ele></ele><time>2019-1-17T5:0:50Z</time></trkpt>
<trkpt lat="48.478719" lon="2.652404"><ele></ele><time>2019-1-17T5:0:53Z</time></trkpt>
<trkpt lat="48.478812" lon="2.652336"><ele></ele><time>2019-1-17T5:0:56Z</time></trkpt>
<trkpt lat="48.47897" lon="2.652285"><ele></ele><time>2019-1-17T5:0:59Z</time></trkpt>
<trkpt lat="48.478975" lon="2.652134"><ele></ele><time>2019-1-17T5:1:2Z</time></trkpt>
<trkpt lat="48.479078" lon="2.652095"><ele></ele><time>2019-1-17T5:1:5Z</time></trkpt>
<trkpt lat="48.479162" lon="2.652044"><ele></ele><time>2019-1-17T5:1:8Z</time></trkpt>
<trkpt lat="48.479247" lon="2.651971"><ele></ele><time>2019-1-17T5:1:11Z</time></trkpt>
<trkpt lat="48.479347" lon="2.651916"><ele></ele><time>2019-1-17T5:1:14Z</time></trkpt>
<trkpt lat="48.479406" lon="2.651773"><ele></ele><time>2019-1-17T5:1:17Z</time></trkpt>
<trkpt lat="48.479475" lon="2.651655"><ele></ele><time>2019-1-17T5:1:20Z</time></trkpt>
<trkpt lat="48.479561" lon="2.651552"><ele></ele><time>2019-1-17T5:1:23Z</time></trkpt>
<trkpt lat="48.479687" lon="2.651496"><ele></ele><time>2019-1-17T5:1:26Z</time></trkpt>
<trkpt lat="48.479807" lon="2.651488"><ele></ele><time>2019-1-17T5:1:29Z</time></trkpt>
<trkpt lat="48.479922" lon="2.651403"><ele></ele><time>2019-1-17T5:1:32Z</time></trkpt>
<trkpt lat="48.480016" lon="2.651254"><ele></ele><time>2019-1-17T5:1:35Z</time></trkpt>
<trkpt lat="48.480105" lon="2.651128"><ele></ele><time>2019-1-17T5:1:38Z</time></trkpt>
<trkpt lat="48.480213" lon="2.651075"><ele></ele><time>2019-1-17T5:1:41Z</time></trkpt>
<trkpt lat="48.480313" lon="2.651037"><ele></ele><time>2019-1-17T5:1:44Z</time></trkpt>
<trkpt lat="48.480417" lon="2.651023"><ele></ele><time>2019-1-17T5:1:47Z</time></trkpt>
<trkpt lat="48.480502" lon="2.650927"><ele></ele><time>2019-1-17T5:1:50Z</time></trkpt>
<trkpt lat="48.48058" lon="2.650843"><ele></ele><time>2019-1-17T5:1:53Z</time></trkpt>
<trkpt lat="48.480678" lon="2.65075"><ele></ele><time>2019-1-17T5:1:56Z</time></trkpt>
<trkpt lat="48.480808" lon="2.650692"><ele></ele><time>2019-1-17T5:1:59Z</time></trkpt>
<trkpt lat="48.480882" lon="2.650609"><ele></ele><time>2019-1-17T5:2:2Z</time></trkpt>
<trkpt lat="48.480985" lon="2.650537"><ele></ele><time>2019-1-17T5:2:5Z</time></trkpt>
<trkpt lat="48.481073" lon="2.650451"><ele></ele><time>2019-1-17T5:2:8Z</time></trkpt>
<trkpt lat="48.481149" lon="2.65034"><ele></ele><time>2019-1-17T5:2:11Z</time></trkpt>
<trkpt lat="48.481238" lon="2.650283"><ele></ele><time>2019-1-17T5:2:14Z</time></trkpt>
<trkpt lat="48.481336" lon="2.650163"><ele></ele><time>2019-1-17T5:2:17Z</time></trkpt>
<trkpt lat="48.481478" lon="2.650143"><ele></ele><time>2019-1-17T5:2:20Z</time></trkpt>
<trkpt lat="48.481525" lon="2.649975"><ele></ele><time>2019-1-17T5:2:23Z</time></trkpt>
<trkpt lat="48.481625" lon="2.649888"><ele></ele><time>2019-1-17T5:2:26Z</time></trkpt>
<trkpt lat="48.481679" lon="2.649764"><ele></ele><time>2019-1-17T5:2:29Z</time></trkpt>
<trkpt lat="48.481771" lon="2.649721"><ele></ele><time>2019-1-17T5:2:32Z</time></trkpt>
<trkpt lat="48.481877" lon="2.649645"><ele></ele><time>2019-1-17T5:2:35Z</time></trkpt>
<trkpt lat="48.481966" lon="2.649604"><ele></ele><time>2019-1-17T5:2:38Z</time></trkpt>
<trkpt lat="48.482086" lon="2.649559"><ele></ele><time>2019-1-17T5:2:41Z</time></trkpt>
<trkpt lat="48.482194" lon="2.649525"><ele></ele><time>2019-1-17T5:2:44Z</time></trkpt>
<trkpt lat="48.482277" lon="2.649422"><ele></ele><time>2019-1-17T5:2:47Z</time></trkpt>
<trkpt lat="48.482355" lon="2.649332"><ele></ele><time>2019-1-17T5:2:50Z</time></trkpt>
<trkpt lat="48.482448" lon="2.649296"><ele></ele><time>2019-1-17T5:2:53Z</time></trkpt>
<trkpt lat="48.482532" lon="2.649195"><ele></ele><time>2019-1-17T5:2:56Z</time></trkpt>
<trkpt lat="48.482635" lon="2.649127"><ele></ele><time>2019-1-17T5:2:59Z</time></trkpt>
<trkpt lat="48.482682" lon="2.648988"><ele></ele><time>2019-1-17T5:3:2Z</time></trkpt>
<trkpt lat="48.48277" lon="2.648922"><ele></ele><time>2019-1-17T5:3:5Z</time></trkpt>
<trkpt lat="48.482878" lon="2.648854"><ele></ele><time>2019-1-17T5:3:8Z</time></trkpt>
<trkpt lat="48.482957" lon="2.648765"><ele></ele><time>2019-1-17T5:3:11Z</time></trkpt>
<trkpt lat="48.483028" lon="2.648672"><ele></ele><time>2019-1-17T5:3:14Z</time></trkpt>
<trkpt lat="48.483125" lon="2.648619"><ele></ele><time>2019-1-17T5:3:17Z</time></trkpt>
<trkpt lat="48.483208" lon="2.648504"><ele></ele><time>2019-1-17T5:3:20Z</time></trkpt>
<trkpt lat="48.483339" lon="2.648431"><ele></ele><time>2019-1-17T5:3:23Z</time></trkpt>
<trkpt lat="48.483452" lon="2.648415"><ele></ele><time>2019-1-17T5:3:26Z</time></trkpt>
<trkpt lat="48.483535" lon="2.648357"><ele></ele><time>2019-1-17T5:3:29Z</time></trkpt>
<trkpt lat="48.483641" lon="2.648246"><ele></ele><time>2019-1-17T5:3:32Z</time></trkpt>
<trkpt lat="48.483748" lon="2.648147"><ele></ele><time>2019-1-17T5:3:35Z</time></trkpt>
<trkpt lat="48.483844" lon="2.648075"><ele></ele><time>2019-1-17T5:3:38Z</time></trkpt>
<trkpt lat="48.483975" lon="2.647963"><ele></ele><time>2019-1-17T5:3:41Z</time></trkpt>
<trkpt lat="48.484091" lon="2.64789"><ele></ele><time>2019-1-17T5:3:44Z</time></trkpt>
<trkpt lat="48.484147" lon="2.64778"><ele></ele><time>2019-1-17T5:3:47Z</time></trkpt>
<trkpt lat="48.484273" lon="2.647729"><ele></ele><time>2019-1-17T5:3:50Z</time></trkpt>
<trkpt lat="48.484378" lon="2.647697"><ele></ele><time>2019-1-17T5:3:53Z</time></trkpt>
<trkpt lat="48.484441" lon="2.6476"><ele></ele><time>2019-1-17T5:3:56Z</time></trkpt>
<trkpt lat="48.484519" lon="2.647476"><ele></ele><time>2019-1-17T5:3:59Z</time></trkpt>
<trkpt lat="48.484621" lon="2.647376"><ele></ele><time>2019-1-17T5:4:2Z</time></trkpt>
<trkpt lat="48.484699" lon="2.64729"><ele></ele><time>2019-1-17T5:4:5Z</time></trkpt>
<trkpt lat="48.484773" lon="2.647151"><ele></ele><time>2019-1-17T5:4:8Z</time></trkpt>
<trkpt lat="48.4849" lon="2.647033"><ele></ele><time>2019-1-17T5:4:11Z</time></trkpt>
<trkpt lat="48.485031" lon="2.646976"><ele></ele><time>2019-1-17T5:4:14Z</time></trkpt>
<trkpt lat="48.485129" lon="2.646816"><ele></ele><time>2019-1-17T5:4:17Z</time></trkpt>
<trkpt lat="48.485279" lon="2.646693"><ele></ele><time>2019-1-17T5:4:20Z</time></trkpt>
<trkpt lat="48.485405" lon="2.646602"><ele></ele><time>2019-1-17T5:4:23Z</time></trkpt>
<trkpt lat="48.485513" lon="2.646577"><ele></ele><time>2019-1-17T5:4:26Z</time></trkpt>
<trkpt lat="48.48561" lon="2.646548"><ele></ele><time>2019-1-17T5:4:29Z</time></trkpt>
<trkpt lat="48.485735" lon="2.646456"><ele></ele><time>2019-1-17T5:4:32Z</time></trkpt>
<trkpt lat="48.485811" lon="2.646383"><ele></ele><time>2019-1-17T5:4:35Z</time></trkpt>
<trkpt lat="48.485927" lon="2.646258"><ele></ele><time>2019-1-17T5:4:38Z</time></trkpt>
<trkpt lat="48.486014" lon="2.646206"><ele></ele><time>2019-1-17T5:4:41Z</time></trkpt>
<trkpt lat="48.486139" lon="2.646092"><ele></ele><time>2019-1-17T5:4:44Z</time></trkpt>
<trkpt lat="48.486293" lon="2.645976"><ele></ele><time>2019-1-17T5:4:47Z</time></trkpt>
<trkpt lat="48.486416" lon="2.645877"><ele></ele><time>2019-1-17T5:4:50Z</time></trkpt>
<trkpt lat="48.486519" lon="2.645754"><ele></ele><time>2019-1-17T5:4:53Z</time></trkpt>
<trkpt lat="48.486632" lon="2.645663"><ele></ele><time>2019-1-17T5:4:56Z</time></trkpt>
<trkpt lat="48.486708" lon="2.645568"><ele></ele><time>2019-1-17T5:4:59Z</time></trkpt>
<trkpt lat="48.486814" lon="2.645497"><ele></ele><time>2019-1-17T5:5:2Z</time></trkpt>
<trkpt lat="48.486899" lon="2.645406"><ele></ele><time>2019-1-17T5:5:5Z</time></trkpt>
<trkpt lat="48.48703" lon="2.645317"><ele></ele><time>2019-1-17T5:5:8Z</time></trkpt>
<trkpt lat="48.487134" lon="2.645288"><ele></ele><time>2019-1-17T5:5:11Z</time></trkpt>
<trkpt lat="48.487199" lon="2.645181"><ele></ele><time>2019-1-17T5:5:14Z</time></trkpt>
<trkpt lat="48.48728" lon="2.645104"><ele></ele><time>2019-1-17T5:5:17Z</time></trkpt>
<trkpt lat="48.487388" lon="2.644995"><ele></ele><time>2019-1-17T5:5:20Z</time></trkpt>
<trkpt lat="48.487453" lon="2.644854"><ele></ele><time>2019-1-17T5:5:23Z</time></trkpt>
<trkpt lat="48.487545" lon="2.644802"><ele></ele><time>2019-1-17T5:5:26Z</time></trkpt>
<trkpt lat="48.487653" lon="2.644776"><ele></ele><time>2019-1-17T5:5:29Z</time></trkpt>
<trkpt lat="48.487763" lon="2.644686"><ele></ele><time>2019-1-17T5:5:32Z</time></trkpt>
<trkpt lat="48.487865" lon="2.644631"><ele></ele><time>2019-1-17T5:5:35Z</time></trkpt>
<trkpt lat="48.487936" lon="2.644515"><ele></ele><time>2019-1-17T5:5:38Z</time></trkpt>
<trkpt lat="48.488054" lon="2.644437"><ele></ele><time>2019-1-17T5:5:41Z</time></trkpt>
<trkpt lat="48.48816" lon="2.644299"><ele></ele><time>2019-1-17T5:5:44Z</time></trkpt>
<trkpt lat="48.488264" lon="2.644243"><ele></ele><time>2019-1-17T5:5:47Z</time></trkpt>
<trkpt lat="48.488361" lon="2.644107"><ele></ele><time>2019-1-17T5:5:50Z</time></trkpt>
<trkpt lat="48.488484" lon="2.644036"><ele></ele><time>2019-1-17T5:5:53Z</time></trkpt>
<trkpt lat="48.488582" lon="2.644017"><ele></ele><time>2019-1-17T5:5:56Z</time></trkpt>
<trkpt lat="48.488696" lon="2.643973"><ele></ele><time>2019-1-17T5:5:59Z</time></trkpt>
<trkpt lat="48.488769" lon="2.643866"><ele></ele><time>2019-1-17T5:6:2Z</time></trkpt>
<trkpt lat="48.488919" lon="2.643829"><ele></ele><time>2019-1-17T5:6:5Z</time></trkpt>
<trkpt lat="48.489021" lon="2.64378"><ele></ele><time>2019-1-17T5:6:8Z</time></trkpt>
<trkpt lat="48.489133" lon="2.64376"><ele></ele><time>2019-1-17T5:6:11Z</time></trkpt>
<trkpt lat="48.48922" lon="2.64366"><ele></ele><time>2019-1-17T5:6:14Z</time></trkpt>
<trkpt lat="48.489305" lon="2.643587"><ele></ele><time>2019-1-17T5:6:17Z</time></trkpt>
<trkpt lat="48.489416" lon="2.643568"><ele></ele><time>2019-1-17T5:6:20Z</time></trkpt>
<trkpt lat="48.489523" lon="2.643537"><ele></ele><time>2019-1-17T5:6:23Z</time></trkpt>
<trkpt lat="48.489639" lon="2.643496"><ele></ele><time>2019-1-17T5:6:26Z</time></trkpt>
<trkpt lat="48.489729" lon="2.643464"><ele></ele><time>2019-1-17T5:6:29Z</time></trkpt>
<trkpt lat="48.489807" lon="2.643321"><ele></ele><time>2019-1-17T5:6:32Z</time></trkpt>
<trkpt lat="48.489891" lon="2.643231"><ele></ele><time>2019-1-17T5:6:35Z</time></trkpt>
<trkpt lat="48.489976" lon="2.643124"><ele></ele><time>2019-1-17T5:6:38Z</time></trkpt>
<trkpt lat="48.490035" lon="2.643013"><ele></ele><time>2019-1-17T5:6:41Z</time></trkpt>
<trkpt lat="48.490139" lon="2.642915"><ele></ele><time>2019-1-17T5:6:44Z</time></trkpt>
<trkpt lat="48.490215" lon="2.642786"><ele></ele><time>2019-1-17T5:6:47Z</time></trkpt>
<trkpt lat="48.490333" lon="2.64273"><ele></ele><time>2019-1-17T5:6:50Z</time></trkpt>
<trkpt lat="48.490451" lon="2.642628"><ele></ele><time>2019-1-17T5:6:53Z</time></trkpt>
<trkpt lat="48.490555" lon="2.642506"><ele></ele><time>2019-1-17T5:6:56Z</time></trkpt>
<trkpt lat="48.490631" lon="2.642403"><ele></ele><time>2019-1-17T5:6:59Z</time></trkpt>
<trkpt lat="48.490708" lon="2.642269"><ele></ele><time>2019-1-17T5:7:2Z</time></trkpt>
<trkpt lat="48.490778" lon="2.64218"><ele></ele><time>2019-1-17T5:7:5Z</time></trkpt>
<trkpt lat="48.490863" lon="2.642053"><ele></ele><time>2019-1-17T5:7:8Z</time></trkpt>
<trkpt lat="48.490961" lon="2.641944"><ele></ele><time>2019-1-17T5:7:11Z</time></trkpt>
<trkpt lat="48.491061" lon="2.641865"><ele></ele><time>2019-1-17T5:7:14Z</time></trkpt>
<trkpt lat="48.491143" lon="2.641726"><ele></ele><time>2019-1-17T5:7:17Z</time></trkpt>
<trkpt lat="48.491229" lon="2.641582"><ele></ele><time>2019-1-17T5:7:20Z</time></trkpt>
<trkpt lat="48.491304" lon="2.641439"><ele></ele><time>2019-1-17T5:7:23Z</time></trkpt>
<trkpt lat="48.491343" lon="2.6413"><ele></ele><time>2019-1-17T5:7:26Z</time></trkpt>
<trkpt lat="48.491396" lon="2.641188"><ele></ele><time>2019-1-17T5:7:29Z</time></trkpt>
<trkpt lat="48.491471" lon="2.641057"><ele></ele><time>2019-1-17T5:7:32Z</time></trkpt>
<trkpt lat="48.491569" lon="2.640909"><ele></ele><time>2019-1-17T5:7:35Z</time></trkpt>
<trkpt lat="48.491688" lon="2.640783"><ele></ele><time>2019-1-17T5:7:38Z</time></trkpt>
<trkpt lat="48.491806" lon="2.640735"><ele></ele><time>2019-1-17T5:7:41Z</time></trkpt>
<trkpt lat="48.491886" lon="2.640582"><ele></ele><time>2019-1-17T5:7:44Z</time></trkpt>
<trkpt lat="48.491958" lon="2.640487"><ele></ele><time>2019-1-17T5:7:47Z</time></trkpt>
<trkpt lat="48.492057" lon="2.640386"><ele></ele><time>2019-1-17T5:7:50Z</time></trkpt>
<trkpt lat="48.492133" lon="2.640226"><ele></ele><time>2019-1-17T5:7:53Z</time></trkpt>
<trkpt lat="48.492206" lon="2.640044"><ele></ele><time>2019-1-17T5:7:56Z</time></trkpt>
<trkpt lat="48.492349" lon="2.640062"><ele></ele><time>2019-1-17T5:7:59Z</time></trkpt>
<trkpt lat="48.492474" lon="2.640044"><ele></ele><time>2019-1-17T5:8:2Z</time></trkpt>
<trkpt lat="48.49256" lon="2.639937"><ele></ele><time>2019-1-17T5:8:5Z</time></trkpt>
<trkpt lat="48.492629" lon="2.639825"><ele></ele><time>2019-1-17T5:8:8Z</time></trkpt>
<trkpt lat="48.49274" lon="2.639791"><ele></ele><time>2019-1-17T5:8:11Z</time></trkpt>
<trkpt lat="48.492844" lon="2.639632"><ele></ele><time>2019-1-17T5:8:14Z</time></trkpt>
<trkpt lat="48.492921" lon="2.639516"><ele></ele><time>2019-1-17T5:8:17Z</time></trkpt>
<trkpt lat="48.493015" lon="2.63946"><ele></ele><time>2019-1-17T5:8:20Z</time></trkpt>
<trkpt lat="48.493114" lon="2.639343"><ele></ele><time>2019-1-17T5:8:23Z</time></trkpt>
<trkpt lat="48.493153" lon="2.639202"><ele></ele><time>2019-1-17T5:8:26Z</time></trkpt>
<trkpt lat="48.493191" lon="2.639079"><ele></ele><time>2019-1-17T5:8:29Z</time></trkpt>
<trkpt lat="48.493246" lon="2.638962"><ele></ele><time>2019-1-17T5:8:32Z</time></trkpt>
<trkpt lat="48.493338" lon="2.63889"><ele></ele><time>2019-1-17T5:8:35Z</time></trkpt>
<trkpt lat="48.493415" lon="2.638786"><ele></ele><time>2019-1-17T5:8:38Z</time></trkpt>
<trkpt lat="48.493485" lon="2.638664"><ele></ele><time>2019-1-17T5:8:41Z</time></trkpt>
<trkpt lat="48.493626" lon="2.638619"><ele></ele><time>2019-1-17T5:8:44Z</time></trkpt>
<trkpt lat="48.493725" lon="2.638546"><ele></ele><time>2019-1-17T5:8:47Z</time></trkpt>
<trkpt lat="48.49374" lon="2.638389"><ele></ele><time>2019-1-17T5:8:50Z</time></trkpt>
<trkpt lat="48.493823" lon="2.63828"><ele></ele><time>2019-1-17T5:8:53Z</time></trkpt>
<trkpt lat="48.493938" lon="2.638204"><ele></ele><time>2019-1-17T5:8:56Z</time></trkpt>
<trkpt lat="48.494045" lon="2.638085"><ele></ele><time>2019-1-17T5:8:59Z</time></trkpt>
<trkpt lat="48.494122" lon="2.637947"><ele></ele><time>2019-1-17T5:9:2Z</time></trkpt>
<trkpt lat="48.494204" lon="2.637851"><ele></ele><time>2019-1-17T5:9:5Z</time></trkpt>
<trkpt lat="48.494272" lon="2.637736"><ele></ele><time>2019-1-17T5:9:8Z</time></trkpt>
<trkpt lat="48.494395" lon="2.637649"><ele></ele><time>2019-1-17T5:9:11Z</time></trkpt>
<trkpt lat="48.494517" lon="2.637539"><ele></ele><time>2019-1-17T5:9:14Z</time></trkpt>
<trkpt lat="48.494538" lon="2.637399"><ele></ele><time>2019-1-17T5:9:17Z</time></trkpt>
<trkpt lat="48.494675" lon="2.63731"><ele></ele><time>2019-1-17T5:9:20Z</time></trkpt>
<trkpt lat="48.494756" lon="2.637178"><ele></ele><time>2019-1-17T5:9:23Z</time></trkpt>
<trkpt lat="48.494825" lon="2.637056"><ele></ele><time>2019-1-17T5:9:26Z</time></trkpt>
<trkpt lat="48.494891" lon="2.636939"><ele></ele><time>2019-1-17T5:9:29Z</time></trkpt>
<trkpt lat="48.494982" lon="2.636826"><ele></ele><time>2019-1-17T5:9:32Z</time></trkpt>
<trkpt lat="48.495123" lon="2.636743"><ele></ele><time>2019-1-17T5:9:35Z</time></trkpt>
<trkpt lat="48.495204" lon="2.636616"><ele></ele><time>2019-1-17T5:9:38Z</time></trkpt>
<trkpt lat="48.495293" lon="2.636514"><ele></ele><time>2019-1-17T5:9:41Z</time></trkpt>
<trkpt lat="48.495403" lon="2.636386"><ele></ele><time>2019-1-17T5:9:44Z</time></trkpt>
<trkpt lat="48.495497" lon="2.636277"><ele></ele><time>2019-1-17T5:9:47Z</time></trkpt>
<trkpt lat="48.495552" lon="2.63616"><ele></ele><time>2019-1-17T5:9:50Z</time></trkpt>
<trkpt lat="48.495683" lon="2.636055"><ele></ele><time>2019-1-17T5:9:53Z</time></trkpt>
<trkpt lat="48.495774" lon="2.635954"><ele></ele><time>2019-1-17T5:9:56Z</time></trkpt>
<trkpt lat="48.495814" lon="2.635828"><ele></ele><time>2019-1-17T5:9:59Z</time></trkpt>
<trkpt lat="48.495903" lon="2.635664"><ele></ele><time>2019-1-17T5:10:2Z</time></trkpt>
<trkpt lat="48.495994" lon="2.635604"><ele></ele><time>2019-1-17T5:10:5Z</time></trkpt>
<trkpt lat="48.496084" lon="2.63551"><ele></ele><time>2019-1-17T5:10:8Z</time></trkpt>
<trkpt lat="48.496197" lon="2.635491"><ele></ele><time>2019-1-17T5:10:11Z</time></trkpt>
<trkpt lat="48.496378" lon="2.635428"><ele></ele><time>2019-1-17T5:10:14Z</time></trkpt>
<trkpt lat="48.496462" lon="2.635283"><ele></ele><time>2019-1-17T5:10:17Z</time></trkpt>
<trkpt lat="48.496494" lon="2.635142"><ele></ele><time>2019-1-17T5:10:20Z</time></trkpt>
<trkpt lat="48.496567" lon="2.63504"><ele></ele><time>2019-1-17T5:10:23Z</time></trkpt>
<trkpt lat="48.496654" lon="2.634991"><ele></ele><time>2019-1-17T5:10:26Z</time></trkpt>
<trkpt lat="48.496803" lon="2.634856"><ele></ele><time>2019-1-17T5:10:29Z</time></trkpt>
<trkpt lat="48.496703" lon="2.634734"><ele></ele><time>2019-1-17T5:10:32Z</time></trkpt>
<trkpt lat="48.496801" lon="2.63468"><ele></ele><time>2019-1-17T5:10:35Z</time></trkpt>
<trkpt lat="48.496919" lon="2.634607"><ele></ele><time>2019-1-17T5:10:38Z</time></trkpt>
<trkpt lat="48.49698" lon="2.634449"><ele></ele><time>2019-1-17T5:10:41Z</time></trkpt>
<trkpt lat="48.497035" lon="2.63433"><ele></ele><time>2019-1-17T5:10:44Z</time></trkpt>
<trkpt lat="48.497061" lon="2.634127"><ele></ele><time>2019-1-17T5:10:47Z</time></trkpt>
<trkpt lat="48.497146" lon="2.634007"><ele></ele><time>2019-1-17T5:10:50Z</time></trkpt>
<trkpt lat="48.4972" lon="2.633885"><ele></ele><time>2019-1-17T5:10:53Z</time></trkpt>
<trkpt lat="48.497257" lon="2.633751"><ele></ele><time>2019-1-17T5:10:56Z</time></trkpt>
<trkpt lat="48.497334" lon="2.633595"><ele></ele><time>2019-1-17T5:10:59Z</time></trkpt>
<trkpt lat="48.497384" lon="2.633433"><ele></ele><time>2019-1-17T5:11:2Z</time></trkpt>
<trkpt lat="48.497426" lon="2.633249"><ele></ele><time>2019-1-17T5:11:5Z</time></trkpt>
<trkpt lat="48.497496" lon="2.633059"><ele></ele><time>2019-1-17T5:11:8Z</time></trkpt>
<trkpt lat="48.497555" lon="2.632837"><ele></ele><time>2019-1-17T5:11:11Z</time></trkpt>
<trkpt lat="48.497629" lon="2.632623"><ele></ele><time>2019-1-17T5:11:14Z</time></trkpt>
<trkpt lat="48.49772" lon="2.632398"><ele></ele><time>2019-1-17T5:11:17Z</time></trkpt>
<trkpt lat="48.497793" lon="2.632167"><ele></ele><time>2019-1-17T5:11:20Z</time></trkpt>
<trkpt lat="48.497871" lon="2.631926"><ele></ele><time>2019-1-17T5:11:23Z</time></trkpt>
<trkpt lat="48.497986" lon="2.631684"><ele></ele><time>2019-1-17T5:11:26Z</time></trkpt>
<trkpt lat="48.498076" lon="2.631427"><ele></ele><time>2019-1-17T5:11:29Z</time></trkpt>
<trkpt lat="48.498153" lon="2.631173"><ele></ele><time>2019-1-17T5:11:32Z</time></trkpt>
</trkseg></trk></gpx>